<?xml version="1.0" encoding="UTF-8" standalone="no" ?>
<gpx xmlns="http://www.topografix.com/GPX/1/1" xmlns:xsi="http://www.w3.org/2001/XMLSchema-instance" xsi:schemaLocation="http://www.topografix.com/GPX/1/1 http://www.topografix.com/GPX/1/1/gpx.xsd" version="1.1" creator="VisuGPX - https://www.visugpx.com">
  <metadata>
    <name>Trajet Maurens - Villamblard</name>
    <desc><![CDATA[Un parcours de 17km de Maurens à Villamblard riche en paysages. De belles dénivelées sont au programme.]]></desc>
  </metadata>
  <trk>
    <name><![CDATA[Track 2013-03-04  11:17am]]></name>
    <trkseg>
      <trkpt lat="44.93296" lon="0.48456">
        <ele>122.594482</ele>
        <time>2013-03-04T11:18:13Z</time>
      </trkpt>
      <trkpt lat="44.933" lon="0.48454">
        <ele>122.471497</ele>
        <time>2013-03-04T11:18:39Z</time>
      </trkpt>
      <trkpt lat="44.93306" lon="0.48456">
        <ele>122.415405</ele>
        <time>2013-03-04T11:18:42Z</time>
      </trkpt>
      <trkpt lat="44.93313" lon="0.48459">
        <ele>122.389771</ele>
        <time>2013-03-04T11:18:44Z</time>
      </trkpt>
      <trkpt lat="44.93321" lon="0.48462">
        <ele>122.39093</ele>
        <time>2013-03-04T11:18:46Z</time>
      </trkpt>
      <trkpt lat="44.9333" lon="0.48466">
        <ele>122.400391</ele>
        <time>2013-03-04T11:18:48Z</time>
      </trkpt>
      <trkpt lat="44.93339" lon="0.48469">
        <ele>122.355713</ele>
        <time>2013-03-04T11:18:50Z</time>
      </trkpt>
      <trkpt lat="44.93346" lon="0.48472">
        <ele>122.304626</ele>
        <time>2013-03-04T11:18:51Z</time>
      </trkpt>
      <trkpt lat="44.93356" lon="0.48477">
        <ele>122.310059</ele>
        <time>2013-03-04T11:18:53Z</time>
      </trkpt>
      <trkpt lat="44.93369" lon="0.4848">
        <ele>122.237366</ele>
        <time>2013-03-04T11:18:55Z</time>
      </trkpt>
      <trkpt lat="44.93374" lon="0.48482">
        <ele>122.247986</ele>
        <time>2013-03-04T11:18:56Z</time>
      </trkpt>
      <trkpt lat="44.9338" lon="0.48485">
        <ele>122.286011</ele>
        <time>2013-03-04T11:18:57Z</time>
      </trkpt>
      <trkpt lat="44.9339" lon="0.48487">
        <ele>122.23761</ele>
        <time>2013-03-04T11:18:59Z</time>
      </trkpt>
      <trkpt lat="44.93401" lon="0.48488">
        <ele>122.107422</ele>
        <time>2013-03-04T11:19:01Z</time>
      </trkpt>
      <trkpt lat="44.93412" lon="0.48495">
        <ele>122.560364</ele>
        <time>2013-03-04T11:19:03Z</time>
      </trkpt>
      <trkpt lat="44.93423" lon="0.48498">
        <ele>122.945374</ele>
        <time>2013-03-04T11:19:05Z</time>
      </trkpt>
      <trkpt lat="44.93433" lon="0.48492">
        <ele>122.682861</ele>
        <time>2013-03-04T11:19:07Z</time>
      </trkpt>
      <trkpt lat="44.93441" lon="0.48495">
        <ele>123.139282</ele>
        <time>2013-03-04T11:19:09Z</time>
      </trkpt>
      <trkpt lat="44.93446" lon="0.48497">
        <ele>123.443115</ele>
        <time>2013-03-04T11:19:10Z</time>
      </trkpt>
      <trkpt lat="44.93454" lon="0.485">
        <ele>123.857361</ele>
        <time>2013-03-04T11:19:12Z</time>
      </trkpt>
      <trkpt lat="44.9346" lon="0.48502">
        <ele>124.083191</ele>
        <time>2013-03-04T11:19:14Z</time>
      </trkpt>
      <trkpt lat="44.93464" lon="0.48504">
        <ele>124.238037</ele>
        <time>2013-03-04T11:19:16Z</time>
      </trkpt>
      <trkpt lat="44.93473" lon="0.48507">
        <ele>124.543884</ele>
        <time>2013-03-04T11:19:18Z</time>
      </trkpt>
      <trkpt lat="44.93485" lon="0.48515">
        <ele>125.017273</ele>
        <time>2013-03-04T11:19:21Z</time>
      </trkpt>
      <trkpt lat="44.93501" lon="0.48529">
        <ele>125.656616</ele>
        <time>2013-03-04T11:19:24Z</time>
      </trkpt>
      <trkpt lat="44.93515" lon="0.48542">
        <ele>125.647583</ele>
        <time>2013-03-04T11:19:28Z</time>
      </trkpt>
      <trkpt lat="44.93522" lon="0.48548">
        <ele>125.642761</ele>
        <time>2013-03-04T11:19:29Z</time>
      </trkpt>
      <trkpt lat="44.93536" lon="0.48562">
        <ele>125.620605</ele>
        <time>2013-03-04T11:19:34Z</time>
      </trkpt>
      <trkpt lat="44.93542" lon="0.48568">
        <ele>125.609924</ele>
        <time>2013-03-04T11:19:36Z</time>
      </trkpt>
      <trkpt lat="44.93547" lon="0.48572">
        <ele>125.6026</ele>
        <time>2013-03-04T11:19:38Z</time>
      </trkpt>
      <trkpt lat="44.93561" lon="0.48584">
        <ele>125.551941</ele>
        <time>2013-03-04T11:19:40Z</time>
      </trkpt>
      <trkpt lat="44.93567" lon="0.48589">
        <ele>125.543823</ele>
        <time>2013-03-04T11:19:41Z</time>
      </trkpt>
      <trkpt lat="44.93573" lon="0.48594">
        <ele>125.568054</ele>
        <time>2013-03-04T11:19:42Z</time>
      </trkpt>
      <trkpt lat="44.93576" lon="0.48597">
        <ele>125.601929</ele>
        <time>2013-03-04T11:19:43Z</time>
      </trkpt>
      <trkpt lat="44.93583" lon="0.48602">
        <ele>125.6828</ele>
        <time>2013-03-04T11:19:45Z</time>
      </trkpt>
      <trkpt lat="44.93598" lon="0.48614">
        <ele>125.923584</ele>
        <time>2013-03-04T11:19:48Z</time>
      </trkpt>
      <trkpt lat="44.93603" lon="0.48618">
        <ele>126.000305</ele>
        <time>2013-03-04T11:19:50Z</time>
      </trkpt>
      <trkpt lat="44.93611" lon="0.48624">
        <ele>126.123779</ele>
        <time>2013-03-04T11:19:52Z</time>
      </trkpt>
      <trkpt lat="44.93618" lon="0.48629">
        <ele>126.233765</ele>
        <time>2013-03-04T11:19:55Z</time>
      </trkpt>
      <trkpt lat="44.93628" lon="0.48638">
        <ele>126.427368</ele>
        <time>2013-03-04T11:19:56Z</time>
      </trkpt>
      <trkpt lat="44.93638" lon="0.48647">
        <ele>126.630493</ele>
        <time>2013-03-04T11:19:58Z</time>
      </trkpt>
      <trkpt lat="44.93642" lon="0.48651">
        <ele>126.721924</ele>
        <time>2013-03-04T11:20:00Z</time>
      </trkpt>
      <trkpt lat="44.93656" lon="0.4866">
        <ele>126.880493</ele>
        <time>2013-03-04T11:20:03Z</time>
      </trkpt>
      <trkpt lat="44.93666" lon="0.48667">
        <ele>127.007141</ele>
        <time>2013-03-04T11:20:05Z</time>
      </trkpt>
      <trkpt lat="44.93672" lon="0.48671">
        <ele>126.800293</ele>
        <time>2013-03-04T11:20:06Z</time>
      </trkpt>
      <trkpt lat="44.93682" lon="0.48677">
        <ele>126.432739</ele>
        <time>2013-03-04T11:20:08Z</time>
      </trkpt>
      <trkpt lat="44.93686" lon="0.48681">
        <ele>126.270264</ele>
        <time>2013-03-04T11:20:09Z</time>
      </trkpt>
      <trkpt lat="44.93698" lon="0.48689">
        <ele>125.861816</ele>
        <time>2013-03-04T11:20:11Z</time>
      </trkpt>
      <trkpt lat="44.93711" lon="0.48698">
        <ele>125.446472</ele>
        <time>2013-03-04T11:20:13Z</time>
      </trkpt>
      <trkpt lat="44.93717" lon="0.48702">
        <ele>125.250488</ele>
        <time>2013-03-04T11:20:14Z</time>
      </trkpt>
      <trkpt lat="44.93725" lon="0.48708">
        <ele>125.026001</ele>
        <time>2013-03-04T11:20:15Z</time>
      </trkpt>
      <trkpt lat="44.93731" lon="0.48711">
        <ele>124.872559</ele>
        <time>2013-03-04T11:20:17Z</time>
      </trkpt>
      <trkpt lat="44.93744" lon="0.48721">
        <ele>124.539185</ele>
        <time>2013-03-04T11:20:18Z</time>
      </trkpt>
      <trkpt lat="44.93749" lon="0.48724">
        <ele>124.412659</ele>
        <time>2013-03-04T11:20:19Z</time>
      </trkpt>
      <trkpt lat="44.93756" lon="0.48729">
        <ele>124.389343</ele>
        <time>2013-03-04T11:20:20Z</time>
      </trkpt>
      <trkpt lat="44.93763" lon="0.48734">
        <ele>124.4021</ele>
        <time>2013-03-04T11:20:21Z</time>
      </trkpt>
      <trkpt lat="44.93776" lon="0.48743">
        <ele>124.4776</ele>
        <time>2013-03-04T11:20:23Z</time>
      </trkpt>
      <trkpt lat="44.93782" lon="0.48748">
        <ele>124.537659</ele>
        <time>2013-03-04T11:20:24Z</time>
      </trkpt>
      <trkpt lat="44.9379" lon="0.48753">
        <ele>124.695557</ele>
        <time>2013-03-04T11:20:25Z</time>
      </trkpt>
      <trkpt lat="44.93796" lon="0.48758">
        <ele>124.883972</ele>
        <time>2013-03-04T11:20:26Z</time>
      </trkpt>
      <trkpt lat="44.93808" lon="0.48766">
        <ele>125.284729</ele>
        <time>2013-03-04T11:20:28Z</time>
      </trkpt>
      <trkpt lat="44.93818" lon="0.48772">
        <ele>125.625793</ele>
        <time>2013-03-04T11:20:30Z</time>
      </trkpt>
      <trkpt lat="44.93826" lon="0.48776">
        <ele>125.89801</ele>
        <time>2013-03-04T11:20:33Z</time>
      </trkpt>
      <trkpt lat="44.93835" lon="0.48781">
        <ele>126.192871</ele>
        <time>2013-03-04T11:20:34Z</time>
      </trkpt>
      <trkpt lat="44.93841" lon="0.48783">
        <ele>126.377808</ele>
        <time>2013-03-04T11:20:35Z</time>
      </trkpt>
      <trkpt lat="44.93847" lon="0.48785">
        <ele>126.524658</ele>
        <time>2013-03-04T11:20:36Z</time>
      </trkpt>
      <trkpt lat="44.93855" lon="0.48787">
        <ele>126.680664</ele>
        <time>2013-03-04T11:20:38Z</time>
      </trkpt>
      <trkpt lat="44.93864" lon="0.48788">
        <ele>126.762329</ele>
        <time>2013-03-04T11:20:40Z</time>
      </trkpt>
      <trkpt lat="44.93874" lon="0.48789">
        <ele>126.792358</ele>
        <time>2013-03-04T11:20:42Z</time>
      </trkpt>
      <trkpt lat="44.93888" lon="0.48789">
        <ele>126.810303</ele>
        <time>2013-03-04T11:20:44Z</time>
      </trkpt>
      <trkpt lat="44.93894" lon="0.48789">
        <ele>126.795288</ele>
        <time>2013-03-04T11:20:45Z</time>
      </trkpt>
      <trkpt lat="44.93914" lon="0.48786">
        <ele>126.624207</ele>
        <time>2013-03-04T11:20:47Z</time>
      </trkpt>
      <trkpt lat="44.93925" lon="0.48784">
        <ele>125.348145</ele>
        <time>2013-03-04T11:20:48Z</time>
      </trkpt>
      <trkpt lat="44.93935" lon="0.48783">
        <ele>123.89679</ele>
        <time>2013-03-04T11:20:49Z</time>
      </trkpt>
      <trkpt lat="44.93949" lon="0.48781">
        <ele>121.757935</ele>
        <time>2013-03-04T11:20:51Z</time>
      </trkpt>
      <trkpt lat="44.93957" lon="0.48781">
        <ele>120.754639</ele>
        <time>2013-03-04T11:20:52Z</time>
      </trkpt>
      <trkpt lat="44.93977" lon="0.48783">
        <ele>118.128174</ele>
        <time>2013-03-04T11:20:54Z</time>
      </trkpt>
      <trkpt lat="44.93988" lon="0.48795">
        <ele>117.438782</ele>
        <time>2013-03-04T11:20:56Z</time>
      </trkpt>
      <trkpt lat="44.93996" lon="0.48807">
        <ele>116.95929</ele>
        <time>2013-03-04T11:20:57Z</time>
      </trkpt>
      <trkpt lat="44.94005" lon="0.48818">
        <ele>116.549133</ele>
        <time>2013-03-04T11:20:58Z</time>
      </trkpt>
      <trkpt lat="44.94011" lon="0.48827">
        <ele>116.235413</ele>
        <time>2013-03-04T11:20:59Z</time>
      </trkpt>
      <trkpt lat="44.94024" lon="0.48845">
        <ele>115.275879</ele>
        <time>2013-03-04T11:21:01Z</time>
      </trkpt>
      <trkpt lat="44.9403" lon="0.48854">
        <ele>114.657898</ele>
        <time>2013-03-04T11:21:02Z</time>
      </trkpt>
      <trkpt lat="44.94051" lon="0.48879">
        <ele>112.182007</ele>
        <time>2013-03-04T11:21:04Z</time>
      </trkpt>
      <trkpt lat="44.94063" lon="0.48887">
        <ele>110.290894</ele>
        <time>2013-03-04T11:21:05Z</time>
      </trkpt>
      <trkpt lat="44.94075" lon="0.48893">
        <ele>108.312683</ele>
        <time>2013-03-04T11:21:06Z</time>
      </trkpt>
      <trkpt lat="44.94083" lon="0.48897">
        <ele>107.067017</ele>
        <time>2013-03-04T11:21:07Z</time>
      </trkpt>
      <trkpt lat="44.94091" lon="0.48903">
        <ele>106.519958</ele>
        <time>2013-03-04T11:21:08Z</time>
      </trkpt>
      <trkpt lat="44.94098" lon="0.48912">
        <ele>105.999268</ele>
        <time>2013-03-04T11:21:09Z</time>
      </trkpt>
      <trkpt lat="44.94114" lon="0.48931">
        <ele>105.584595</ele>
        <time>2013-03-04T11:21:11Z</time>
      </trkpt>
      <trkpt lat="44.94127" lon="0.48954">
        <ele>105.900574</ele>
        <time>2013-03-04T11:21:13Z</time>
      </trkpt>
      <trkpt lat="44.94139" lon="0.48975">
        <ele>105.804504</ele>
        <time>2013-03-04T11:21:15Z</time>
      </trkpt>
      <trkpt lat="44.94155" lon="0.48978">
        <ele>104.316406</ele>
        <time>2013-03-04T11:21:17Z</time>
      </trkpt>
      <trkpt lat="44.94163" lon="0.48979">
        <ele>103.651062</ele>
        <time>2013-03-04T11:21:18Z</time>
      </trkpt>
      <trkpt lat="44.94174" lon="0.48984">
        <ele>104.394653</ele>
        <time>2013-03-04T11:21:20Z</time>
      </trkpt>
      <trkpt lat="44.94178" lon="0.48993">
        <ele>105.271057</ele>
        <time>2013-03-04T11:21:21Z</time>
      </trkpt>
      <trkpt lat="44.94184" lon="0.48993">
        <ele>106.122559</ele>
        <time>2013-03-04T11:21:23Z</time>
      </trkpt>
      <trkpt lat="44.9419" lon="0.48992">
        <ele>106.887756</ele>
        <time>2013-03-04T11:21:26Z</time>
      </trkpt>
      <trkpt lat="44.94196" lon="0.4899">
        <ele>107.677124</ele>
        <time>2013-03-04T11:21:29Z</time>
      </trkpt>
      <trkpt lat="44.942" lon="0.48988">
        <ele>108.240784</ele>
        <time>2013-03-04T11:21:34Z</time>
      </trkpt>
      <trkpt lat="44.94202" lon="0.48987">
        <ele>108.446777</ele>
        <time>2013-03-04T11:21:39Z</time>
      </trkpt>
      <trkpt lat="44.942" lon="0.48988">
        <ele>108.152222</ele>
        <time>2013-03-04T11:21:45Z</time>
      </trkpt>
      <trkpt lat="44.94198" lon="0.48989">
        <ele>107.901489</ele>
        <time>2013-03-04T11:21:52Z</time>
      </trkpt>
      <trkpt lat="44.94198" lon="0.48989">
        <ele>107.881775</ele>
        <time>2013-03-04T11:21:58Z</time>
      </trkpt>
      <trkpt lat="44.94225" lon="0.49022">
        <ele>111.773743</ele>
        <time>2013-03-04T11:38:14Z</time>
      </trkpt>
      <trkpt lat="44.94224" lon="0.49031">
        <ele>111.752991</ele>
        <time>2013-03-04T11:38:16Z</time>
      </trkpt>
      <trkpt lat="44.9423" lon="0.49027">
        <ele>112.399475</ele>
        <time>2013-03-04T11:38:18Z</time>
      </trkpt>
      <trkpt lat="44.94242" lon="0.4903">
        <ele>113.794373</ele>
        <time>2013-03-04T11:38:20Z</time>
      </trkpt>
      <trkpt lat="44.94252" lon="0.49026">
        <ele>115.003174</ele>
        <time>2013-03-04T11:38:22Z</time>
      </trkpt>
      <trkpt lat="44.94248" lon="0.49005">
        <ele>114.624817</ele>
        <time>2013-03-04T11:38:24Z</time>
      </trkpt>
      <trkpt lat="44.94242" lon="0.49009">
        <ele>113.840271</ele>
        <time>2013-03-04T11:38:25Z</time>
      </trkpt>
      <trkpt lat="44.94246" lon="0.4901">
        <ele>114.40509</ele>
        <time>2013-03-04T11:38:29Z</time>
      </trkpt>
      <trkpt lat="44.94223" lon="0.49017">
        <ele>111.570007</ele>
        <time>2013-03-04T11:38:31Z</time>
      </trkpt>
      <trkpt lat="44.94208" lon="0.49023">
        <ele>109.902466</ele>
        <time>2013-03-04T11:38:33Z</time>
      </trkpt>
      <trkpt lat="44.94211" lon="0.49017">
        <ele>110.095459</ele>
        <time>2013-03-04T11:38:35Z</time>
      </trkpt>
      <trkpt lat="44.94205" lon="0.49009">
        <ele>109.174866</ele>
        <time>2013-03-04T11:38:37Z</time>
      </trkpt>
      <trkpt lat="44.94204" lon="0.49005">
        <ele>109.009094</ele>
        <time>2013-03-04T11:38:45Z</time>
      </trkpt>
      <trkpt lat="44.9421" lon="0.49006">
        <ele>109.843506</ele>
        <time>2013-03-04T11:38:47Z</time>
      </trkpt>
      <trkpt lat="44.94218" lon="0.49008">
        <ele>110.841064</ele>
        <time>2013-03-04T11:38:50Z</time>
      </trkpt>
      <trkpt lat="44.94222" lon="0.4901">
        <ele>111.407288</ele>
        <time>2013-03-04T11:38:52Z</time>
      </trkpt>
      <trkpt lat="44.94228" lon="0.49012">
        <ele>112.081787</ele>
        <time>2013-03-04T11:38:55Z</time>
      </trkpt>
      <trkpt lat="44.94233" lon="0.49015">
        <ele>112.77832</ele>
        <time>2013-03-04T11:38:58Z</time>
      </trkpt>
      <trkpt lat="44.94238" lon="0.49018">
        <ele>113.380737</ele>
        <time>2013-03-04T11:39:01Z</time>
      </trkpt>
      <trkpt lat="44.9424" lon="0.49027">
        <ele>113.520203</ele>
        <time>2013-03-04T11:39:06Z</time>
      </trkpt>
      <trkpt lat="44.94241" lon="0.49034">
        <ele>113.569519</ele>
        <time>2013-03-04T11:39:08Z</time>
      </trkpt>
      <trkpt lat="44.94243" lon="0.49043">
        <ele>113.812134</ele>
        <time>2013-03-04T11:39:10Z</time>
      </trkpt>
      <trkpt lat="44.94245" lon="0.49052">
        <ele>113.945862</ele>
        <time>2013-03-04T11:39:12Z</time>
      </trkpt>
      <trkpt lat="44.94246" lon="0.4906">
        <ele>113.96698</ele>
        <time>2013-03-04T11:39:14Z</time>
      </trkpt>
      <trkpt lat="44.94248" lon="0.49065">
        <ele>114.080078</ele>
        <time>2013-03-04T11:39:16Z</time>
      </trkpt>
      <trkpt lat="44.9425" lon="0.49073">
        <ele>114.135132</ele>
        <time>2013-03-04T11:39:19Z</time>
      </trkpt>
      <trkpt lat="44.9425" lon="0.4908">
        <ele>114.012695</ele>
        <time>2013-03-04T11:39:23Z</time>
      </trkpt>
      <trkpt lat="44.94249" lon="0.49087">
        <ele>113.819092</ele>
        <time>2013-03-04T11:39:24Z</time>
      </trkpt>
      <trkpt lat="44.94249" lon="0.49096">
        <ele>113.63916</ele>
        <time>2013-03-04T11:39:28Z</time>
      </trkpt>
      <trkpt lat="44.94251" lon="0.49105">
        <ele>113.554565</ele>
        <time>2013-03-04T11:39:30Z</time>
      </trkpt>
      <trkpt lat="44.94256" lon="0.49108">
        <ele>113.91449</ele>
        <time>2013-03-04T11:39:34Z</time>
      </trkpt>
      <trkpt lat="44.9426" lon="0.4911">
        <ele>114.184143</ele>
        <time>2013-03-04T11:39:40Z</time>
      </trkpt>
      <trkpt lat="44.94264" lon="0.4911">
        <ele>114.596741</ele>
        <time>2013-03-04T11:39:46Z</time>
      </trkpt>
      <trkpt lat="44.94269" lon="0.49109">
        <ele>115.030884</ele>
        <time>2013-03-04T11:39:48Z</time>
      </trkpt>
      <trkpt lat="44.94274" lon="0.4911">
        <ele>115.435364</ele>
        <time>2013-03-04T11:39:50Z</time>
      </trkpt>
      <trkpt lat="44.94281" lon="0.49112">
        <ele>115.833496</ele>
        <time>2013-03-04T11:39:53Z</time>
      </trkpt>
      <trkpt lat="44.94286" lon="0.49115">
        <ele>116.171021</ele>
        <time>2013-03-04T11:39:56Z</time>
      </trkpt>
      <trkpt lat="44.94291" lon="0.49115">
        <ele>116.574219</ele>
        <time>2013-03-04T11:40:00Z</time>
      </trkpt>
      <trkpt lat="44.94297" lon="0.49112">
        <ele>117.205261</ele>
        <time>2013-03-04T11:40:04Z</time>
      </trkpt>
      <trkpt lat="44.94302" lon="0.49108">
        <ele>117.885193</ele>
        <time>2013-03-04T11:40:07Z</time>
      </trkpt>
      <trkpt lat="44.94306" lon="0.49105">
        <ele>118.464661</ele>
        <time>2013-03-04T11:40:10Z</time>
      </trkpt>
      <trkpt lat="44.9431" lon="0.49103">
        <ele>119.03418</ele>
        <time>2013-03-04T11:40:13Z</time>
      </trkpt>
      <trkpt lat="44.94311" lon="0.49094">
        <ele>119.735046</ele>
        <time>2013-03-04T11:40:18Z</time>
      </trkpt>
      <trkpt lat="44.94313" lon="0.49088">
        <ele>120.389893</ele>
        <time>2013-03-04T11:40:21Z</time>
      </trkpt>
      <trkpt lat="44.94315" lon="0.49082">
        <ele>121.142517</ele>
        <time>2013-03-04T11:40:24Z</time>
      </trkpt>
      <trkpt lat="44.94317" lon="0.49076">
        <ele>121.694946</ele>
        <time>2013-03-04T11:40:27Z</time>
      </trkpt>
      <trkpt lat="44.94318" lon="0.4907">
        <ele>122.104187</ele>
        <time>2013-03-04T11:40:32Z</time>
      </trkpt>
      <trkpt lat="44.9432" lon="0.49065">
        <ele>122.746521</ele>
        <time>2013-03-04T11:40:37Z</time>
      </trkpt>
      <trkpt lat="44.94324" lon="0.4906">
        <ele>123.4646</ele>
        <time>2013-03-04T11:40:40Z</time>
      </trkpt>
      <trkpt lat="44.94328" lon="0.49057">
        <ele>124.218018</ele>
        <time>2013-03-04T11:40:43Z</time>
      </trkpt>
      <trkpt lat="44.94332" lon="0.49054">
        <ele>124.952271</ele>
        <time>2013-03-04T11:40:47Z</time>
      </trkpt>
      <trkpt lat="44.94338" lon="0.4905">
        <ele>125.655701</ele>
        <time>2013-03-04T11:40:49Z</time>
      </trkpt>
      <trkpt lat="44.94342" lon="0.49047">
        <ele>126.051208</ele>
        <time>2013-03-04T11:40:51Z</time>
      </trkpt>
      <trkpt lat="44.94348" lon="0.49044">
        <ele>126.559448</ele>
        <time>2013-03-04T11:40:54Z</time>
      </trkpt>
      <trkpt lat="44.94354" lon="0.49042">
        <ele>126.975586</ele>
        <time>2013-03-04T11:40:55Z</time>
      </trkpt>
      <trkpt lat="44.94359" lon="0.49043">
        <ele>127.156311</ele>
        <time>2013-03-04T11:40:57Z</time>
      </trkpt>
      <trkpt lat="44.94364" lon="0.49045">
        <ele>127.237427</ele>
        <time>2013-03-04T11:40:59Z</time>
      </trkpt>
      <trkpt lat="44.94369" lon="0.49048">
        <ele>127.328613</ele>
        <time>2013-03-04T11:41:01Z</time>
      </trkpt>
      <trkpt lat="44.94376" lon="0.49052">
        <ele>127.415039</ele>
        <time>2013-03-04T11:41:03Z</time>
      </trkpt>
      <trkpt lat="44.94383" lon="0.49056">
        <ele>127.547058</ele>
        <time>2013-03-04T11:41:05Z</time>
      </trkpt>
      <trkpt lat="44.94391" lon="0.49063">
        <ele>127.619873</ele>
        <time>2013-03-04T11:41:07Z</time>
      </trkpt>
      <trkpt lat="44.94399" lon="0.49069">
        <ele>127.723145</ele>
        <time>2013-03-04T11:41:09Z</time>
      </trkpt>
      <trkpt lat="44.94405" lon="0.49074">
        <ele>127.798401</ele>
        <time>2013-03-04T11:41:11Z</time>
      </trkpt>
      <trkpt lat="44.94411" lon="0.49079">
        <ele>127.858337</ele>
        <time>2013-03-04T11:41:13Z</time>
      </trkpt>
      <trkpt lat="44.94416" lon="0.49086">
        <ele>127.761963</ele>
        <time>2013-03-04T11:41:15Z</time>
      </trkpt>
      <trkpt lat="44.94422" lon="0.49091">
        <ele>127.168762</ele>
        <time>2013-03-04T11:41:18Z</time>
      </trkpt>
      <trkpt lat="44.94427" lon="0.49095">
        <ele>126.653625</ele>
        <time>2013-03-04T11:41:19Z</time>
      </trkpt>
      <trkpt lat="44.94431" lon="0.49101">
        <ele>126.101196</ele>
        <time>2013-03-04T11:41:21Z</time>
      </trkpt>
      <trkpt lat="44.94435" lon="0.49106">
        <ele>125.574036</ele>
        <time>2013-03-04T11:41:23Z</time>
      </trkpt>
      <trkpt lat="44.94436" lon="0.49112">
        <ele>124.994263</ele>
        <time>2013-03-04T11:41:26Z</time>
      </trkpt>
      <trkpt lat="44.94433" lon="0.49119">
        <ele>124.410339</ele>
        <time>2013-03-04T11:41:28Z</time>
      </trkpt>
      <trkpt lat="44.94431" lon="0.49127">
        <ele>123.754333</ele>
        <time>2013-03-04T11:41:30Z</time>
      </trkpt>
      <trkpt lat="44.9443" lon="0.49136">
        <ele>122.967224</ele>
        <time>2013-03-04T11:41:32Z</time>
      </trkpt>
      <trkpt lat="44.94432" lon="0.49145">
        <ele>122.137756</ele>
        <time>2013-03-04T11:41:34Z</time>
      </trkpt>
      <trkpt lat="44.94437" lon="0.49153">
        <ele>121.424011</ele>
        <time>2013-03-04T11:41:36Z</time>
      </trkpt>
      <trkpt lat="44.94444" lon="0.49161">
        <ele>120.785461</ele>
        <time>2013-03-04T11:41:38Z</time>
      </trkpt>
      <trkpt lat="44.94452" lon="0.49169">
        <ele>120.146729</ele>
        <time>2013-03-04T11:41:40Z</time>
      </trkpt>
      <trkpt lat="44.94469" lon="0.49177">
        <ele>119.428345</ele>
        <time>2013-03-04T11:41:42Z</time>
      </trkpt>
      <trkpt lat="44.94478" lon="0.4918">
        <ele>119.07959</ele>
        <time>2013-03-04T11:41:44Z</time>
      </trkpt>
      <trkpt lat="44.94485" lon="0.49183">
        <ele>118.853821</ele>
        <time>2013-03-04T11:41:45Z</time>
      </trkpt>
      <trkpt lat="44.94494" lon="0.49185">
        <ele>118.689209</ele>
        <time>2013-03-04T11:41:47Z</time>
      </trkpt>
      <trkpt lat="44.94499" lon="0.49185">
        <ele>118.755432</ele>
        <time>2013-03-04T11:41:48Z</time>
      </trkpt>
      <trkpt lat="44.94508" lon="0.49175">
        <ele>120.088806</ele>
        <time>2013-03-04T11:41:49Z</time>
      </trkpt>
      <trkpt lat="44.94513" lon="0.49177">
        <ele>119.96228</ele>
        <time>2013-03-04T11:41:51Z</time>
      </trkpt>
      <trkpt lat="44.94523" lon="0.4918">
        <ele>119.797852</ele>
        <time>2013-03-04T11:41:52Z</time>
      </trkpt>
      <trkpt lat="44.94523" lon="0.49181">
        <ele>119.707703</ele>
        <time>2013-03-04T11:41:59Z</time>
      </trkpt>
      <trkpt lat="44.94528" lon="0.49236">
        <ele>115.261719</ele>
        <time>2013-03-04T11:42:02Z</time>
      </trkpt>
      <trkpt lat="44.94532" lon="0.49244">
        <ele>114.953857</ele>
        <time>2013-03-04T11:42:04Z</time>
      </trkpt>
      <trkpt lat="44.94537" lon="0.49254">
        <ele>115.014404</ele>
        <time>2013-03-04T11:42:06Z</time>
      </trkpt>
      <trkpt lat="44.9454" lon="0.49259">
        <ele>115.268188</ele>
        <time>2013-03-04T11:42:07Z</time>
      </trkpt>
      <trkpt lat="44.94546" lon="0.49269">
        <ele>115.936157</ele>
        <time>2013-03-04T11:42:10Z</time>
      </trkpt>
      <trkpt lat="44.9455" lon="0.49278">
        <ele>116.437134</ele>
        <time>2013-03-04T11:42:11Z</time>
      </trkpt>
      <trkpt lat="44.94554" lon="0.49288">
        <ele>116.878784</ele>
        <time>2013-03-04T11:42:13Z</time>
      </trkpt>
      <trkpt lat="44.94559" lon="0.49298">
        <ele>117.350037</ele>
        <time>2013-03-04T11:42:15Z</time>
      </trkpt>
      <trkpt lat="44.94564" lon="0.49308">
        <ele>117.87854</ele>
        <time>2013-03-04T11:42:17Z</time>
      </trkpt>
      <trkpt lat="44.94569" lon="0.49317">
        <ele>118.41687</ele>
        <time>2013-03-04T11:42:19Z</time>
      </trkpt>
      <trkpt lat="44.94573" lon="0.49325">
        <ele>118.860718</ele>
        <time>2013-03-04T11:42:21Z</time>
      </trkpt>
      <trkpt lat="44.94575" lon="0.49334">
        <ele>119.10437</ele>
        <time>2013-03-04T11:42:23Z</time>
      </trkpt>
      <trkpt lat="44.94577" lon="0.49346">
        <ele>119.385742</ele>
        <time>2013-03-04T11:42:25Z</time>
      </trkpt>
      <trkpt lat="44.94577" lon="0.49358">
        <ele>119.461487</ele>
        <time>2013-03-04T11:42:27Z</time>
      </trkpt>
      <trkpt lat="44.94577" lon="0.4937">
        <ele>119.535583</ele>
        <time>2013-03-04T11:42:29Z</time>
      </trkpt>
      <trkpt lat="44.94579" lon="0.4938">
        <ele>119.73407</ele>
        <time>2013-03-04T11:42:32Z</time>
      </trkpt>
      <trkpt lat="44.94584" lon="0.49391">
        <ele>120.039062</ele>
        <time>2013-03-04T11:42:33Z</time>
      </trkpt>
      <trkpt lat="44.94588" lon="0.494">
        <ele>120.431396</ele>
        <time>2013-03-04T11:42:35Z</time>
      </trkpt>
      <trkpt lat="44.94591" lon="0.49411">
        <ele>120.635742</ele>
        <time>2013-03-04T11:42:36Z</time>
      </trkpt>
      <trkpt lat="44.94597" lon="0.49417">
        <ele>121.100708</ele>
        <time>2013-03-04T11:42:38Z</time>
      </trkpt>
      <trkpt lat="44.94604" lon="0.49419">
        <ele>121.685852</ele>
        <time>2013-03-04T11:42:40Z</time>
      </trkpt>
      <trkpt lat="44.94611" lon="0.49419">
        <ele>122.277344</ele>
        <time>2013-03-04T11:42:42Z</time>
      </trkpt>
      <trkpt lat="44.94618" lon="0.49421">
        <ele>122.77179</ele>
        <time>2013-03-04T11:42:44Z</time>
      </trkpt>
      <trkpt lat="44.94624" lon="0.49422">
        <ele>123.189636</ele>
        <time>2013-03-04T11:42:47Z</time>
      </trkpt>
      <trkpt lat="44.94631" lon="0.49424">
        <ele>123.712036</ele>
        <time>2013-03-04T11:42:48Z</time>
      </trkpt>
      <trkpt lat="44.94638" lon="0.49428">
        <ele>124.127441</ele>
        <time>2013-03-04T11:42:50Z</time>
      </trkpt>
      <trkpt lat="44.94645" lon="0.49435">
        <ele>124.322327</ele>
        <time>2013-03-04T11:42:52Z</time>
      </trkpt>
      <trkpt lat="44.94648" lon="0.4944">
        <ele>124.25061</ele>
        <time>2013-03-04T11:42:53Z</time>
      </trkpt>
      <trkpt lat="44.94653" lon="0.49448">
        <ele>124.233765</ele>
        <time>2013-03-04T11:42:55Z</time>
      </trkpt>
      <trkpt lat="44.94657" lon="0.49452">
        <ele>124.297852</ele>
        <time>2013-03-04T11:42:57Z</time>
      </trkpt>
      <trkpt lat="44.94663" lon="0.49455">
        <ele>124.43811</ele>
        <time>2013-03-04T11:43:00Z</time>
      </trkpt>
      <trkpt lat="44.94669" lon="0.49457">
        <ele>124.793701</ele>
        <time>2013-03-04T11:43:03Z</time>
      </trkpt>
      <trkpt lat="44.94674" lon="0.49458">
        <ele>125.0896</ele>
        <time>2013-03-04T11:43:05Z</time>
      </trkpt>
      <trkpt lat="44.9468" lon="0.4946">
        <ele>125.491821</ele>
        <time>2013-03-04T11:43:08Z</time>
      </trkpt>
      <trkpt lat="44.94685" lon="0.49461">
        <ele>125.798218</ele>
        <time>2013-03-04T11:43:10Z</time>
      </trkpt>
      <trkpt lat="44.9469" lon="0.49461">
        <ele>126.14209</ele>
        <time>2013-03-04T11:43:12Z</time>
      </trkpt>
      <trkpt lat="44.94696" lon="0.49463">
        <ele>126.499939</ele>
        <time>2013-03-04T11:43:14Z</time>
      </trkpt>
      <trkpt lat="44.94701" lon="0.49466">
        <ele>126.722534</ele>
        <time>2013-03-04T11:43:16Z</time>
      </trkpt>
      <trkpt lat="44.94706" lon="0.49468">
        <ele>126.887939</ele>
        <time>2013-03-04T11:43:19Z</time>
      </trkpt>
      <trkpt lat="44.94711" lon="0.49473">
        <ele>127.001526</ele>
        <time>2013-03-04T11:43:21Z</time>
      </trkpt>
      <trkpt lat="44.94715" lon="0.49477">
        <ele>127.037354</ele>
        <time>2013-03-04T11:43:23Z</time>
      </trkpt>
      <trkpt lat="44.9472" lon="0.49481">
        <ele>127.126831</ele>
        <time>2013-03-04T11:43:25Z</time>
      </trkpt>
      <trkpt lat="44.94728" lon="0.49487">
        <ele>127.291443</ele>
        <time>2013-03-04T11:43:27Z</time>
      </trkpt>
      <trkpt lat="44.94736" lon="0.49493">
        <ele>127.523804</ele>
        <time>2013-03-04T11:43:29Z</time>
      </trkpt>
      <trkpt lat="44.94744" lon="0.49496">
        <ele>127.795898</ele>
        <time>2013-03-04T11:43:31Z</time>
      </trkpt>
      <trkpt lat="44.94749" lon="0.49497">
        <ele>128.153076</ele>
        <time>2013-03-04T11:43:33Z</time>
      </trkpt>
      <trkpt lat="44.94756" lon="0.49499">
        <ele>128.689758</ele>
        <time>2013-03-04T11:43:36Z</time>
      </trkpt>
      <trkpt lat="44.94761" lon="0.49502">
        <ele>129.070129</ele>
        <time>2013-03-04T11:43:39Z</time>
      </trkpt>
      <trkpt lat="44.94765" lon="0.49505">
        <ele>129.319153</ele>
        <time>2013-03-04T11:43:41Z</time>
      </trkpt>
      <trkpt lat="44.94771" lon="0.49509">
        <ele>129.743286</ele>
        <time>2013-03-04T11:43:44Z</time>
      </trkpt>
      <trkpt lat="44.94777" lon="0.49512">
        <ele>130.088379</ele>
        <time>2013-03-04T11:43:47Z</time>
      </trkpt>
      <trkpt lat="44.94782" lon="0.49515">
        <ele>130.434998</ele>
        <time>2013-03-04T11:43:51Z</time>
      </trkpt>
      <trkpt lat="44.94786" lon="0.49517">
        <ele>130.694519</ele>
        <time>2013-03-04T11:43:54Z</time>
      </trkpt>
      <trkpt lat="44.94792" lon="0.49524">
        <ele>130.857239</ele>
        <time>2013-03-04T11:43:56Z</time>
      </trkpt>
      <trkpt lat="44.94799" lon="0.4953">
        <ele>131.059631</ele>
        <time>2013-03-04T11:43:58Z</time>
      </trkpt>
      <trkpt lat="44.94803" lon="0.49534">
        <ele>131.163757</ele>
        <time>2013-03-04T11:44:00Z</time>
      </trkpt>
      <trkpt lat="44.94808" lon="0.49539">
        <ele>131.296631</ele>
        <time>2013-03-04T11:44:03Z</time>
      </trkpt>
      <trkpt lat="44.94813" lon="0.49543">
        <ele>131.449158</ele>
        <time>2013-03-04T11:44:05Z</time>
      </trkpt>
      <trkpt lat="44.94818" lon="0.49546">
        <ele>131.698669</ele>
        <time>2013-03-04T11:44:07Z</time>
      </trkpt>
      <trkpt lat="44.94825" lon="0.49549">
        <ele>132.093445</ele>
        <time>2013-03-04T11:44:09Z</time>
      </trkpt>
      <trkpt lat="44.94832" lon="0.49553">
        <ele>132.393555</ele>
        <time>2013-03-04T11:44:11Z</time>
      </trkpt>
      <trkpt lat="44.94839" lon="0.49559">
        <ele>132.337952</ele>
        <time>2013-03-04T11:44:13Z</time>
      </trkpt>
      <trkpt lat="44.94844" lon="0.49564">
        <ele>132.291382</ele>
        <time>2013-03-04T11:44:15Z</time>
      </trkpt>
      <trkpt lat="44.94849" lon="0.49567">
        <ele>132.308472</ele>
        <time>2013-03-04T11:44:17Z</time>
      </trkpt>
      <trkpt lat="44.94855" lon="0.49571">
        <ele>132.276123</ele>
        <time>2013-03-04T11:44:19Z</time>
      </trkpt>
      <trkpt lat="44.9486" lon="0.49574">
        <ele>132.340637</ele>
        <time>2013-03-04T11:44:21Z</time>
      </trkpt>
      <trkpt lat="44.94866" lon="0.49575">
        <ele>132.632935</ele>
        <time>2013-03-04T11:44:23Z</time>
      </trkpt>
      <trkpt lat="44.94871" lon="0.49572">
        <ele>133.15033</ele>
        <time>2013-03-04T11:44:25Z</time>
      </trkpt>
      <trkpt lat="44.94875" lon="0.49569">
        <ele>133.629272</ele>
        <time>2013-03-04T11:44:27Z</time>
      </trkpt>
      <trkpt lat="44.94881" lon="0.49571">
        <ele>133.843506</ele>
        <time>2013-03-04T11:44:31Z</time>
      </trkpt>
      <trkpt lat="44.94886" lon="0.49573">
        <ele>133.948242</ele>
        <time>2013-03-04T11:44:33Z</time>
      </trkpt>
      <trkpt lat="44.94891" lon="0.49574">
        <ele>134.153381</ele>
        <time>2013-03-04T11:44:35Z</time>
      </trkpt>
      <trkpt lat="44.94899" lon="0.49577">
        <ele>134.411865</ele>
        <time>2013-03-04T11:44:37Z</time>
      </trkpt>
      <trkpt lat="44.94906" lon="0.49579">
        <ele>134.678772</ele>
        <time>2013-03-04T11:44:39Z</time>
      </trkpt>
      <trkpt lat="44.94914" lon="0.49581">
        <ele>135.016785</ele>
        <time>2013-03-04T11:44:41Z</time>
      </trkpt>
      <trkpt lat="44.9492" lon="0.49582">
        <ele>134.897827</ele>
        <time>2013-03-04T11:44:43Z</time>
      </trkpt>
      <trkpt lat="44.94926" lon="0.49585">
        <ele>134.460938</ele>
        <time>2013-03-04T11:44:45Z</time>
      </trkpt>
      <trkpt lat="44.94931" lon="0.49587">
        <ele>134.137512</ele>
        <time>2013-03-04T11:44:48Z</time>
      </trkpt>
      <trkpt lat="44.94936" lon="0.49585">
        <ele>134.000427</ele>
        <time>2013-03-04T11:44:51Z</time>
      </trkpt>
      <trkpt lat="44.94941" lon="0.49586">
        <ele>133.679382</ele>
        <time>2013-03-04T11:44:53Z</time>
      </trkpt>
      <trkpt lat="44.94951" lon="0.49591">
        <ele>133.035034</ele>
        <time>2013-03-04T11:44:55Z</time>
      </trkpt>
      <trkpt lat="44.94956" lon="0.49594">
        <ele>132.691162</ele>
        <time>2013-03-04T11:44:56Z</time>
      </trkpt>
      <trkpt lat="44.9496" lon="0.49596">
        <ele>132.386169</ele>
        <time>2013-03-04T11:44:57Z</time>
      </trkpt>
      <trkpt lat="44.94968" lon="0.496">
        <ele>131.876404</ele>
        <time>2013-03-04T11:44:59Z</time>
      </trkpt>
      <trkpt lat="44.94974" lon="0.49602">
        <ele>131.491028</ele>
        <time>2013-03-04T11:45:01Z</time>
      </trkpt>
      <trkpt lat="44.94981" lon="0.49606">
        <ele>131.023926</ele>
        <time>2013-03-04T11:45:03Z</time>
      </trkpt>
      <trkpt lat="44.94989" lon="0.4961">
        <ele>130.558533</ele>
        <time>2013-03-04T11:45:05Z</time>
      </trkpt>
      <trkpt lat="44.94996" lon="0.49611">
        <ele>130.189392</ele>
        <time>2013-03-04T11:45:07Z</time>
      </trkpt>
      <trkpt lat="44.95004" lon="0.49613">
        <ele>130.163391</ele>
        <time>2013-03-04T11:45:09Z</time>
      </trkpt>
      <trkpt lat="44.95009" lon="0.49613">
        <ele>130.390381</ele>
        <time>2013-03-04T11:45:11Z</time>
      </trkpt>
      <trkpt lat="44.95017" lon="0.49614">
        <ele>130.792725</ele>
        <time>2013-03-04T11:45:12Z</time>
      </trkpt>
      <trkpt lat="44.95022" lon="0.49617">
        <ele>130.958679</ele>
        <time>2013-03-04T11:45:13Z</time>
      </trkpt>
      <trkpt lat="44.95027" lon="0.49619">
        <ele>131.1427</ele>
        <time>2013-03-04T11:45:14Z</time>
      </trkpt>
      <trkpt lat="44.95031" lon="0.49621">
        <ele>131.308838</ele>
        <time>2013-03-04T11:45:15Z</time>
      </trkpt>
      <trkpt lat="44.95036" lon="0.49625">
        <ele>131.423096</ele>
        <time>2013-03-04T11:45:16Z</time>
      </trkpt>
      <trkpt lat="44.95043" lon="0.49633">
        <ele>131.55835</ele>
        <time>2013-03-04T11:45:19Z</time>
      </trkpt>
      <trkpt lat="44.95049" lon="0.49642">
        <ele>131.659729</ele>
        <time>2013-03-04T11:45:20Z</time>
      </trkpt>
      <trkpt lat="44.95055" lon="0.49648">
        <ele>131.826843</ele>
        <time>2013-03-04T11:45:23Z</time>
      </trkpt>
      <trkpt lat="44.9506" lon="0.49652">
        <ele>131.980835</ele>
        <time>2013-03-04T11:45:25Z</time>
      </trkpt>
      <trkpt lat="44.95063" lon="0.49659">
        <ele>132.000732</ele>
        <time>2013-03-04T11:45:26Z</time>
      </trkpt>
      <trkpt lat="44.95067" lon="0.49668">
        <ele>132.038696</ele>
        <time>2013-03-04T11:45:28Z</time>
      </trkpt>
      <trkpt lat="44.95071" lon="0.49677">
        <ele>132.261597</ele>
        <time>2013-03-04T11:45:30Z</time>
      </trkpt>
      <trkpt lat="44.95074" lon="0.49683">
        <ele>132.385132</ele>
        <time>2013-03-04T11:45:32Z</time>
      </trkpt>
      <trkpt lat="44.95078" lon="0.4969">
        <ele>132.540466</ele>
        <time>2013-03-04T11:45:34Z</time>
      </trkpt>
      <trkpt lat="44.95084" lon="0.49697">
        <ele>132.695251</ele>
        <time>2013-03-04T11:45:36Z</time>
      </trkpt>
      <trkpt lat="44.95091" lon="0.49706">
        <ele>133.118713</ele>
        <time>2013-03-04T11:45:38Z</time>
      </trkpt>
      <trkpt lat="44.95096" lon="0.49713">
        <ele>133.441589</ele>
        <time>2013-03-04T11:45:41Z</time>
      </trkpt>
      <trkpt lat="44.95101" lon="0.49722">
        <ele>133.6604</ele>
        <time>2013-03-04T11:45:42Z</time>
      </trkpt>
      <trkpt lat="44.95106" lon="0.49729">
        <ele>133.920898</ele>
        <time>2013-03-04T11:45:44Z</time>
      </trkpt>
      <trkpt lat="44.95111" lon="0.49736">
        <ele>134.199158</ele>
        <time>2013-03-04T11:45:46Z</time>
      </trkpt>
      <trkpt lat="44.95116" lon="0.49744">
        <ele>134.468384</ele>
        <time>2013-03-04T11:45:48Z</time>
      </trkpt>
      <trkpt lat="44.95122" lon="0.49753">
        <ele>134.756042</ele>
        <time>2013-03-04T11:45:50Z</time>
      </trkpt>
      <trkpt lat="44.95125" lon="0.49758">
        <ele>134.929749</ele>
        <time>2013-03-04T11:45:51Z</time>
      </trkpt>
      <trkpt lat="44.9513" lon="0.49766">
        <ele>135.181519</ele>
        <time>2013-03-04T11:45:53Z</time>
      </trkpt>
      <trkpt lat="44.95135" lon="0.49775">
        <ele>135.328003</ele>
        <time>2013-03-04T11:45:55Z</time>
      </trkpt>
      <trkpt lat="44.95139" lon="0.49781">
        <ele>135.371155</ele>
        <time>2013-03-04T11:45:57Z</time>
      </trkpt>
      <trkpt lat="44.95142" lon="0.49787">
        <ele>135.37738</ele>
        <time>2013-03-04T11:45:59Z</time>
      </trkpt>
      <trkpt lat="44.95145" lon="0.49793">
        <ele>135.302612</ele>
        <time>2013-03-04T11:46:01Z</time>
      </trkpt>
      <trkpt lat="44.95148" lon="0.498">
        <ele>135.207214</ele>
        <time>2013-03-04T11:46:03Z</time>
      </trkpt>
      <trkpt lat="44.95152" lon="0.49807">
        <ele>135.072083</ele>
        <time>2013-03-04T11:46:05Z</time>
      </trkpt>
      <trkpt lat="44.95157" lon="0.49814">
        <ele>134.873474</ele>
        <time>2013-03-04T11:46:07Z</time>
      </trkpt>
      <trkpt lat="44.95162" lon="0.49822">
        <ele>134.554993</ele>
        <time>2013-03-04T11:46:10Z</time>
      </trkpt>
      <trkpt lat="44.95167" lon="0.49829">
        <ele>134.191162</ele>
        <time>2013-03-04T11:46:11Z</time>
      </trkpt>
      <trkpt lat="44.95173" lon="0.49837">
        <ele>134.30365</ele>
        <time>2013-03-04T11:46:13Z</time>
      </trkpt>
      <trkpt lat="44.95178" lon="0.49844">
        <ele>134.591919</ele>
        <time>2013-03-04T11:46:15Z</time>
      </trkpt>
      <trkpt lat="44.95184" lon="0.49852">
        <ele>134.82196</ele>
        <time>2013-03-04T11:46:18Z</time>
      </trkpt>
      <trkpt lat="44.95189" lon="0.49859">
        <ele>135.000183</ele>
        <time>2013-03-04T11:46:19Z</time>
      </trkpt>
      <trkpt lat="44.95193" lon="0.49865">
        <ele>135.112</ele>
        <time>2013-03-04T11:46:21Z</time>
      </trkpt>
      <trkpt lat="44.95199" lon="0.49873">
        <ele>135.189575</ele>
        <time>2013-03-04T11:46:23Z</time>
      </trkpt>
      <trkpt lat="44.95203" lon="0.49881">
        <ele>135.2052</ele>
        <time>2013-03-04T11:46:25Z</time>
      </trkpt>
      <trkpt lat="44.95209" lon="0.49889">
        <ele>135.162842</ele>
        <time>2013-03-04T11:46:27Z</time>
      </trkpt>
      <trkpt lat="44.95215" lon="0.49896">
        <ele>135.068726</ele>
        <time>2013-03-04T11:46:29Z</time>
      </trkpt>
      <trkpt lat="44.95221" lon="0.49901">
        <ele>134.93573</ele>
        <time>2013-03-04T11:46:31Z</time>
      </trkpt>
      <trkpt lat="44.95225" lon="0.49907">
        <ele>134.760376</ele>
        <time>2013-03-04T11:46:33Z</time>
      </trkpt>
      <trkpt lat="44.95231" lon="0.49914">
        <ele>134.537354</ele>
        <time>2013-03-04T11:46:35Z</time>
      </trkpt>
      <trkpt lat="44.95235" lon="0.49918">
        <ele>134.465149</ele>
        <time>2013-03-04T11:46:37Z</time>
      </trkpt>
      <trkpt lat="44.95239" lon="0.49925">
        <ele>134.698792</ele>
        <time>2013-03-04T11:46:39Z</time>
      </trkpt>
      <trkpt lat="44.95244" lon="0.49931">
        <ele>134.863403</ele>
        <time>2013-03-04T11:46:41Z</time>
      </trkpt>
      <trkpt lat="44.95248" lon="0.49938">
        <ele>135.073364</ele>
        <time>2013-03-04T11:46:43Z</time>
      </trkpt>
      <trkpt lat="44.95252" lon="0.49946">
        <ele>135.465149</ele>
        <time>2013-03-04T11:46:45Z</time>
      </trkpt>
      <trkpt lat="44.95256" lon="0.49952">
        <ele>135.833984</ele>
        <time>2013-03-04T11:46:47Z</time>
      </trkpt>
      <trkpt lat="44.9526" lon="0.49956">
        <ele>136.146545</ele>
        <time>2013-03-04T11:46:49Z</time>
      </trkpt>
      <trkpt lat="44.95264" lon="0.4996">
        <ele>136.423584</ele>
        <time>2013-03-04T11:46:51Z</time>
      </trkpt>
      <trkpt lat="44.95268" lon="0.49965">
        <ele>136.698792</ele>
        <time>2013-03-04T11:46:53Z</time>
      </trkpt>
      <trkpt lat="44.95272" lon="0.49969">
        <ele>136.998901</ele>
        <time>2013-03-04T11:46:55Z</time>
      </trkpt>
      <trkpt lat="44.95277" lon="0.49974">
        <ele>137.289246</ele>
        <time>2013-03-04T11:46:57Z</time>
      </trkpt>
      <trkpt lat="44.95282" lon="0.4998">
        <ele>137.591064</ele>
        <time>2013-03-04T11:46:59Z</time>
      </trkpt>
      <trkpt lat="44.95285" lon="0.49984">
        <ele>137.83374</ele>
        <time>2013-03-04T11:47:01Z</time>
      </trkpt>
      <trkpt lat="44.95289" lon="0.49989">
        <ele>138.052856</ele>
        <time>2013-03-04T11:47:03Z</time>
      </trkpt>
      <trkpt lat="44.95293" lon="0.49995">
        <ele>138.34668</ele>
        <time>2013-03-04T11:47:05Z</time>
      </trkpt>
      <trkpt lat="44.95298" lon="0.50002">
        <ele>138.688049</ele>
        <time>2013-03-04T11:47:07Z</time>
      </trkpt>
      <trkpt lat="44.95304" lon="0.50007">
        <ele>138.980591</ele>
        <time>2013-03-04T11:47:09Z</time>
      </trkpt>
      <trkpt lat="44.95308" lon="0.50009">
        <ele>139.115967</ele>
        <time>2013-03-04T11:47:11Z</time>
      </trkpt>
      <trkpt lat="44.95314" lon="0.50008">
        <ele>139.168213</ele>
        <time>2013-03-04T11:47:14Z</time>
      </trkpt>
      <trkpt lat="44.9532" lon="0.5001">
        <ele>139.295227</ele>
        <time>2013-03-04T11:47:16Z</time>
      </trkpt>
      <trkpt lat="44.95327" lon="0.5001">
        <ele>139.419617</ele>
        <time>2013-03-04T11:47:19Z</time>
      </trkpt>
      <trkpt lat="44.95337" lon="0.50014">
        <ele>139.847717</ele>
        <time>2013-03-04T11:47:21Z</time>
      </trkpt>
      <trkpt lat="44.95352" lon="0.50023">
        <ele>141.05304</ele>
        <time>2013-03-04T11:47:22Z</time>
      </trkpt>
      <trkpt lat="44.95357" lon="0.50027">
        <ele>141.407166</ele>
        <time>2013-03-04T11:47:23Z</time>
      </trkpt>
      <trkpt lat="44.95364" lon="0.50027">
        <ele>141.739929</ele>
        <time>2013-03-04T11:47:25Z</time>
      </trkpt>
      <trkpt lat="44.95371" lon="0.50028">
        <ele>142.136475</ele>
        <time>2013-03-04T11:47:28Z</time>
      </trkpt>
      <trkpt lat="44.95373" lon="0.50041">
        <ele>142.620605</ele>
        <time>2013-03-04T11:47:31Z</time>
      </trkpt>
      <trkpt lat="44.95375" lon="0.50051">
        <ele>143.037354</ele>
        <time>2013-03-04T11:47:33Z</time>
      </trkpt>
      <trkpt lat="44.95378" lon="0.5006">
        <ele>143.390381</ele>
        <time>2013-03-04T11:47:35Z</time>
      </trkpt>
      <trkpt lat="44.95379" lon="0.50068">
        <ele>143.6698</ele>
        <time>2013-03-04T11:47:37Z</time>
      </trkpt>
      <trkpt lat="44.95381" lon="0.50076">
        <ele>143.939087</ele>
        <time>2013-03-04T11:47:39Z</time>
      </trkpt>
      <trkpt lat="44.95383" lon="0.50083">
        <ele>144.188354</ele>
        <time>2013-03-04T11:47:41Z</time>
      </trkpt>
      <trkpt lat="44.95385" lon="0.50092">
        <ele>144.594299</ele>
        <time>2013-03-04T11:47:43Z</time>
      </trkpt>
      <trkpt lat="44.95387" lon="0.50101">
        <ele>145.030212</ele>
        <time>2013-03-04T11:47:45Z</time>
      </trkpt>
      <trkpt lat="44.95389" lon="0.50112">
        <ele>145.456238</ele>
        <time>2013-03-04T11:47:47Z</time>
      </trkpt>
      <trkpt lat="44.9539" lon="0.50121">
        <ele>145.847351</ele>
        <time>2013-03-04T11:47:49Z</time>
      </trkpt>
      <trkpt lat="44.95391" lon="0.5013">
        <ele>146.210571</ele>
        <time>2013-03-04T11:47:51Z</time>
      </trkpt>
      <trkpt lat="44.95392" lon="0.5014">
        <ele>146.563843</ele>
        <time>2013-03-04T11:47:54Z</time>
      </trkpt>
      <trkpt lat="44.95392" lon="0.50149">
        <ele>146.929565</ele>
        <time>2013-03-04T11:47:55Z</time>
      </trkpt>
      <trkpt lat="44.95392" lon="0.50159">
        <ele>147.28894</ele>
        <time>2013-03-04T11:47:58Z</time>
      </trkpt>
      <trkpt lat="44.95393" lon="0.50168">
        <ele>147.621277</ele>
        <time>2013-03-04T11:47:59Z</time>
      </trkpt>
      <trkpt lat="44.95394" lon="0.50177">
        <ele>147.975464</ele>
        <time>2013-03-04T11:48:01Z</time>
      </trkpt>
      <trkpt lat="44.95395" lon="0.50186">
        <ele>148.343018</ele>
        <time>2013-03-04T11:48:03Z</time>
      </trkpt>
      <trkpt lat="44.95396" lon="0.50195">
        <ele>148.703857</ele>
        <time>2013-03-04T11:48:05Z</time>
      </trkpt>
      <trkpt lat="44.95398" lon="0.50206">
        <ele>149.109375</ele>
        <time>2013-03-04T11:48:07Z</time>
      </trkpt>
      <trkpt lat="44.95399" lon="0.50214">
        <ele>149.468018</ele>
        <time>2013-03-04T11:48:09Z</time>
      </trkpt>
      <trkpt lat="44.95395" lon="0.50222">
        <ele>149.807983</ele>
        <time>2013-03-04T11:48:11Z</time>
      </trkpt>
      <trkpt lat="44.95392" lon="0.50229">
        <ele>150.127808</ele>
        <time>2013-03-04T11:48:13Z</time>
      </trkpt>
      <trkpt lat="44.95389" lon="0.50236">
        <ele>150.444153</ele>
        <time>2013-03-04T11:48:15Z</time>
      </trkpt>
      <trkpt lat="44.95386" lon="0.50243">
        <ele>150.743408</ele>
        <time>2013-03-04T11:48:17Z</time>
      </trkpt>
      <trkpt lat="44.95384" lon="0.5025">
        <ele>151.022339</ele>
        <time>2013-03-04T11:48:19Z</time>
      </trkpt>
      <trkpt lat="44.95383" lon="0.50257">
        <ele>151.446533</ele>
        <time>2013-03-04T11:48:21Z</time>
      </trkpt>
      <trkpt lat="44.95383" lon="0.50267">
        <ele>152.012573</ele>
        <time>2013-03-04T11:48:23Z</time>
      </trkpt>
      <trkpt lat="44.95383" lon="0.50276">
        <ele>152.579041</ele>
        <time>2013-03-04T11:48:25Z</time>
      </trkpt>
      <trkpt lat="44.95382" lon="0.50286">
        <ele>153.175293</ele>
        <time>2013-03-04T11:48:27Z</time>
      </trkpt>
      <trkpt lat="44.95382" lon="0.50296">
        <ele>153.772217</ele>
        <time>2013-03-04T11:48:29Z</time>
      </trkpt>
      <trkpt lat="44.95383" lon="0.50306">
        <ele>154.330078</ele>
        <time>2013-03-04T11:48:31Z</time>
      </trkpt>
      <trkpt lat="44.95384" lon="0.50315">
        <ele>154.883667</ele>
        <time>2013-03-04T11:48:33Z</time>
      </trkpt>
      <trkpt lat="44.95387" lon="0.50324">
        <ele>155.44458</ele>
        <time>2013-03-04T11:48:35Z</time>
      </trkpt>
      <trkpt lat="44.95388" lon="0.50332">
        <ele>155.932861</ele>
        <time>2013-03-04T11:48:38Z</time>
      </trkpt>
      <trkpt lat="44.9539" lon="0.5034">
        <ele>156</ele>
        <time>2013-03-04T11:48:39Z</time>
      </trkpt>
      <trkpt lat="44.95391" lon="0.50349">
        <ele>156</ele>
        <time>2013-03-04T11:48:41Z</time>
      </trkpt>
      <trkpt lat="44.95392" lon="0.5036">
        <ele>156</ele>
        <time>2013-03-04T11:48:43Z</time>
      </trkpt>
      <trkpt lat="44.95391" lon="0.50369">
        <ele>156</ele>
        <time>2013-03-04T11:48:45Z</time>
      </trkpt>
      <trkpt lat="44.95392" lon="0.50379">
        <ele>156</ele>
        <time>2013-03-04T11:48:47Z</time>
      </trkpt>
      <trkpt lat="44.95392" lon="0.50388">
        <ele>156</ele>
        <time>2013-03-04T11:48:49Z</time>
      </trkpt>
      <trkpt lat="44.95393" lon="0.50397">
        <ele>156</ele>
        <time>2013-03-04T11:48:51Z</time>
      </trkpt>
      <trkpt lat="44.95394" lon="0.50404">
        <ele>156</ele>
        <time>2013-03-04T11:48:53Z</time>
      </trkpt>
      <trkpt lat="44.95395" lon="0.50412">
        <ele>156</ele>
        <time>2013-03-04T11:48:55Z</time>
      </trkpt>
      <trkpt lat="44.95395" lon="0.50419">
        <ele>156.008301</ele>
        <time>2013-03-04T11:48:57Z</time>
      </trkpt>
      <trkpt lat="44.95395" lon="0.50426">
        <ele>156.030457</ele>
        <time>2013-03-04T11:48:59Z</time>
      </trkpt>
      <trkpt lat="44.95395" lon="0.50434">
        <ele>156.053528</ele>
        <time>2013-03-04T11:49:01Z</time>
      </trkpt>
      <trkpt lat="44.95396" lon="0.50441">
        <ele>156.07135</ele>
        <time>2013-03-04T11:49:03Z</time>
      </trkpt>
      <trkpt lat="44.95398" lon="0.50449">
        <ele>156.085388</ele>
        <time>2013-03-04T11:49:05Z</time>
      </trkpt>
      <trkpt lat="44.95401" lon="0.50458">
        <ele>156.095032</ele>
        <time>2013-03-04T11:49:07Z</time>
      </trkpt>
      <trkpt lat="44.95402" lon="0.50467">
        <ele>156.105835</ele>
        <time>2013-03-04T11:49:09Z</time>
      </trkpt>
      <trkpt lat="44.95404" lon="0.50477">
        <ele>156.110352</ele>
        <time>2013-03-04T11:49:11Z</time>
      </trkpt>
      <trkpt lat="44.95406" lon="0.50487">
        <ele>156.111511</ele>
        <time>2013-03-04T11:49:14Z</time>
      </trkpt>
      <trkpt lat="44.95408" lon="0.50498">
        <ele>156.104431</ele>
        <time>2013-03-04T11:49:15Z</time>
      </trkpt>
      <trkpt lat="44.95409" lon="0.50506">
        <ele>156.175415</ele>
        <time>2013-03-04T11:49:17Z</time>
      </trkpt>
      <trkpt lat="44.95411" lon="0.50515">
        <ele>156.276428</ele>
        <time>2013-03-04T11:49:19Z</time>
      </trkpt>
      <trkpt lat="44.95411" lon="0.50523">
        <ele>156.377014</ele>
        <time>2013-03-04T11:49:21Z</time>
      </trkpt>
      <trkpt lat="44.95412" lon="0.50532">
        <ele>156.495789</ele>
        <time>2013-03-04T11:49:23Z</time>
      </trkpt>
      <trkpt lat="44.95409" lon="0.50542">
        <ele>156.678955</ele>
        <time>2013-03-04T11:49:25Z</time>
      </trkpt>
      <trkpt lat="44.95407" lon="0.50551">
        <ele>156.858459</ele>
        <time>2013-03-04T11:49:27Z</time>
      </trkpt>
      <trkpt lat="44.95405" lon="0.5056">
        <ele>157.074707</ele>
        <time>2013-03-04T11:49:29Z</time>
      </trkpt>
      <trkpt lat="44.95403" lon="0.5057">
        <ele>157.294678</ele>
        <time>2013-03-04T11:49:31Z</time>
      </trkpt>
      <trkpt lat="44.95401" lon="0.5058">
        <ele>157.496765</ele>
        <time>2013-03-04T11:49:33Z</time>
      </trkpt>
      <trkpt lat="44.954" lon="0.50589">
        <ele>157.775513</ele>
        <time>2013-03-04T11:49:35Z</time>
      </trkpt>
      <trkpt lat="44.95399" lon="0.50597">
        <ele>158.064941</ele>
        <time>2013-03-04T11:49:37Z</time>
      </trkpt>
      <trkpt lat="44.95398" lon="0.50604">
        <ele>158.312256</ele>
        <time>2013-03-04T11:49:39Z</time>
      </trkpt>
      <trkpt lat="44.95396" lon="0.50611">
        <ele>158.582886</ele>
        <time>2013-03-04T11:49:42Z</time>
      </trkpt>
      <trkpt lat="44.95394" lon="0.50619">
        <ele>158.857666</ele>
        <time>2013-03-04T11:49:43Z</time>
      </trkpt>
      <trkpt lat="44.95393" lon="0.50626">
        <ele>159.104187</ele>
        <time>2013-03-04T11:49:45Z</time>
      </trkpt>
      <trkpt lat="44.9539" lon="0.50633">
        <ele>159.353088</ele>
        <time>2013-03-04T11:49:47Z</time>
      </trkpt>
      <trkpt lat="44.95389" lon="0.5064">
        <ele>159.593018</ele>
        <time>2013-03-04T11:49:49Z</time>
      </trkpt>
      <trkpt lat="44.95388" lon="0.50648">
        <ele>159.815002</ele>
        <time>2013-03-04T11:49:51Z</time>
      </trkpt>
      <trkpt lat="44.95388" lon="0.50656">
        <ele>160.054321</ele>
        <time>2013-03-04T11:49:53Z</time>
      </trkpt>
      <trkpt lat="44.95387" lon="0.50665">
        <ele>160.298706</ele>
        <time>2013-03-04T11:49:55Z</time>
      </trkpt>
      <trkpt lat="44.95387" lon="0.50673">
        <ele>160.631042</ele>
        <time>2013-03-04T11:49:57Z</time>
      </trkpt>
      <trkpt lat="44.95387" lon="0.50681">
        <ele>160.976196</ele>
        <time>2013-03-04T11:49:59Z</time>
      </trkpt>
      <trkpt lat="44.95388" lon="0.50689">
        <ele>161.308167</ele>
        <time>2013-03-04T11:50:01Z</time>
      </trkpt>
      <trkpt lat="44.95389" lon="0.50696">
        <ele>161.633179</ele>
        <time>2013-03-04T11:50:03Z</time>
      </trkpt>
      <trkpt lat="44.95388" lon="0.50703">
        <ele>161.951233</ele>
        <time>2013-03-04T11:50:05Z</time>
      </trkpt>
      <trkpt lat="44.95386" lon="0.5071">
        <ele>162.266785</ele>
        <time>2013-03-04T11:50:07Z</time>
      </trkpt>
      <trkpt lat="44.95381" lon="0.50717">
        <ele>162.563171</ele>
        <time>2013-03-04T11:50:09Z</time>
      </trkpt>
      <trkpt lat="44.95377" lon="0.50724">
        <ele>162.879089</ele>
        <time>2013-03-04T11:50:11Z</time>
      </trkpt>
      <trkpt lat="44.95377" lon="0.50732">
        <ele>163.220459</ele>
        <time>2013-03-04T11:50:13Z</time>
      </trkpt>
      <trkpt lat="44.95377" lon="0.5074">
        <ele>163.56897</ele>
        <time>2013-03-04T11:50:15Z</time>
      </trkpt>
      <trkpt lat="44.95377" lon="0.50747">
        <ele>163.883423</ele>
        <time>2013-03-04T11:50:18Z</time>
      </trkpt>
      <trkpt lat="44.95377" lon="0.50754">
        <ele>164.051331</ele>
        <time>2013-03-04T11:50:19Z</time>
      </trkpt>
      <trkpt lat="44.95376" lon="0.50764">
        <ele>164.166138</ele>
        <time>2013-03-04T11:50:23Z</time>
      </trkpt>
      <trkpt lat="44.95378" lon="0.5077">
        <ele>164.252258</ele>
        <time>2013-03-04T11:50:24Z</time>
      </trkpt>
      <trkpt lat="44.95379" lon="0.50777">
        <ele>164.351257</ele>
        <time>2013-03-04T11:50:26Z</time>
      </trkpt>
      <trkpt lat="44.95379" lon="0.50785">
        <ele>164.456299</ele>
        <time>2013-03-04T11:50:29Z</time>
      </trkpt>
      <trkpt lat="44.95378" lon="0.50794">
        <ele>164.561829</ele>
        <time>2013-03-04T11:50:30Z</time>
      </trkpt>
      <trkpt lat="44.95378" lon="0.50803">
        <ele>164.678467</ele>
        <time>2013-03-04T11:50:32Z</time>
      </trkpt>
      <trkpt lat="44.95378" lon="0.50813">
        <ele>164.813904</ele>
        <time>2013-03-04T11:50:34Z</time>
      </trkpt>
      <trkpt lat="44.95378" lon="0.50823">
        <ele>164.943176</ele>
        <time>2013-03-04T11:50:36Z</time>
      </trkpt>
      <trkpt lat="44.95377" lon="0.50832">
        <ele>165.027771</ele>
        <time>2013-03-04T11:50:39Z</time>
      </trkpt>
      <trkpt lat="44.95375" lon="0.50841">
        <ele>164.657959</ele>
        <time>2013-03-04T11:50:41Z</time>
      </trkpt>
      <trkpt lat="44.95375" lon="0.50851">
        <ele>164.235291</ele>
        <time>2013-03-04T11:50:42Z</time>
      </trkpt>
      <trkpt lat="44.95375" lon="0.50862">
        <ele>163.821716</ele>
        <time>2013-03-04T11:50:44Z</time>
      </trkpt>
      <trkpt lat="44.95377" lon="0.50874">
        <ele>163.34082</ele>
        <time>2013-03-04T11:50:46Z</time>
      </trkpt>
      <trkpt lat="44.95375" lon="0.50885">
        <ele>162.821472</ele>
        <time>2013-03-04T11:50:47Z</time>
      </trkpt>
      <trkpt lat="44.95373" lon="0.50902">
        <ele>162.03595</ele>
        <time>2013-03-04T11:50:49Z</time>
      </trkpt>
      <trkpt lat="44.95372" lon="0.50909">
        <ele>161.712158</ele>
        <time>2013-03-04T11:50:50Z</time>
      </trkpt>
      <trkpt lat="44.95376" lon="0.50923">
        <ele>161.404846</ele>
        <time>2013-03-04T11:50:52Z</time>
      </trkpt>
      <trkpt lat="44.95377" lon="0.5093">
        <ele>161.329712</ele>
        <time>2013-03-04T11:50:54Z</time>
      </trkpt>
      <trkpt lat="44.95381" lon="0.50945">
        <ele>161.175903</ele>
        <time>2013-03-04T11:50:55Z</time>
      </trkpt>
      <trkpt lat="44.95381" lon="0.50954">
        <ele>161.016052</ele>
        <time>2013-03-04T11:50:57Z</time>
      </trkpt>
      <trkpt lat="44.95376" lon="0.50977">
        <ele>160.431458</ele>
        <time>2013-03-04T11:50:59Z</time>
      </trkpt>
      <trkpt lat="44.95378" lon="0.5099">
        <ele>160.251892</ele>
        <time>2013-03-04T11:51:01Z</time>
      </trkpt>
      <trkpt lat="44.95377" lon="0.51006">
        <ele>159.998779</ele>
        <time>2013-03-04T11:51:03Z</time>
      </trkpt>
      <trkpt lat="44.95376" lon="0.51014">
        <ele>159.933533</ele>
        <time>2013-03-04T11:51:05Z</time>
      </trkpt>
      <trkpt lat="44.95374" lon="0.51028">
        <ele>159.824646</ele>
        <time>2013-03-04T11:51:06Z</time>
      </trkpt>
      <trkpt lat="44.95375" lon="0.5104">
        <ele>159.760376</ele>
        <time>2013-03-04T11:51:09Z</time>
      </trkpt>
      <trkpt lat="44.95375" lon="0.51053">
        <ele>159.685303</ele>
        <time>2013-03-04T11:51:10Z</time>
      </trkpt>
      <trkpt lat="44.95375" lon="0.51063">
        <ele>159.620728</ele>
        <time>2013-03-04T11:51:12Z</time>
      </trkpt>
      <trkpt lat="44.95375" lon="0.51075">
        <ele>159.554138</ele>
        <time>2013-03-04T11:51:14Z</time>
      </trkpt>
      <trkpt lat="44.95375" lon="0.51085">
        <ele>159.480774</ele>
        <time>2013-03-04T11:51:16Z</time>
      </trkpt>
      <trkpt lat="44.95375" lon="0.51094">
        <ele>159.364075</ele>
        <time>2013-03-04T11:51:19Z</time>
      </trkpt>
      <trkpt lat="44.95375" lon="0.51103">
        <ele>159.26062</ele>
        <time>2013-03-04T11:51:20Z</time>
      </trkpt>
      <trkpt lat="44.95374" lon="0.51112">
        <ele>159.172974</ele>
        <time>2013-03-04T11:51:23Z</time>
      </trkpt>
      <trkpt lat="44.95372" lon="0.5112">
        <ele>159.09491</ele>
        <time>2013-03-04T11:51:24Z</time>
      </trkpt>
      <trkpt lat="44.95372" lon="0.51129">
        <ele>158.981262</ele>
        <time>2013-03-04T11:51:26Z</time>
      </trkpt>
      <trkpt lat="44.95372" lon="0.5114">
        <ele>158.854858</ele>
        <time>2013-03-04T11:51:28Z</time>
      </trkpt>
      <trkpt lat="44.95373" lon="0.51153">
        <ele>158.687622</ele>
        <time>2013-03-04T11:51:30Z</time>
      </trkpt>
      <trkpt lat="44.95376" lon="0.51164">
        <ele>158.51178</ele>
        <time>2013-03-04T11:51:32Z</time>
      </trkpt>
      <trkpt lat="44.95381" lon="0.51173">
        <ele>158.195923</ele>
        <time>2013-03-04T11:51:34Z</time>
      </trkpt>
      <trkpt lat="44.95386" lon="0.5118">
        <ele>157.885437</ele>
        <time>2013-03-04T11:51:36Z</time>
      </trkpt>
      <trkpt lat="44.95391" lon="0.51186">
        <ele>157.614563</ele>
        <time>2013-03-04T11:51:38Z</time>
      </trkpt>
      <trkpt lat="44.95395" lon="0.51196">
        <ele>157.268372</ele>
        <time>2013-03-04T11:51:40Z</time>
      </trkpt>
      <trkpt lat="44.95399" lon="0.51209">
        <ele>156.886719</ele>
        <time>2013-03-04T11:51:42Z</time>
      </trkpt>
      <trkpt lat="44.954" lon="0.51215">
        <ele>156.686035</ele>
        <time>2013-03-04T11:51:43Z</time>
      </trkpt>
      <trkpt lat="44.95402" lon="0.51228">
        <ele>156.318787</ele>
        <time>2013-03-04T11:51:45Z</time>
      </trkpt>
      <trkpt lat="44.95401" lon="0.5124">
        <ele>155.943604</ele>
        <time>2013-03-04T11:51:47Z</time>
      </trkpt>
      <trkpt lat="44.95401" lon="0.5125">
        <ele>155.627075</ele>
        <time>2013-03-04T11:51:49Z</time>
      </trkpt>
      <trkpt lat="44.95399" lon="0.51261">
        <ele>155.4422</ele>
        <time>2013-03-04T11:51:51Z</time>
      </trkpt>
      <trkpt lat="44.95399" lon="0.51268">
        <ele>155.346863</ele>
        <time>2013-03-04T11:51:52Z</time>
      </trkpt>
      <trkpt lat="44.95396" lon="0.51275">
        <ele>155.20282</ele>
        <time>2013-03-04T11:51:53Z</time>
      </trkpt>
      <trkpt lat="44.95392" lon="0.51288">
        <ele>154.959045</ele>
        <time>2013-03-04T11:51:55Z</time>
      </trkpt>
      <trkpt lat="44.95382" lon="0.51301">
        <ele>154.543091</ele>
        <time>2013-03-04T11:51:56Z</time>
      </trkpt>
      <trkpt lat="44.95378" lon="0.51315">
        <ele>154.298462</ele>
        <time>2013-03-04T11:51:58Z</time>
      </trkpt>
      <trkpt lat="44.95377" lon="0.51326">
        <ele>154.143982</ele>
        <time>2013-03-04T11:52:00Z</time>
      </trkpt>
      <trkpt lat="44.95372" lon="0.51336">
        <ele>153.937378</ele>
        <time>2013-03-04T11:52:02Z</time>
      </trkpt>
      <trkpt lat="44.95368" lon="0.51346">
        <ele>153.975586</ele>
        <time>2013-03-04T11:52:04Z</time>
      </trkpt>
      <trkpt lat="44.95364" lon="0.51356">
        <ele>154.05426</ele>
        <time>2013-03-04T11:52:07Z</time>
      </trkpt>
      <trkpt lat="44.95362" lon="0.51366">
        <ele>154.196167</ele>
        <time>2013-03-04T11:52:08Z</time>
      </trkpt>
      <trkpt lat="44.9536" lon="0.51378">
        <ele>154.390137</ele>
        <time>2013-03-04T11:52:10Z</time>
      </trkpt>
      <trkpt lat="44.95357" lon="0.51389">
        <ele>154.625977</ele>
        <time>2013-03-04T11:52:13Z</time>
      </trkpt>
      <trkpt lat="44.95355" lon="0.514">
        <ele>154.890808</ele>
        <time>2013-03-04T11:52:14Z</time>
      </trkpt>
      <trkpt lat="44.95353" lon="0.51411">
        <ele>155.177185</ele>
        <time>2013-03-04T11:52:16Z</time>
      </trkpt>
      <trkpt lat="44.95351" lon="0.51423">
        <ele>155.285339</ele>
        <time>2013-03-04T11:52:18Z</time>
      </trkpt>
      <trkpt lat="44.95348" lon="0.51433">
        <ele>155.238464</ele>
        <time>2013-03-04T11:52:21Z</time>
      </trkpt>
      <trkpt lat="44.95344" lon="0.51443">
        <ele>155.24176</ele>
        <time>2013-03-04T11:52:22Z</time>
      </trkpt>
      <trkpt lat="44.95341" lon="0.51453">
        <ele>155.25824</ele>
        <time>2013-03-04T11:52:25Z</time>
      </trkpt>
      <trkpt lat="44.95338" lon="0.51464">
        <ele>155.240906</ele>
        <time>2013-03-04T11:52:27Z</time>
      </trkpt>
      <trkpt lat="44.95334" lon="0.51475">
        <ele>155.284546</ele>
        <time>2013-03-04T11:52:28Z</time>
      </trkpt>
      <trkpt lat="44.95329" lon="0.51488">
        <ele>155.141724</ele>
        <time>2013-03-04T11:52:30Z</time>
      </trkpt>
      <trkpt lat="44.95328" lon="0.51494">
        <ele>155.06311</ele>
        <time>2013-03-04T11:52:31Z</time>
      </trkpt>
      <trkpt lat="44.95327" lon="0.51509">
        <ele>154.719238</ele>
        <time>2013-03-04T11:52:33Z</time>
      </trkpt>
      <trkpt lat="44.95325" lon="0.51517">
        <ele>154.477722</ele>
        <time>2013-03-04T11:52:34Z</time>
      </trkpt>
      <trkpt lat="44.95324" lon="0.51531">
        <ele>154.050598</ele>
        <time>2013-03-04T11:52:36Z</time>
      </trkpt>
      <trkpt lat="44.9532" lon="0.51534">
        <ele>154.034241</ele>
        <time>2013-03-04T11:52:37Z</time>
      </trkpt>
      <trkpt lat="44.95317" lon="0.51542">
        <ele>153.90271</ele>
        <time>2013-03-04T11:52:38Z</time>
      </trkpt>
      <trkpt lat="44.95312" lon="0.51557">
        <ele>153.673645</ele>
        <time>2013-03-04T11:52:40Z</time>
      </trkpt>
      <trkpt lat="44.9531" lon="0.51565">
        <ele>153.534241</ele>
        <time>2013-03-04T11:52:41Z</time>
      </trkpt>
      <trkpt lat="44.9531" lon="0.51572">
        <ele>153.388184</ele>
        <time>2013-03-04T11:52:42Z</time>
      </trkpt>
      <trkpt lat="44.95307" lon="0.51587">
        <ele>153.215576</ele>
        <time>2013-03-04T11:52:44Z</time>
      </trkpt>
      <trkpt lat="44.9531" lon="0.51595">
        <ele>153.034607</ele>
        <time>2013-03-04T11:52:45Z</time>
      </trkpt>
      <trkpt lat="44.95308" lon="0.51609">
        <ele>153.022949</ele>
        <time>2013-03-04T11:52:47Z</time>
      </trkpt>
      <trkpt lat="44.95307" lon="0.51616">
        <ele>153.020203</ele>
        <time>2013-03-04T11:52:48Z</time>
      </trkpt>
      <trkpt lat="44.95305" lon="0.51623">
        <ele>153.024109</ele>
        <time>2013-03-04T11:52:49Z</time>
      </trkpt>
      <trkpt lat="44.95304" lon="0.5163">
        <ele>153.032104</ele>
        <time>2013-03-04T11:52:50Z</time>
      </trkpt>
      <trkpt lat="44.95303" lon="0.51639">
        <ele>153.047241</ele>
        <time>2013-03-04T11:52:51Z</time>
      </trkpt>
      <trkpt lat="44.953" lon="0.51653">
        <ele>153.089294</ele>
        <time>2013-03-04T11:52:53Z</time>
      </trkpt>
      <trkpt lat="44.95299" lon="0.5166">
        <ele>153.112244</ele>
        <time>2013-03-04T11:52:54Z</time>
      </trkpt>
      <trkpt lat="44.95298" lon="0.51667">
        <ele>153.137024</ele>
        <time>2013-03-04T11:52:55Z</time>
      </trkpt>
      <trkpt lat="44.95296" lon="0.51674">
        <ele>153.103882</ele>
        <time>2013-03-04T11:52:56Z</time>
      </trkpt>
      <trkpt lat="44.95295" lon="0.51681">
        <ele>153.063171</ele>
        <time>2013-03-04T11:52:57Z</time>
      </trkpt>
      <trkpt lat="44.95293" lon="0.51692">
        <ele>152.987305</ele>
        <time>2013-03-04T11:52:59Z</time>
      </trkpt>
      <trkpt lat="44.95303" lon="0.51699">
        <ele>152.398926</ele>
        <time>2013-03-04T11:53:02Z</time>
      </trkpt>
      <trkpt lat="44.95312" lon="0.51702">
        <ele>151.940918</ele>
        <time>2013-03-04T11:53:04Z</time>
      </trkpt>
      <trkpt lat="44.95321" lon="0.51704">
        <ele>151.555542</ele>
        <time>2013-03-04T11:53:06Z</time>
      </trkpt>
      <trkpt lat="44.95328" lon="0.51707">
        <ele>151.234375</ele>
        <time>2013-03-04T11:53:07Z</time>
      </trkpt>
      <trkpt lat="44.95341" lon="0.51711">
        <ele>150.835327</ele>
        <time>2013-03-04T11:53:10Z</time>
      </trkpt>
      <trkpt lat="44.95352" lon="0.51715">
        <ele>150.637329</ele>
        <time>2013-03-04T11:53:11Z</time>
      </trkpt>
      <trkpt lat="44.95369" lon="0.51722">
        <ele>150.442017</ele>
        <time>2013-03-04T11:53:13Z</time>
      </trkpt>
      <trkpt lat="44.95374" lon="0.51726">
        <ele>150.438599</ele>
        <time>2013-03-04T11:53:15Z</time>
      </trkpt>
      <trkpt lat="44.95389" lon="0.51737">
        <ele>150.589294</ele>
        <time>2013-03-04T11:53:17Z</time>
      </trkpt>
      <trkpt lat="44.95394" lon="0.51741">
        <ele>150.701172</ele>
        <time>2013-03-04T11:53:18Z</time>
      </trkpt>
      <trkpt lat="44.954" lon="0.51749">
        <ele>150.942261</ele>
        <time>2013-03-04T11:53:20Z</time>
      </trkpt>
      <trkpt lat="44.95408" lon="0.51757">
        <ele>151.152588</ele>
        <time>2013-03-04T11:53:22Z</time>
      </trkpt>
      <trkpt lat="44.95415" lon="0.51766">
        <ele>151.389038</ele>
        <time>2013-03-04T11:53:24Z</time>
      </trkpt>
      <trkpt lat="44.95426" lon="0.5178">
        <ele>151.1521</ele>
        <time>2013-03-04T11:53:26Z</time>
      </trkpt>
      <trkpt lat="44.9543" lon="0.51786">
        <ele>151.0047</ele>
        <time>2013-03-04T11:53:27Z</time>
      </trkpt>
      <trkpt lat="44.95438" lon="0.51798">
        <ele>150.752808</ele>
        <time>2013-03-04T11:53:29Z</time>
      </trkpt>
      <trkpt lat="44.95441" lon="0.51804">
        <ele>150.625244</ele>
        <time>2013-03-04T11:53:30Z</time>
      </trkpt>
      <trkpt lat="44.95448" lon="0.51814">
        <ele>150.38208</ele>
        <time>2013-03-04T11:53:32Z</time>
      </trkpt>
      <trkpt lat="44.95453" lon="0.51822">
        <ele>150.184204</ele>
        <time>2013-03-04T11:53:34Z</time>
      </trkpt>
      <trkpt lat="44.95457" lon="0.51828">
        <ele>150.00885</ele>
        <time>2013-03-04T11:53:37Z</time>
      </trkpt>
      <trkpt lat="44.95461" lon="0.51834">
        <ele>149.798706</ele>
        <time>2013-03-04T11:53:39Z</time>
      </trkpt>
      <trkpt lat="44.95466" lon="0.51838">
        <ele>149.631836</ele>
        <time>2013-03-04T11:53:40Z</time>
      </trkpt>
      <trkpt lat="44.95471" lon="0.51842">
        <ele>149.384949</ele>
        <time>2013-03-04T11:53:43Z</time>
      </trkpt>
      <trkpt lat="44.9548" lon="0.51846">
        <ele>149.042847</ele>
        <time>2013-03-04T11:53:45Z</time>
      </trkpt>
      <trkpt lat="44.95519" lon="0.5186">
        <ele>145.986938</ele>
        <time>2013-03-04T11:53:52Z</time>
      </trkpt>
      <trkpt lat="44.95527" lon="0.51871">
        <ele>145.286865</ele>
        <time>2013-03-04T11:53:54Z</time>
      </trkpt>
      <trkpt lat="44.95531" lon="0.51878">
        <ele>144.89447</ele>
        <time>2013-03-04T11:53:55Z</time>
      </trkpt>
      <trkpt lat="44.95535" lon="0.51885">
        <ele>144.543884</ele>
        <time>2013-03-04T11:53:56Z</time>
      </trkpt>
      <trkpt lat="44.95537" lon="0.51891">
        <ele>144.302612</ele>
        <time>2013-03-04T11:53:57Z</time>
      </trkpt>
      <trkpt lat="44.9554" lon="0.519">
        <ele>143.990295</ele>
        <time>2013-03-04T11:53:58Z</time>
      </trkpt>
      <trkpt lat="44.95543" lon="0.5192">
        <ele>143.640503</ele>
        <time>2013-03-04T11:54:00Z</time>
      </trkpt>
      <trkpt lat="44.95545" lon="0.5193">
        <ele>143.083923</ele>
        <time>2013-03-04T11:54:01Z</time>
      </trkpt>
      <trkpt lat="44.95547" lon="0.51939">
        <ele>142.420227</ele>
        <time>2013-03-04T11:54:02Z</time>
      </trkpt>
      <trkpt lat="44.95548" lon="0.51949">
        <ele>142.004028</ele>
        <time>2013-03-04T11:54:03Z</time>
      </trkpt>
      <trkpt lat="44.9555" lon="0.51971">
        <ele>141.146179</ele>
        <time>2013-03-04T11:54:05Z</time>
      </trkpt>
      <trkpt lat="44.95551" lon="0.51981">
        <ele>140.689941</ele>
        <time>2013-03-04T11:54:06Z</time>
      </trkpt>
      <trkpt lat="44.95551" lon="0.51992">
        <ele>140.29657</ele>
        <time>2013-03-04T11:54:07Z</time>
      </trkpt>
      <trkpt lat="44.95551" lon="0.52004">
        <ele>139.919067</ele>
        <time>2013-03-04T11:54:08Z</time>
      </trkpt>
      <trkpt lat="44.9555" lon="0.52027">
        <ele>139.045532</ele>
        <time>2013-03-04T11:54:10Z</time>
      </trkpt>
      <trkpt lat="44.9555" lon="0.52037">
        <ele>138.570801</ele>
        <time>2013-03-04T11:54:11Z</time>
      </trkpt>
      <trkpt lat="44.95547" lon="0.52057">
        <ele>138.392822</ele>
        <time>2013-03-04T11:54:13Z</time>
      </trkpt>
      <trkpt lat="44.95545" lon="0.52067">
        <ele>138.44165</ele>
        <time>2013-03-04T11:54:14Z</time>
      </trkpt>
      <trkpt lat="44.95542" lon="0.52077">
        <ele>138.638245</ele>
        <time>2013-03-04T11:54:15Z</time>
      </trkpt>
      <trkpt lat="44.9554" lon="0.52087">
        <ele>138.559387</ele>
        <time>2013-03-04T11:54:16Z</time>
      </trkpt>
      <trkpt lat="44.95531" lon="0.52101">
        <ele>139.11676</ele>
        <time>2013-03-04T11:54:19Z</time>
      </trkpt>
      <trkpt lat="44.95523" lon="0.52113">
        <ele>139.38385</ele>
        <time>2013-03-04T11:54:20Z</time>
      </trkpt>
      <trkpt lat="44.9552" lon="0.52124">
        <ele>138.41217</ele>
        <time>2013-03-04T11:54:22Z</time>
      </trkpt>
      <trkpt lat="44.95517" lon="0.5213">
        <ele>138.041504</ele>
        <time>2013-03-04T11:54:23Z</time>
      </trkpt>
      <trkpt lat="44.95514" lon="0.52141">
        <ele>137.044312</ele>
        <time>2013-03-04T11:54:25Z</time>
      </trkpt>
      <trkpt lat="44.95511" lon="0.52147">
        <ele>136.776733</ele>
        <time>2013-03-04T11:54:26Z</time>
      </trkpt>
      <trkpt lat="44.955" lon="0.52154">
        <ele>137.135864</ele>
        <time>2013-03-04T11:54:28Z</time>
      </trkpt>
      <trkpt lat="44.95497" lon="0.52161">
        <ele>135.95105</ele>
        <time>2013-03-04T11:54:29Z</time>
      </trkpt>
      <trkpt lat="44.95497" lon="0.52169">
        <ele>134.796997</ele>
        <time>2013-03-04T11:54:30Z</time>
      </trkpt>
      <trkpt lat="44.95493" lon="0.52181">
        <ele>133.353455</ele>
        <time>2013-03-04T11:54:32Z</time>
      </trkpt>
      <trkpt lat="44.95483" lon="0.52195">
        <ele>131.892395</ele>
        <time>2013-03-04T11:54:34Z</time>
      </trkpt>
      <trkpt lat="44.9548" lon="0.522">
        <ele>131.448975</ele>
        <time>2013-03-04T11:54:35Z</time>
      </trkpt>
      <trkpt lat="44.95477" lon="0.52205">
        <ele>130.891479</ele>
        <time>2013-03-04T11:54:36Z</time>
      </trkpt>
      <trkpt lat="44.95471" lon="0.5221">
        <ele>130.528442</ele>
        <time>2013-03-04T11:54:37Z</time>
      </trkpt>
      <trkpt lat="44.95466" lon="0.52215">
        <ele>130.077515</ele>
        <time>2013-03-04T11:54:38Z</time>
      </trkpt>
      <trkpt lat="44.95456" lon="0.52222">
        <ele>129.647522</ele>
        <time>2013-03-04T11:54:40Z</time>
      </trkpt>
      <trkpt lat="44.95448" lon="0.52231">
        <ele>128.882874</ele>
        <time>2013-03-04T11:54:42Z</time>
      </trkpt>
      <trkpt lat="44.95445" lon="0.52237">
        <ele>128.31073</ele>
        <time>2013-03-04T11:54:43Z</time>
      </trkpt>
      <trkpt lat="44.95441" lon="0.52248">
        <ele>127.332947</ele>
        <time>2013-03-04T11:54:45Z</time>
      </trkpt>
      <trkpt lat="44.95437" lon="0.52258">
        <ele>127.117432</ele>
        <time>2013-03-04T11:54:47Z</time>
      </trkpt>
      <trkpt lat="44.95433" lon="0.52268">
        <ele>126.968811</ele>
        <time>2013-03-04T11:54:49Z</time>
      </trkpt>
      <trkpt lat="44.9543" lon="0.52276">
        <ele>126.832336</ele>
        <time>2013-03-04T11:54:51Z</time>
      </trkpt>
      <trkpt lat="44.95428" lon="0.52288">
        <ele>126.547791</ele>
        <time>2013-03-04T11:54:53Z</time>
      </trkpt>
      <trkpt lat="44.95424" lon="0.52297">
        <ele>126.300598</ele>
        <time>2013-03-04T11:54:55Z</time>
      </trkpt>
      <trkpt lat="44.9542" lon="0.52303">
        <ele>126.084717</ele>
        <time>2013-03-04T11:54:59Z</time>
      </trkpt>
      <trkpt lat="44.95412" lon="0.5231">
        <ele>125.960571</ele>
        <time>2013-03-04T11:55:00Z</time>
      </trkpt>
      <trkpt lat="44.95403" lon="0.52315">
        <ele>126.0271</ele>
        <time>2013-03-04T11:55:02Z</time>
      </trkpt>
      <trkpt lat="44.95398" lon="0.52317">
        <ele>126.107849</ele>
        <time>2013-03-04T11:55:03Z</time>
      </trkpt>
      <trkpt lat="44.95391" lon="0.52322">
        <ele>126.077393</ele>
        <time>2013-03-04T11:55:05Z</time>
      </trkpt>
      <trkpt lat="44.95384" lon="0.52327">
        <ele>126.050903</ele>
        <time>2013-03-04T11:55:07Z</time>
      </trkpt>
      <trkpt lat="44.95378" lon="0.52332">
        <ele>125.991211</ele>
        <time>2013-03-04T11:55:09Z</time>
      </trkpt>
      <trkpt lat="44.95371" lon="0.52337">
        <ele>126.044678</ele>
        <time>2013-03-04T11:55:11Z</time>
      </trkpt>
      <trkpt lat="44.95365" lon="0.52341">
        <ele>126.124878</ele>
        <time>2013-03-04T11:55:14Z</time>
      </trkpt>
      <trkpt lat="44.95359" lon="0.52346">
        <ele>126.170105</ele>
        <time>2013-03-04T11:55:15Z</time>
      </trkpt>
      <trkpt lat="44.95353" lon="0.52351">
        <ele>126.201477</ele>
        <time>2013-03-04T11:55:17Z</time>
      </trkpt>
      <trkpt lat="44.95347" lon="0.52355">
        <ele>126.226318</ele>
        <time>2013-03-04T11:55:19Z</time>
      </trkpt>
      <trkpt lat="44.95342" lon="0.5236">
        <ele>126.218018</ele>
        <time>2013-03-04T11:55:21Z</time>
      </trkpt>
      <trkpt lat="44.95337" lon="0.52367">
        <ele>126.151123</ele>
        <time>2013-03-04T11:55:23Z</time>
      </trkpt>
      <trkpt lat="44.95333" lon="0.52373">
        <ele>126.118347</ele>
        <time>2013-03-04T11:55:25Z</time>
      </trkpt>
      <trkpt lat="44.95328" lon="0.52379">
        <ele>126.507507</ele>
        <time>2013-03-04T11:55:27Z</time>
      </trkpt>
      <trkpt lat="44.95323" lon="0.52385">
        <ele>126.855286</ele>
        <time>2013-03-04T11:55:29Z</time>
      </trkpt>
      <trkpt lat="44.95319" lon="0.52392">
        <ele>127.277893</ele>
        <time>2013-03-04T11:55:31Z</time>
      </trkpt>
      <trkpt lat="44.95314" lon="0.52399">
        <ele>127.592773</ele>
        <time>2013-03-04T11:55:33Z</time>
      </trkpt>
      <trkpt lat="44.95311" lon="0.52407">
        <ele>127.819885</ele>
        <time>2013-03-04T11:55:35Z</time>
      </trkpt>
      <trkpt lat="44.95309" lon="0.52414">
        <ele>127.932739</ele>
        <time>2013-03-04T11:55:37Z</time>
      </trkpt>
      <trkpt lat="44.95307" lon="0.52421">
        <ele>128.006531</ele>
        <time>2013-03-04T11:55:39Z</time>
      </trkpt>
      <trkpt lat="44.95303" lon="0.52427">
        <ele>128.251099</ele>
        <time>2013-03-04T11:55:41Z</time>
      </trkpt>
      <trkpt lat="44.95298" lon="0.52431">
        <ele>128.665955</ele>
        <time>2013-03-04T11:55:43Z</time>
      </trkpt>
      <trkpt lat="44.95292" lon="0.52435">
        <ele>129.229797</ele>
        <time>2013-03-04T11:55:45Z</time>
      </trkpt>
      <trkpt lat="44.95287" lon="0.52439">
        <ele>129.719299</ele>
        <time>2013-03-04T11:55:48Z</time>
      </trkpt>
      <trkpt lat="44.95282" lon="0.52443">
        <ele>130.09906</ele>
        <time>2013-03-04T11:55:49Z</time>
      </trkpt>
      <trkpt lat="44.95279" lon="0.52449">
        <ele>130.165894</ele>
        <time>2013-03-04T11:55:51Z</time>
      </trkpt>
      <trkpt lat="44.95278" lon="0.52456">
        <ele>130.128845</ele>
        <time>2013-03-04T11:55:53Z</time>
      </trkpt>
      <trkpt lat="44.95276" lon="0.52463">
        <ele>130.021179</ele>
        <time>2013-03-04T11:55:55Z</time>
      </trkpt>
      <trkpt lat="44.95275" lon="0.5247">
        <ele>129.885986</ele>
        <time>2013-03-04T11:55:57Z</time>
      </trkpt>
      <trkpt lat="44.95273" lon="0.52477">
        <ele>129.865784</ele>
        <time>2013-03-04T11:55:59Z</time>
      </trkpt>
      <trkpt lat="44.95271" lon="0.52486">
        <ele>129.812927</ele>
        <time>2013-03-04T11:56:01Z</time>
      </trkpt>
      <trkpt lat="44.95268" lon="0.52495">
        <ele>129.762512</ele>
        <time>2013-03-04T11:56:03Z</time>
      </trkpt>
      <trkpt lat="44.95267" lon="0.52504">
        <ele>129.696167</ele>
        <time>2013-03-04T11:56:05Z</time>
      </trkpt>
      <trkpt lat="44.95264" lon="0.52513">
        <ele>129.806458</ele>
        <time>2013-03-04T11:56:07Z</time>
      </trkpt>
      <trkpt lat="44.95261" lon="0.52521">
        <ele>129.88269</ele>
        <time>2013-03-04T11:56:09Z</time>
      </trkpt>
      <trkpt lat="44.95259" lon="0.52529">
        <ele>129.889343</ele>
        <time>2013-03-04T11:56:11Z</time>
      </trkpt>
      <trkpt lat="44.95256" lon="0.52537">
        <ele>129.987305</ele>
        <time>2013-03-04T11:56:13Z</time>
      </trkpt>
      <trkpt lat="44.95252" lon="0.52544">
        <ele>130.225464</ele>
        <time>2013-03-04T11:56:15Z</time>
      </trkpt>
      <trkpt lat="44.95247" lon="0.52549">
        <ele>130.45166</ele>
        <time>2013-03-04T11:56:17Z</time>
      </trkpt>
      <trkpt lat="44.95242" lon="0.52552">
        <ele>130.791992</ele>
        <time>2013-03-04T11:56:20Z</time>
      </trkpt>
      <trkpt lat="44.95234" lon="0.52551">
        <ele>131.473877</ele>
        <time>2013-03-04T11:56:22Z</time>
      </trkpt>
      <trkpt lat="44.95226" lon="0.52551">
        <ele>132.182739</ele>
        <time>2013-03-04T11:56:25Z</time>
      </trkpt>
      <trkpt lat="44.95219" lon="0.52552">
        <ele>132.742859</ele>
        <time>2013-03-04T11:56:26Z</time>
      </trkpt>
      <trkpt lat="44.95215" lon="0.52553">
        <ele>133.09137</ele>
        <time>2013-03-04T11:56:28Z</time>
      </trkpt>
      <trkpt lat="44.95213" lon="0.5256">
        <ele>132.981995</ele>
        <time>2013-03-04T11:56:31Z</time>
      </trkpt>
      <trkpt lat="44.95212" lon="0.52569">
        <ele>132.679077</ele>
        <time>2013-03-04T11:56:33Z</time>
      </trkpt>
      <trkpt lat="44.95213" lon="0.52581">
        <ele>132.240662</ele>
        <time>2013-03-04T11:56:35Z</time>
      </trkpt>
      <trkpt lat="44.95211" lon="0.52604">
        <ele>131.245239</ele>
        <time>2013-03-04T11:56:37Z</time>
      </trkpt>
      <trkpt lat="44.95211" lon="0.52612">
        <ele>130.881775</ele>
        <time>2013-03-04T11:56:38Z</time>
      </trkpt>
      <trkpt lat="44.95212" lon="0.5263">
        <ele>129.971375</ele>
        <time>2013-03-04T11:56:40Z</time>
      </trkpt>
      <trkpt lat="44.95217" lon="0.52639">
        <ele>129.093689</ele>
        <time>2013-03-04T11:56:41Z</time>
      </trkpt>
      <trkpt lat="44.95217" lon="0.52657">
        <ele>128.261292</ele>
        <time>2013-03-04T11:56:43Z</time>
      </trkpt>
      <trkpt lat="44.95217" lon="0.52674">
        <ele>127.56012</ele>
        <time>2013-03-04T11:56:45Z</time>
      </trkpt>
      <trkpt lat="44.95217" lon="0.52682">
        <ele>127.306335</ele>
        <time>2013-03-04T11:56:46Z</time>
      </trkpt>
      <trkpt lat="44.95217" lon="0.527">
        <ele>126.784424</ele>
        <time>2013-03-04T11:56:48Z</time>
      </trkpt>
      <trkpt lat="44.95216" lon="0.52714">
        <ele>126.365356</ele>
        <time>2013-03-04T11:56:50Z</time>
      </trkpt>
      <trkpt lat="44.95216" lon="0.52721">
        <ele>126.171021</ele>
        <time>2013-03-04T11:56:51Z</time>
      </trkpt>
      <trkpt lat="44.95215" lon="0.52734">
        <ele>125.816101</ele>
        <time>2013-03-04T11:56:53Z</time>
      </trkpt>
      <trkpt lat="44.95215" lon="0.52742">
        <ele>125.635803</ele>
        <time>2013-03-04T11:56:55Z</time>
      </trkpt>
      <trkpt lat="44.95234" lon="0.52753">
        <ele>123.34906</ele>
        <time>2013-03-04T11:56:56Z</time>
      </trkpt>
      <trkpt lat="44.95244" lon="0.5276">
        <ele>122.203491</ele>
        <time>2013-03-04T11:56:57Z</time>
      </trkpt>
      <trkpt lat="44.95252" lon="0.52765">
        <ele>121.470642</ele>
        <time>2013-03-04T11:56:58Z</time>
      </trkpt>
      <trkpt lat="44.95271" lon="0.52779">
        <ele>121.214478</ele>
        <time>2013-03-04T11:57:00Z</time>
      </trkpt>
      <trkpt lat="44.95286" lon="0.52793">
        <ele>121.136536</ele>
        <time>2013-03-04T11:57:02Z</time>
      </trkpt>
      <trkpt lat="44.95295" lon="0.52804">
        <ele>121.107239</ele>
        <time>2013-03-04T11:57:04Z</time>
      </trkpt>
      <trkpt lat="44.95301" lon="0.52814">
        <ele>121.092957</ele>
        <time>2013-03-04T11:57:05Z</time>
      </trkpt>
      <trkpt lat="44.9531" lon="0.52834">
        <ele>121.130493</ele>
        <time>2013-03-04T11:57:06Z</time>
      </trkpt>
      <trkpt lat="44.95312" lon="0.52841">
        <ele>121.068848</ele>
        <time>2013-03-04T11:57:07Z</time>
      </trkpt>
      <trkpt lat="44.95316" lon="0.52849">
        <ele>120.983154</ele>
        <time>2013-03-04T11:57:08Z</time>
      </trkpt>
      <trkpt lat="44.9532" lon="0.52861">
        <ele>120.879456</ele>
        <time>2013-03-04T11:57:10Z</time>
      </trkpt>
      <trkpt lat="44.95326" lon="0.52873">
        <ele>120.770142</ele>
        <time>2013-03-04T11:57:11Z</time>
      </trkpt>
      <trkpt lat="44.95329" lon="0.5288">
        <ele>120.718872</ele>
        <time>2013-03-04T11:57:12Z</time>
      </trkpt>
      <trkpt lat="44.95335" lon="0.52893">
        <ele>120.795959</ele>
        <time>2013-03-04T11:57:14Z</time>
      </trkpt>
      <trkpt lat="44.95341" lon="0.529">
        <ele>121.178467</ele>
        <time>2013-03-04T11:57:17Z</time>
      </trkpt>
      <trkpt lat="44.95345" lon="0.52904">
        <ele>121.444763</ele>
        <time>2013-03-04T11:57:19Z</time>
      </trkpt>
      <trkpt lat="44.95349" lon="0.52908">
        <ele>121.688904</ele>
        <time>2013-03-04T11:57:21Z</time>
      </trkpt>
      <trkpt lat="44.95359" lon="0.52914">
        <ele>122.328491</ele>
        <time>2013-03-04T11:57:23Z</time>
      </trkpt>
      <trkpt lat="44.95365" lon="0.52917">
        <ele>122.680664</ele>
        <time>2013-03-04T11:57:25Z</time>
      </trkpt>
      <trkpt lat="44.95373" lon="0.52918">
        <ele>123.323853</ele>
        <time>2013-03-04T11:57:27Z</time>
      </trkpt>
      <trkpt lat="44.9538" lon="0.52919">
        <ele>123.876038</ele>
        <time>2013-03-04T11:57:29Z</time>
      </trkpt>
      <trkpt lat="44.95387" lon="0.5292">
        <ele>124.421814</ele>
        <time>2013-03-04T11:57:32Z</time>
      </trkpt>
      <trkpt lat="44.95393" lon="0.52921">
        <ele>124.949463</ele>
        <time>2013-03-04T11:57:33Z</time>
      </trkpt>
      <trkpt lat="44.954" lon="0.52922">
        <ele>125.495728</ele>
        <time>2013-03-04T11:57:35Z</time>
      </trkpt>
      <trkpt lat="44.95407" lon="0.52923">
        <ele>125.995178</ele>
        <time>2013-03-04T11:57:37Z</time>
      </trkpt>
      <trkpt lat="44.95413" lon="0.52924">
        <ele>126.477356</ele>
        <time>2013-03-04T11:57:39Z</time>
      </trkpt>
      <trkpt lat="44.95421" lon="0.52925">
        <ele>126.956421</ele>
        <time>2013-03-04T11:57:42Z</time>
      </trkpt>
      <trkpt lat="44.9543" lon="0.52926">
        <ele>127.410217</ele>
        <time>2013-03-04T11:57:43Z</time>
      </trkpt>
      <trkpt lat="44.95438" lon="0.52928">
        <ele>127.823914</ele>
        <time>2013-03-04T11:57:45Z</time>
      </trkpt>
      <trkpt lat="44.95445" lon="0.52929">
        <ele>128.210266</ele>
        <time>2013-03-04T11:57:47Z</time>
      </trkpt>
      <trkpt lat="44.95453" lon="0.5293">
        <ele>128.600281</ele>
        <time>2013-03-04T11:57:49Z</time>
      </trkpt>
      <trkpt lat="44.95459" lon="0.52931">
        <ele>128.949219</ele>
        <time>2013-03-04T11:57:51Z</time>
      </trkpt>
      <trkpt lat="44.95466" lon="0.52932">
        <ele>129.302917</ele>
        <time>2013-03-04T11:57:53Z</time>
      </trkpt>
      <trkpt lat="44.95473" lon="0.52933">
        <ele>129.629578</ele>
        <time>2013-03-04T11:57:55Z</time>
      </trkpt>
      <trkpt lat="44.95479" lon="0.52934">
        <ele>129.963623</ele>
        <time>2013-03-04T11:57:57Z</time>
      </trkpt>
      <trkpt lat="44.95485" lon="0.52934">
        <ele>130.277649</ele>
        <time>2013-03-04T11:58:00Z</time>
      </trkpt>
      <trkpt lat="44.95492" lon="0.52935">
        <ele>130.64447</ele>
        <time>2013-03-04T11:58:02Z</time>
      </trkpt>
      <trkpt lat="44.95498" lon="0.52935">
        <ele>131.020081</ele>
        <time>2013-03-04T11:58:04Z</time>
      </trkpt>
      <trkpt lat="44.95507" lon="0.52935">
        <ele>131.225037</ele>
        <time>2013-03-04T11:58:06Z</time>
      </trkpt>
      <trkpt lat="44.95514" lon="0.52935">
        <ele>131.326233</ele>
        <time>2013-03-04T11:58:08Z</time>
      </trkpt>
      <trkpt lat="44.9552" lon="0.52935">
        <ele>131.429504</ele>
        <time>2013-03-04T11:58:10Z</time>
      </trkpt>
      <trkpt lat="44.95526" lon="0.52935">
        <ele>131.517029</ele>
        <time>2013-03-04T11:58:12Z</time>
      </trkpt>
      <trkpt lat="44.95531" lon="0.52934">
        <ele>131.600281</ele>
        <time>2013-03-04T11:58:14Z</time>
      </trkpt>
      <trkpt lat="44.95536" lon="0.52934">
        <ele>131.67926</ele>
        <time>2013-03-04T11:58:16Z</time>
      </trkpt>
      <trkpt lat="44.95541" lon="0.52934">
        <ele>131.740417</ele>
        <time>2013-03-04T11:58:18Z</time>
      </trkpt>
      <trkpt lat="44.95548" lon="0.52935">
        <ele>131.826599</ele>
        <time>2013-03-04T11:58:20Z</time>
      </trkpt>
      <trkpt lat="44.95555" lon="0.52935">
        <ele>131.923645</ele>
        <time>2013-03-04T11:58:22Z</time>
      </trkpt>
      <trkpt lat="44.95562" lon="0.52936">
        <ele>132.012329</ele>
        <time>2013-03-04T11:58:25Z</time>
      </trkpt>
      <trkpt lat="44.95569" lon="0.52936">
        <ele>132.092834</ele>
        <time>2013-03-04T11:58:26Z</time>
      </trkpt>
      <trkpt lat="44.95575" lon="0.52936">
        <ele>132.176392</ele>
        <time>2013-03-04T11:58:28Z</time>
      </trkpt>
      <trkpt lat="44.95586" lon="0.52936">
        <ele>132.31366</ele>
        <time>2013-03-04T11:58:30Z</time>
      </trkpt>
      <trkpt lat="44.95591" lon="0.52935">
        <ele>132.336426</ele>
        <time>2013-03-04T11:58:31Z</time>
      </trkpt>
      <trkpt lat="44.95599" lon="0.52932">
        <ele>132.399963</ele>
        <time>2013-03-04T11:58:33Z</time>
      </trkpt>
      <trkpt lat="44.95609" lon="0.52928">
        <ele>132.445557</ele>
        <time>2013-03-04T11:58:35Z</time>
      </trkpt>
      <trkpt lat="44.95618" lon="0.52925">
        <ele>132.456787</ele>
        <time>2013-03-04T11:58:37Z</time>
      </trkpt>
      <trkpt lat="44.95625" lon="0.52922">
        <ele>132.438843</ele>
        <time>2013-03-04T11:58:39Z</time>
      </trkpt>
      <trkpt lat="44.95626" lon="0.5289">
        <ele>136.177063</ele>
        <time>2013-03-04T11:58:41Z</time>
      </trkpt>
      <trkpt lat="44.95633" lon="0.52893">
        <ele>135.682556</ele>
        <time>2013-03-04T11:58:42Z</time>
      </trkpt>
      <trkpt lat="44.95639" lon="0.52894">
        <ele>135.463318</ele>
        <time>2013-03-04T11:58:44Z</time>
      </trkpt>
      <trkpt lat="44.95644" lon="0.52895">
        <ele>135.180542</ele>
        <time>2013-03-04T11:58:45Z</time>
      </trkpt>
      <trkpt lat="44.95649" lon="0.52898">
        <ele>134.716553</ele>
        <time>2013-03-04T11:58:46Z</time>
      </trkpt>
      <trkpt lat="44.95659" lon="0.52902">
        <ele>134.03656</ele>
        <time>2013-03-04T11:58:47Z</time>
      </trkpt>
      <trkpt lat="44.95668" lon="0.52903">
        <ele>133.801392</ele>
        <time>2013-03-04T11:58:49Z</time>
      </trkpt>
      <trkpt lat="44.95673" lon="0.52905">
        <ele>133.790161</ele>
        <time>2013-03-04T11:58:50Z</time>
      </trkpt>
      <trkpt lat="44.95678" lon="0.52906">
        <ele>133.799011</ele>
        <time>2013-03-04T11:58:51Z</time>
      </trkpt>
      <trkpt lat="44.95685" lon="0.52904">
        <ele>134.295166</ele>
        <time>2013-03-04T11:58:53Z</time>
      </trkpt>
      <trkpt lat="44.95692" lon="0.529">
        <ele>134.980469</ele>
        <time>2013-03-04T11:58:55Z</time>
      </trkpt>
      <trkpt lat="44.95698" lon="0.52894">
        <ele>135.853516</ele>
        <time>2013-03-04T11:58:57Z</time>
      </trkpt>
      <trkpt lat="44.95704" lon="0.52888">
        <ele>136.643188</ele>
        <time>2013-03-04T11:58:59Z</time>
      </trkpt>
      <trkpt lat="44.95711" lon="0.52884">
        <ele>137.292175</ele>
        <time>2013-03-04T11:59:01Z</time>
      </trkpt>
      <trkpt lat="44.95718" lon="0.5288">
        <ele>137.851257</ele>
        <time>2013-03-04T11:59:03Z</time>
      </trkpt>
      <trkpt lat="44.95726" lon="0.52877">
        <ele>138.319336</ele>
        <time>2013-03-04T11:59:05Z</time>
      </trkpt>
      <trkpt lat="44.95734" lon="0.52875">
        <ele>138.752319</ele>
        <time>2013-03-04T11:59:07Z</time>
      </trkpt>
      <trkpt lat="44.95743" lon="0.52872">
        <ele>139.129395</ele>
        <time>2013-03-04T11:59:09Z</time>
      </trkpt>
      <trkpt lat="44.95751" lon="0.5287">
        <ele>139.578735</ele>
        <time>2013-03-04T11:59:11Z</time>
      </trkpt>
      <trkpt lat="44.95759" lon="0.52865">
        <ele>140.547913</ele>
        <time>2013-03-04T11:59:13Z</time>
      </trkpt>
      <trkpt lat="44.95767" lon="0.5286">
        <ele>141.405273</ele>
        <time>2013-03-04T11:59:15Z</time>
      </trkpt>
      <trkpt lat="44.95777" lon="0.5286">
        <ele>142.050049</ele>
        <time>2013-03-04T11:59:17Z</time>
      </trkpt>
      <trkpt lat="44.95782" lon="0.52859">
        <ele>142.370422</ele>
        <time>2013-03-04T11:59:18Z</time>
      </trkpt>
      <trkpt lat="44.95786" lon="0.52858">
        <ele>142.694397</ele>
        <time>2013-03-04T11:59:19Z</time>
      </trkpt>
      <trkpt lat="44.95793" lon="0.52853">
        <ele>143.20929</ele>
        <time>2013-03-04T11:59:22Z</time>
      </trkpt>
      <trkpt lat="44.958" lon="0.52849">
        <ele>143.710266</ele>
        <time>2013-03-04T11:59:23Z</time>
      </trkpt>
      <trkpt lat="44.95809" lon="0.52848">
        <ele>144.109436</ele>
        <time>2013-03-04T11:59:25Z</time>
      </trkpt>
      <trkpt lat="44.95816" lon="0.52843">
        <ele>144.464478</ele>
        <time>2013-03-04T11:59:27Z</time>
      </trkpt>
      <trkpt lat="44.95823" lon="0.52839">
        <ele>144.740112</ele>
        <time>2013-03-04T11:59:29Z</time>
      </trkpt>
      <trkpt lat="44.9583" lon="0.52836">
        <ele>144.937805</ele>
        <time>2013-03-04T11:59:31Z</time>
      </trkpt>
      <trkpt lat="44.95836" lon="0.52833">
        <ele>145.31427</ele>
        <time>2013-03-04T11:59:33Z</time>
      </trkpt>
      <trkpt lat="44.95842" lon="0.52832">
        <ele>146.063232</ele>
        <time>2013-03-04T11:59:35Z</time>
      </trkpt>
      <trkpt lat="44.95847" lon="0.52829">
        <ele>146.766968</ele>
        <time>2013-03-04T11:59:37Z</time>
      </trkpt>
      <trkpt lat="44.95852" lon="0.52826">
        <ele>147.427307</ele>
        <time>2013-03-04T11:59:39Z</time>
      </trkpt>
      <trkpt lat="44.95856" lon="0.52821">
        <ele>148.137756</ele>
        <time>2013-03-04T11:59:41Z</time>
      </trkpt>
      <trkpt lat="44.9586" lon="0.52816">
        <ele>148.810425</ele>
        <time>2013-03-04T11:59:43Z</time>
      </trkpt>
      <trkpt lat="44.95864" lon="0.52812">
        <ele>149.3526</ele>
        <time>2013-03-04T11:59:45Z</time>
      </trkpt>
      <trkpt lat="44.95869" lon="0.52807">
        <ele>150.05957</ele>
        <time>2013-03-04T11:59:48Z</time>
      </trkpt>
      <trkpt lat="44.95873" lon="0.52804">
        <ele>150.549255</ele>
        <time>2013-03-04T11:59:50Z</time>
      </trkpt>
      <trkpt lat="44.95877" lon="0.52799">
        <ele>151.092957</ele>
        <time>2013-03-04T11:59:52Z</time>
      </trkpt>
      <trkpt lat="44.95881" lon="0.52791">
        <ele>151.752258</ele>
        <time>2013-03-04T11:59:54Z</time>
      </trkpt>
      <trkpt lat="44.95886" lon="0.52784">
        <ele>152.319702</ele>
        <time>2013-03-04T11:59:56Z</time>
      </trkpt>
      <trkpt lat="44.95892" lon="0.52782">
        <ele>152.895813</ele>
        <time>2013-03-04T11:59:58Z</time>
      </trkpt>
      <trkpt lat="44.95898" lon="0.5278">
        <ele>153.365723</ele>
        <time>2013-03-04T12:00:00Z</time>
      </trkpt>
      <trkpt lat="44.95906" lon="0.52781">
        <ele>153.895142</ele>
        <time>2013-03-04T12:00:02Z</time>
      </trkpt>
      <trkpt lat="44.95913" lon="0.52781">
        <ele>154.3396</ele>
        <time>2013-03-04T12:00:04Z</time>
      </trkpt>
      <trkpt lat="44.95918" lon="0.52781">
        <ele>154.673767</ele>
        <time>2013-03-04T12:00:06Z</time>
      </trkpt>
      <trkpt lat="44.95924" lon="0.52778">
        <ele>155.015625</ele>
        <time>2013-03-04T12:00:10Z</time>
      </trkpt>
      <trkpt lat="44.9593" lon="0.52777">
        <ele>155.299805</ele>
        <time>2013-03-04T12:00:11Z</time>
      </trkpt>
      <trkpt lat="44.95935" lon="0.52775">
        <ele>155.565552</ele>
        <time>2013-03-04T12:00:14Z</time>
      </trkpt>
      <trkpt lat="44.95941" lon="0.52774">
        <ele>155.890564</ele>
        <time>2013-03-04T12:00:15Z</time>
      </trkpt>
      <trkpt lat="44.95948" lon="0.52775">
        <ele>156.184448</ele>
        <time>2013-03-04T12:00:17Z</time>
      </trkpt>
      <trkpt lat="44.95953" lon="0.52776">
        <ele>156.459106</ele>
        <time>2013-03-04T12:00:19Z</time>
      </trkpt>
      <trkpt lat="44.95958" lon="0.52775">
        <ele>156.703735</ele>
        <time>2013-03-04T12:00:21Z</time>
      </trkpt>
      <trkpt lat="44.95964" lon="0.52775">
        <ele>156.958618</ele>
        <time>2013-03-04T12:00:23Z</time>
      </trkpt>
      <trkpt lat="44.95969" lon="0.52775">
        <ele>157.208435</ele>
        <time>2013-03-04T12:00:25Z</time>
      </trkpt>
      <trkpt lat="44.95975" lon="0.52778">
        <ele>157.46283</ele>
        <time>2013-03-04T12:00:27Z</time>
      </trkpt>
      <trkpt lat="44.9598" lon="0.52781">
        <ele>157.680542</ele>
        <time>2013-03-04T12:00:29Z</time>
      </trkpt>
      <trkpt lat="44.95986" lon="0.52785">
        <ele>157.904724</ele>
        <time>2013-03-04T12:00:31Z</time>
      </trkpt>
      <trkpt lat="44.95992" lon="0.52789">
        <ele>158.164612</ele>
        <time>2013-03-04T12:00:33Z</time>
      </trkpt>
      <trkpt lat="44.95998" lon="0.5279">
        <ele>158.426331</ele>
        <time>2013-03-04T12:00:35Z</time>
      </trkpt>
      <trkpt lat="44.96003" lon="0.52791">
        <ele>158.584167</ele>
        <time>2013-03-04T12:00:37Z</time>
      </trkpt>
      <trkpt lat="44.96008" lon="0.52793">
        <ele>158.718506</ele>
        <time>2013-03-04T12:00:40Z</time>
      </trkpt>
      <trkpt lat="44.96012" lon="0.52796">
        <ele>158.790405</ele>
        <time>2013-03-04T12:00:43Z</time>
      </trkpt>
      <trkpt lat="44.96018" lon="0.52799">
        <ele>158.891418</ele>
        <time>2013-03-04T12:00:46Z</time>
      </trkpt>
      <trkpt lat="44.96022" lon="0.528">
        <ele>158.994263</ele>
        <time>2013-03-04T12:00:49Z</time>
      </trkpt>
      <trkpt lat="44.96029" lon="0.52801">
        <ele>159.141541</ele>
        <time>2013-03-04T12:00:52Z</time>
      </trkpt>
      <trkpt lat="44.96034" lon="0.52803">
        <ele>159.226562</ele>
        <time>2013-03-04T12:00:55Z</time>
      </trkpt>
      <trkpt lat="44.96042" lon="0.52807">
        <ele>159.297852</ele>
        <time>2013-03-04T12:00:56Z</time>
      </trkpt>
      <trkpt lat="44.96048" lon="0.52809">
        <ele>159.357971</ele>
        <time>2013-03-04T12:00:58Z</time>
      </trkpt>
      <trkpt lat="44.96061" lon="0.52813">
        <ele>159.529724</ele>
        <time>2013-03-04T12:01:01Z</time>
      </trkpt>
      <trkpt lat="44.96069" lon="0.52814">
        <ele>159.650391</ele>
        <time>2013-03-04T12:01:02Z</time>
      </trkpt>
      <trkpt lat="44.96075" lon="0.52814">
        <ele>159.77356</ele>
        <time>2013-03-04T12:01:05Z</time>
      </trkpt>
      <trkpt lat="44.96081" lon="0.52813">
        <ele>159.930054</ele>
        <time>2013-03-04T12:01:07Z</time>
      </trkpt>
      <trkpt lat="44.96087" lon="0.52813">
        <ele>159.99353</ele>
        <time>2013-03-04T12:01:09Z</time>
      </trkpt>
      <trkpt lat="44.96092" lon="0.52815">
        <ele>160.007263</ele>
        <time>2013-03-04T12:01:13Z</time>
      </trkpt>
      <trkpt lat="44.96099" lon="0.52813">
        <ele>160.154114</ele>
        <time>2013-03-04T12:01:16Z</time>
      </trkpt>
      <trkpt lat="44.96104" lon="0.52812">
        <ele>160.290283</ele>
        <time>2013-03-04T12:01:18Z</time>
      </trkpt>
      <trkpt lat="44.9611" lon="0.52811">
        <ele>160.398071</ele>
        <time>2013-03-04T12:01:20Z</time>
      </trkpt>
      <trkpt lat="44.96115" lon="0.52811">
        <ele>160.472534</ele>
        <time>2013-03-04T12:01:22Z</time>
      </trkpt>
      <trkpt lat="44.96122" lon="0.52811">
        <ele>160.541504</ele>
        <time>2013-03-04T12:01:24Z</time>
      </trkpt>
      <trkpt lat="44.96127" lon="0.52812">
        <ele>160.57019</ele>
        <time>2013-03-04T12:01:27Z</time>
      </trkpt>
      <trkpt lat="44.96132" lon="0.52813">
        <ele>160.563721</ele>
        <time>2013-03-04T12:01:28Z</time>
      </trkpt>
      <trkpt lat="44.96136" lon="0.52815">
        <ele>160.535278</ele>
        <time>2013-03-04T12:01:30Z</time>
      </trkpt>
      <trkpt lat="44.96141" lon="0.52817">
        <ele>160.489258</ele>
        <time>2013-03-04T12:01:32Z</time>
      </trkpt>
      <trkpt lat="44.96147" lon="0.5282">
        <ele>160.424683</ele>
        <time>2013-03-04T12:01:35Z</time>
      </trkpt>
      <trkpt lat="44.96151" lon="0.52824">
        <ele>160.282837</ele>
        <time>2013-03-04T12:01:38Z</time>
      </trkpt>
      <trkpt lat="44.96156" lon="0.52827">
        <ele>160.161438</ele>
        <time>2013-03-04T12:01:40Z</time>
      </trkpt>
      <trkpt lat="44.96162" lon="0.52831">
        <ele>160.066589</ele>
        <time>2013-03-04T12:01:42Z</time>
      </trkpt>
      <trkpt lat="44.96167" lon="0.52833">
        <ele>160.029175</ele>
        <time>2013-03-04T12:01:44Z</time>
      </trkpt>
      <trkpt lat="44.96172" lon="0.52834">
        <ele>160.450256</ele>
        <time>2013-03-04T12:01:46Z</time>
      </trkpt>
      <trkpt lat="44.96177" lon="0.52836">
        <ele>161.100952</ele>
        <time>2013-03-04T12:01:49Z</time>
      </trkpt>
      <trkpt lat="44.96183" lon="0.52841">
        <ele>161.897949</ele>
        <time>2013-03-04T12:01:52Z</time>
      </trkpt>
      <trkpt lat="44.96188" lon="0.52844">
        <ele>162.520386</ele>
        <time>2013-03-04T12:01:54Z</time>
      </trkpt>
      <trkpt lat="44.96193" lon="0.52846">
        <ele>162.998779</ele>
        <time>2013-03-04T12:01:57Z</time>
      </trkpt>
      <trkpt lat="44.96199" lon="0.52848">
        <ele>163.562561</ele>
        <time>2013-03-04T12:01:58Z</time>
      </trkpt>
      <trkpt lat="44.96204" lon="0.52848">
        <ele>163.963318</ele>
        <time>2013-03-04T12:02:00Z</time>
      </trkpt>
      <trkpt lat="44.96208" lon="0.52847">
        <ele>164.261963</ele>
        <time>2013-03-04T12:02:02Z</time>
      </trkpt>
      <trkpt lat="44.96214" lon="0.52845">
        <ele>164.60968</ele>
        <time>2013-03-04T12:02:05Z</time>
      </trkpt>
      <trkpt lat="44.96221" lon="0.52846">
        <ele>165.1297</ele>
        <time>2013-03-04T12:02:08Z</time>
      </trkpt>
      <trkpt lat="44.96227" lon="0.52848">
        <ele>165.632324</ele>
        <time>2013-03-04T12:02:11Z</time>
      </trkpt>
      <trkpt lat="44.96231" lon="0.52849">
        <ele>166</ele>
        <time>2013-03-04T12:02:13Z</time>
      </trkpt>
      <trkpt lat="44.96236" lon="0.52849">
        <ele>166.375854</ele>
        <time>2013-03-04T12:02:15Z</time>
      </trkpt>
      <trkpt lat="44.9624" lon="0.52852">
        <ele>166.758545</ele>
        <time>2013-03-04T12:02:17Z</time>
      </trkpt>
      <trkpt lat="44.96245" lon="0.52852">
        <ele>167.088806</ele>
        <time>2013-03-04T12:02:20Z</time>
      </trkpt>
      <trkpt lat="44.96251" lon="0.52854">
        <ele>167.526367</ele>
        <time>2013-03-04T12:02:23Z</time>
      </trkpt>
      <trkpt lat="44.96257" lon="0.52857">
        <ele>168.06134</ele>
        <time>2013-03-04T12:02:26Z</time>
      </trkpt>
      <trkpt lat="44.96262" lon="0.52859">
        <ele>168.549316</ele>
        <time>2013-03-04T12:02:27Z</time>
      </trkpt>
      <trkpt lat="44.9627" lon="0.52861">
        <ele>169.173767</ele>
        <time>2013-03-04T12:02:29Z</time>
      </trkpt>
      <trkpt lat="44.96277" lon="0.52862">
        <ele>169.729248</ele>
        <time>2013-03-04T12:02:31Z</time>
      </trkpt>
      <trkpt lat="44.96282" lon="0.52864">
        <ele>170.181274</ele>
        <time>2013-03-04T12:02:33Z</time>
      </trkpt>
      <trkpt lat="44.96288" lon="0.52867">
        <ele>170.703064</ele>
        <time>2013-03-04T12:02:35Z</time>
      </trkpt>
      <trkpt lat="44.96293" lon="0.52869">
        <ele>171.192322</ele>
        <time>2013-03-04T12:02:37Z</time>
      </trkpt>
      <trkpt lat="44.96298" lon="0.52872">
        <ele>171.680786</ele>
        <time>2013-03-04T12:02:39Z</time>
      </trkpt>
      <trkpt lat="44.96303" lon="0.52874">
        <ele>172.078796</ele>
        <time>2013-03-04T12:02:43Z</time>
      </trkpt>
      <trkpt lat="44.96308" lon="0.52877">
        <ele>172.570862</ele>
        <time>2013-03-04T12:02:47Z</time>
      </trkpt>
      <trkpt lat="44.96314" lon="0.52878">
        <ele>173.065979</ele>
        <time>2013-03-04T12:02:50Z</time>
      </trkpt>
      <trkpt lat="44.96319" lon="0.52878">
        <ele>173.475708</ele>
        <time>2013-03-04T12:02:52Z</time>
      </trkpt>
      <trkpt lat="44.96325" lon="0.52877">
        <ele>173.890076</ele>
        <time>2013-03-04T12:02:56Z</time>
      </trkpt>
      <trkpt lat="44.96329" lon="0.52878">
        <ele>174.272766</ele>
        <time>2013-03-04T12:02:59Z</time>
      </trkpt>
      <trkpt lat="44.96335" lon="0.52877">
        <ele>174.64563</ele>
        <time>2013-03-04T12:03:02Z</time>
      </trkpt>
      <trkpt lat="44.96341" lon="0.52876">
        <ele>174.891479</ele>
        <time>2013-03-04T12:03:06Z</time>
      </trkpt>
      <trkpt lat="44.96347" lon="0.52874">
        <ele>175.122925</ele>
        <time>2013-03-04T12:03:09Z</time>
      </trkpt>
      <trkpt lat="44.96354" lon="0.52873">
        <ele>175.40979</ele>
        <time>2013-03-04T12:03:11Z</time>
      </trkpt>
      <trkpt lat="44.96359" lon="0.52873">
        <ele>175.64032</ele>
        <time>2013-03-04T12:03:13Z</time>
      </trkpt>
      <trkpt lat="44.96364" lon="0.52871">
        <ele>175.8125</ele>
        <time>2013-03-04T12:03:16Z</time>
      </trkpt>
      <trkpt lat="44.9637" lon="0.5287">
        <ele>176.004272</ele>
        <time>2013-03-04T12:03:19Z</time>
      </trkpt>
      <trkpt lat="44.96376" lon="0.5287">
        <ele>176.257751</ele>
        <time>2013-03-04T12:03:22Z</time>
      </trkpt>
      <trkpt lat="44.96381" lon="0.52868">
        <ele>176.457092</ele>
        <time>2013-03-04T12:03:25Z</time>
      </trkpt>
      <trkpt lat="44.96387" lon="0.52868">
        <ele>176.725769</ele>
        <time>2013-03-04T12:03:28Z</time>
      </trkpt>
      <trkpt lat="44.96392" lon="0.52866">
        <ele>176.8396</ele>
        <time>2013-03-04T12:03:31Z</time>
      </trkpt>
      <trkpt lat="44.96398" lon="0.52862">
        <ele>176.867188</ele>
        <time>2013-03-04T12:03:35Z</time>
      </trkpt>
      <trkpt lat="44.96403" lon="0.52857">
        <ele>176.834167</ele>
        <time>2013-03-04T12:03:36Z</time>
      </trkpt>
      <trkpt lat="44.96408" lon="0.52853">
        <ele>176.827271</ele>
        <time>2013-03-04T12:03:39Z</time>
      </trkpt>
      <trkpt lat="44.96414" lon="0.52852">
        <ele>177.01709</ele>
        <time>2013-03-04T12:03:42Z</time>
      </trkpt>
      <trkpt lat="44.9642" lon="0.52849">
        <ele>177.072571</ele>
        <time>2013-03-04T12:03:46Z</time>
      </trkpt>
      <trkpt lat="44.96425" lon="0.52846">
        <ele>177.060303</ele>
        <time>2013-03-04T12:03:48Z</time>
      </trkpt>
      <trkpt lat="44.9643" lon="0.52847">
        <ele>177.360718</ele>
        <time>2013-03-04T12:03:51Z</time>
      </trkpt>
      <trkpt lat="44.96435" lon="0.5285">
        <ele>177.724365</ele>
        <time>2013-03-04T12:03:54Z</time>
      </trkpt>
      <trkpt lat="44.9644" lon="0.52854">
        <ele>178.051208</ele>
        <time>2013-03-04T12:03:55Z</time>
      </trkpt>
      <trkpt lat="44.96446" lon="0.52857">
        <ele>178.393311</ele>
        <time>2013-03-04T12:03:57Z</time>
      </trkpt>
      <trkpt lat="44.96451" lon="0.5286">
        <ele>178.705017</ele>
        <time>2013-03-04T12:03:59Z</time>
      </trkpt>
      <trkpt lat="44.96456" lon="0.52864">
        <ele>179.007385</ele>
        <time>2013-03-04T12:04:02Z</time>
      </trkpt>
      <trkpt lat="44.96461" lon="0.52866">
        <ele>179.230042</ele>
        <time>2013-03-04T12:04:05Z</time>
      </trkpt>
      <trkpt lat="44.96465" lon="0.52869">
        <ele>179.46698</ele>
        <time>2013-03-04T12:04:09Z</time>
      </trkpt>
      <trkpt lat="44.96469" lon="0.52873">
        <ele>179.691223</ele>
        <time>2013-03-04T12:04:11Z</time>
      </trkpt>
      <trkpt lat="44.96474" lon="0.52878">
        <ele>179.946167</ele>
        <time>2013-03-04T12:04:13Z</time>
      </trkpt>
      <trkpt lat="44.96478" lon="0.52883">
        <ele>180.15802</ele>
        <time>2013-03-04T12:04:15Z</time>
      </trkpt>
      <trkpt lat="44.96481" lon="0.52888">
        <ele>180.342651</ele>
        <time>2013-03-04T12:04:17Z</time>
      </trkpt>
      <trkpt lat="44.96485" lon="0.52893">
        <ele>180.517883</ele>
        <time>2013-03-04T12:04:20Z</time>
      </trkpt>
      <trkpt lat="44.96489" lon="0.52899">
        <ele>180.665649</ele>
        <time>2013-03-04T12:04:23Z</time>
      </trkpt>
      <trkpt lat="44.96494" lon="0.52905">
        <ele>180.809387</ele>
        <time>2013-03-04T12:04:25Z</time>
      </trkpt>
      <trkpt lat="44.96498" lon="0.52909">
        <ele>180.903442</ele>
        <time>2013-03-04T12:04:27Z</time>
      </trkpt>
      <trkpt lat="44.96502" lon="0.52915">
        <ele>180.958008</ele>
        <time>2013-03-04T12:04:29Z</time>
      </trkpt>
      <trkpt lat="44.96506" lon="0.52919">
        <ele>180.991333</ele>
        <time>2013-03-04T12:04:31Z</time>
      </trkpt>
      <trkpt lat="44.9651" lon="0.52924">
        <ele>181.046143</ele>
        <time>2013-03-04T12:04:33Z</time>
      </trkpt>
      <trkpt lat="44.96513" lon="0.52928">
        <ele>181.090515</ele>
        <time>2013-03-04T12:04:35Z</time>
      </trkpt>
      <trkpt lat="44.96517" lon="0.52933">
        <ele>181.151001</ele>
        <time>2013-03-04T12:04:37Z</time>
      </trkpt>
      <trkpt lat="44.96521" lon="0.5294">
        <ele>181.227966</ele>
        <time>2013-03-04T12:04:40Z</time>
      </trkpt>
      <trkpt lat="44.96525" lon="0.52947">
        <ele>181.319214</ele>
        <time>2013-03-04T12:04:42Z</time>
      </trkpt>
      <trkpt lat="44.9653" lon="0.52954">
        <ele>181.391785</ele>
        <time>2013-03-04T12:04:44Z</time>
      </trkpt>
      <trkpt lat="44.96534" lon="0.5296">
        <ele>181.436768</ele>
        <time>2013-03-04T12:04:46Z</time>
      </trkpt>
      <trkpt lat="44.96539" lon="0.52968">
        <ele>181.477661</ele>
        <time>2013-03-04T12:04:48Z</time>
      </trkpt>
      <trkpt lat="44.96542" lon="0.52972">
        <ele>181.475403</ele>
        <time>2013-03-04T12:04:50Z</time>
      </trkpt>
      <trkpt lat="44.96547" lon="0.52975">
        <ele>181.442993</ele>
        <time>2013-03-04T12:04:53Z</time>
      </trkpt>
      <trkpt lat="44.96553" lon="0.52981">
        <ele>181.415588</ele>
        <time>2013-03-04T12:04:57Z</time>
      </trkpt>
      <trkpt lat="44.96557" lon="0.52985">
        <ele>181.394958</ele>
        <time>2013-03-04T12:04:58Z</time>
      </trkpt>
      <trkpt lat="44.96561" lon="0.5299">
        <ele>181.372986</ele>
        <time>2013-03-04T12:05:00Z</time>
      </trkpt>
      <trkpt lat="44.96565" lon="0.52994">
        <ele>181.354614</ele>
        <time>2013-03-04T12:05:03Z</time>
      </trkpt>
      <trkpt lat="44.96569" lon="0.53001">
        <ele>181.354004</ele>
        <time>2013-03-04T12:05:04Z</time>
      </trkpt>
      <trkpt lat="44.96572" lon="0.53005">
        <ele>181.356323</ele>
        <time>2013-03-04T12:05:05Z</time>
      </trkpt>
      <trkpt lat="44.96578" lon="0.53013">
        <ele>181.302856</ele>
        <time>2013-03-04T12:05:07Z</time>
      </trkpt>
      <trkpt lat="44.96583" lon="0.53018">
        <ele>181.246521</ele>
        <time>2013-03-04T12:05:08Z</time>
      </trkpt>
      <trkpt lat="44.9659" lon="0.53028">
        <ele>181.041992</ele>
        <time>2013-03-04T12:05:10Z</time>
      </trkpt>
      <trkpt lat="44.96592" lon="0.53035">
        <ele>181.024048</ele>
        <time>2013-03-04T12:05:12Z</time>
      </trkpt>
      <trkpt lat="44.96596" lon="0.53045">
        <ele>181.030151</ele>
        <time>2013-03-04T12:05:13Z</time>
      </trkpt>
      <trkpt lat="44.96596" lon="0.53052">
        <ele>181.107422</ele>
        <time>2013-03-04T12:05:14Z</time>
      </trkpt>
      <trkpt lat="44.96597" lon="0.53064">
        <ele>181.242737</ele>
        <time>2013-03-04T12:05:16Z</time>
      </trkpt>
      <trkpt lat="44.96598" lon="0.53072">
        <ele>181.32251</ele>
        <time>2013-03-04T12:05:18Z</time>
      </trkpt>
      <trkpt lat="44.96599" lon="0.5308">
        <ele>181.383545</ele>
        <time>2013-03-04T12:05:21Z</time>
      </trkpt>
      <trkpt lat="44.96599" lon="0.53089">
        <ele>181.690613</ele>
        <time>2013-03-04T12:05:22Z</time>
      </trkpt>
      <trkpt lat="44.966" lon="0.53098">
        <ele>182.114441</ele>
        <time>2013-03-04T12:05:24Z</time>
      </trkpt>
      <trkpt lat="44.96602" lon="0.53105">
        <ele>182.420593</ele>
        <time>2013-03-04T12:05:26Z</time>
      </trkpt>
      <trkpt lat="44.96605" lon="0.53114">
        <ele>182.773315</ele>
        <time>2013-03-04T12:05:28Z</time>
      </trkpt>
      <trkpt lat="44.96607" lon="0.53123">
        <ele>183.152832</ele>
        <time>2013-03-04T12:05:30Z</time>
      </trkpt>
      <trkpt lat="44.96609" lon="0.53131">
        <ele>183.535095</ele>
        <time>2013-03-04T12:05:32Z</time>
      </trkpt>
      <trkpt lat="44.9661" lon="0.53141">
        <ele>184.003601</ele>
        <time>2013-03-04T12:05:34Z</time>
      </trkpt>
      <trkpt lat="44.96611" lon="0.5315">
        <ele>184.475159</ele>
        <time>2013-03-04T12:05:36Z</time>
      </trkpt>
      <trkpt lat="44.96612" lon="0.53158">
        <ele>184.871765</ele>
        <time>2013-03-04T12:05:38Z</time>
      </trkpt>
      <trkpt lat="44.96613" lon="0.53166">
        <ele>185.256958</ele>
        <time>2013-03-04T12:05:41Z</time>
      </trkpt>
      <trkpt lat="44.96614" lon="0.53173">
        <ele>185.539062</ele>
        <time>2013-03-04T12:05:42Z</time>
      </trkpt>
      <trkpt lat="44.96615" lon="0.5318">
        <ele>185.867249</ele>
        <time>2013-03-04T12:05:46Z</time>
      </trkpt>
      <trkpt lat="44.96616" lon="0.53187">
        <ele>186.124023</ele>
        <time>2013-03-04T12:05:48Z</time>
      </trkpt>
      <trkpt lat="44.96618" lon="0.53195">
        <ele>186.458252</ele>
        <time>2013-03-04T12:05:50Z</time>
      </trkpt>
      <trkpt lat="44.9662" lon="0.53202">
        <ele>186.74823</ele>
        <time>2013-03-04T12:05:53Z</time>
      </trkpt>
      <trkpt lat="44.96622" lon="0.53208">
        <ele>187.018188</ele>
        <time>2013-03-04T12:05:56Z</time>
      </trkpt>
      <trkpt lat="44.96621" lon="0.53216">
        <ele>187.385437</ele>
        <time>2013-03-04T12:05:59Z</time>
      </trkpt>
      <trkpt lat="44.96622" lon="0.53224">
        <ele>187.792664</ele>
        <time>2013-03-04T12:06:02Z</time>
      </trkpt>
      <trkpt lat="44.96624" lon="0.53231">
        <ele>188.090942</ele>
        <time>2013-03-04T12:06:05Z</time>
      </trkpt>
      <trkpt lat="44.96625" lon="0.5324">
        <ele>188.538239</ele>
        <time>2013-03-04T12:06:11Z</time>
      </trkpt>
      <trkpt lat="44.96628" lon="0.53248">
        <ele>188.887512</ele>
        <time>2013-03-04T12:06:14Z</time>
      </trkpt>
      <trkpt lat="44.96629" lon="0.53254">
        <ele>188.939087</ele>
        <time>2013-03-04T12:06:16Z</time>
      </trkpt>
      <trkpt lat="44.96632" lon="0.5326">
        <ele>188.856323</ele>
        <time>2013-03-04T12:06:18Z</time>
      </trkpt>
      <trkpt lat="44.96635" lon="0.53266">
        <ele>188.775879</ele>
        <time>2013-03-04T12:06:21Z</time>
      </trkpt>
      <trkpt lat="44.96639" lon="0.53273">
        <ele>188.716675</ele>
        <time>2013-03-04T12:06:24Z</time>
      </trkpt>
      <trkpt lat="44.96643" lon="0.53281">
        <ele>188.67215</ele>
        <time>2013-03-04T12:06:27Z</time>
      </trkpt>
      <trkpt lat="44.96645" lon="0.53286">
        <ele>188.665894</ele>
        <time>2013-03-04T12:06:29Z</time>
      </trkpt>
      <trkpt lat="44.96649" lon="0.53292">
        <ele>188.669067</ele>
        <time>2013-03-04T12:06:31Z</time>
      </trkpt>
      <trkpt lat="44.96651" lon="0.53298">
        <ele>188.682617</ele>
        <time>2013-03-04T12:06:33Z</time>
      </trkpt>
      <trkpt lat="44.96653" lon="0.53305">
        <ele>188.673859</ele>
        <time>2013-03-04T12:06:37Z</time>
      </trkpt>
      <trkpt lat="44.96655" lon="0.53314">
        <ele>188.682678</ele>
        <time>2013-03-04T12:06:41Z</time>
      </trkpt>
      <trkpt lat="44.96658" lon="0.53322">
        <ele>188.732788</ele>
        <time>2013-03-04T12:06:43Z</time>
      </trkpt>
      <trkpt lat="44.96662" lon="0.5333">
        <ele>188.831116</ele>
        <time>2013-03-04T12:06:45Z</time>
      </trkpt>
      <trkpt lat="44.96666" lon="0.53341">
        <ele>188.711273</ele>
        <time>2013-03-04T12:06:47Z</time>
      </trkpt>
      <trkpt lat="44.96668" lon="0.53348">
        <ele>188.490051</ele>
        <time>2013-03-04T12:06:49Z</time>
      </trkpt>
      <trkpt lat="44.96673" lon="0.53364">
        <ele>188.056396</ele>
        <time>2013-03-04T12:06:50Z</time>
      </trkpt>
      <trkpt lat="44.96676" lon="0.53371">
        <ele>187.888306</ele>
        <time>2013-03-04T12:06:51Z</time>
      </trkpt>
      <trkpt lat="44.96679" lon="0.53378">
        <ele>187.77301</ele>
        <time>2013-03-04T12:06:52Z</time>
      </trkpt>
      <trkpt lat="44.96688" lon="0.53398">
        <ele>187.65564</ele>
        <time>2013-03-04T12:06:54Z</time>
      </trkpt>
      <trkpt lat="44.96691" lon="0.53403">
        <ele>187.737244</ele>
        <time>2013-03-04T12:06:56Z</time>
      </trkpt>
      <trkpt lat="44.96695" lon="0.53416">
        <ele>187.699768</ele>
        <time>2013-03-04T12:06:58Z</time>
      </trkpt>
      <trkpt lat="44.96701" lon="0.53433">
        <ele>188.194702</ele>
        <time>2013-03-04T12:06:59Z</time>
      </trkpt>
      <trkpt lat="44.96705" lon="0.53442">
        <ele>188.474396</ele>
        <time>2013-03-04T12:07:00Z</time>
      </trkpt>
      <trkpt lat="44.96707" lon="0.53449">
        <ele>188.609192</ele>
        <time>2013-03-04T12:07:01Z</time>
      </trkpt>
      <trkpt lat="44.96712" lon="0.53463">
        <ele>188.958923</ele>
        <time>2013-03-04T12:07:03Z</time>
      </trkpt>
      <trkpt lat="44.96715" lon="0.53469">
        <ele>189.161133</ele>
        <time>2013-03-04T12:07:05Z</time>
      </trkpt>
      <trkpt lat="44.96719" lon="0.53483">
        <ele>189.440613</ele>
        <time>2013-03-04T12:07:06Z</time>
      </trkpt>
      <trkpt lat="44.96721" lon="0.53496">
        <ele>189.571014</ele>
        <time>2013-03-04T12:07:08Z</time>
      </trkpt>
      <trkpt lat="44.96721" lon="0.5351">
        <ele>189.706909</ele>
        <time>2013-03-04T12:07:10Z</time>
      </trkpt>
      <trkpt lat="44.96722" lon="0.53521">
        <ele>189.915192</ele>
        <time>2013-03-04T12:07:13Z</time>
      </trkpt>
      <trkpt lat="44.96724" lon="0.53532">
        <ele>190.121887</ele>
        <time>2013-03-04T12:07:14Z</time>
      </trkpt>
      <trkpt lat="44.96725" lon="0.53543">
        <ele>190.258636</ele>
        <time>2013-03-04T12:07:16Z</time>
      </trkpt>
      <trkpt lat="44.96727" lon="0.53554">
        <ele>190.437744</ele>
        <time>2013-03-04T12:07:18Z</time>
      </trkpt>
      <trkpt lat="44.9673" lon="0.53561">
        <ele>190.557495</ele>
        <time>2013-03-04T12:07:20Z</time>
      </trkpt>
      <trkpt lat="44.96731" lon="0.53571">
        <ele>190.661743</ele>
        <time>2013-03-04T12:07:22Z</time>
      </trkpt>
      <trkpt lat="44.96731" lon="0.5358">
        <ele>190.749359</ele>
        <time>2013-03-04T12:07:24Z</time>
      </trkpt>
      <trkpt lat="44.96732" lon="0.53591">
        <ele>190.756958</ele>
        <time>2013-03-04T12:07:26Z</time>
      </trkpt>
      <trkpt lat="44.96733" lon="0.53602">
        <ele>190.742737</ele>
        <time>2013-03-04T12:07:28Z</time>
      </trkpt>
      <trkpt lat="44.96733" lon="0.53608">
        <ele>190.736755</ele>
        <time>2013-03-04T12:07:29Z</time>
      </trkpt>
      <trkpt lat="44.96734" lon="0.53622">
        <ele>190.725555</ele>
        <time>2013-03-04T12:07:31Z</time>
      </trkpt>
      <trkpt lat="44.96735" lon="0.53641">
        <ele>190.696899</ele>
        <time>2013-03-04T12:07:33Z</time>
      </trkpt>
      <trkpt lat="44.96735" lon="0.53647">
        <ele>190.691559</ele>
        <time>2013-03-04T12:07:34Z</time>
      </trkpt>
      <trkpt lat="44.96736" lon="0.53655">
        <ele>190.680817</ele>
        <time>2013-03-04T12:07:36Z</time>
      </trkpt>
      <trkpt lat="44.96735" lon="0.53665">
        <ele>190.653229</ele>
        <time>2013-03-04T12:07:38Z</time>
      </trkpt>
      <trkpt lat="44.96737" lon="0.53681">
        <ele>190.288971</ele>
        <time>2013-03-04T12:07:40Z</time>
      </trkpt>
      <trkpt lat="44.96734" lon="0.537">
        <ele>189.665039</ele>
        <time>2013-03-04T12:07:42Z</time>
      </trkpt>
      <trkpt lat="44.96734" lon="0.53708">
        <ele>189.430542</ele>
        <time>2013-03-04T12:07:43Z</time>
      </trkpt>
      <trkpt lat="44.96733" lon="0.53714">
        <ele>189.229401</ele>
        <time>2013-03-04T12:07:44Z</time>
      </trkpt>
      <trkpt lat="44.96735" lon="0.53732">
        <ele>188.779938</ele>
        <time>2013-03-04T12:07:46Z</time>
      </trkpt>
      <trkpt lat="44.96734" lon="0.53744">
        <ele>188.371552</ele>
        <time>2013-03-04T12:07:48Z</time>
      </trkpt>
      <trkpt lat="44.96734" lon="0.53759">
        <ele>188.108765</ele>
        <time>2013-03-04T12:07:51Z</time>
      </trkpt>
      <trkpt lat="44.96734" lon="0.53774">
        <ele>187.873718</ele>
        <time>2013-03-04T12:07:52Z</time>
      </trkpt>
      <trkpt lat="44.96735" lon="0.53794">
        <ele>187.593567</ele>
        <time>2013-03-04T12:07:54Z</time>
      </trkpt>
      <trkpt lat="44.96734" lon="0.53803">
        <ele>187.447021</ele>
        <time>2013-03-04T12:07:55Z</time>
      </trkpt>
      <trkpt lat="44.96731" lon="0.53818">
        <ele>187.199585</ele>
        <time>2013-03-04T12:07:57Z</time>
      </trkpt>
      <trkpt lat="44.9673" lon="0.53833">
        <ele>187.008545</ele>
        <time>2013-03-04T12:07:59Z</time>
      </trkpt>
      <trkpt lat="44.96731" lon="0.5385">
        <ele>186.33429</ele>
        <time>2013-03-04T12:08:01Z</time>
      </trkpt>
      <trkpt lat="44.96728" lon="0.53866">
        <ele>185.755615</ele>
        <time>2013-03-04T12:08:03Z</time>
      </trkpt>
      <trkpt lat="44.96725" lon="0.53874">
        <ele>185.479675</ele>
        <time>2013-03-04T12:08:04Z</time>
      </trkpt>
      <trkpt lat="44.96724" lon="0.53889">
        <ele>184.941833</ele>
        <time>2013-03-04T12:08:06Z</time>
      </trkpt>
      <trkpt lat="44.96725" lon="0.53897">
        <ele>184.622803</ele>
        <time>2013-03-04T12:08:07Z</time>
      </trkpt>
      <trkpt lat="44.96708" lon="0.53909">
        <ele>184.734558</ele>
        <time>2013-03-04T12:08:09Z</time>
      </trkpt>
      <trkpt lat="44.96708" lon="0.53916">
        <ele>184.535461</ele>
        <time>2013-03-04T12:08:10Z</time>
      </trkpt>
      <trkpt lat="44.96707" lon="0.53924">
        <ele>184.596069</ele>
        <time>2013-03-04T12:08:11Z</time>
      </trkpt>
      <trkpt lat="44.96706" lon="0.53937">
        <ele>184.708801</ele>
        <time>2013-03-04T12:08:13Z</time>
      </trkpt>
      <trkpt lat="44.96705" lon="0.53944">
        <ele>184.772461</ele>
        <time>2013-03-04T12:08:15Z</time>
      </trkpt>
      <trkpt lat="44.96704" lon="0.53961">
        <ele>184.903748</ele>
        <time>2013-03-04T12:08:16Z</time>
      </trkpt>
      <trkpt lat="44.96704" lon="0.53969">
        <ele>184.952271</ele>
        <time>2013-03-04T12:08:18Z</time>
      </trkpt>
      <trkpt lat="44.96704" lon="0.53983">
        <ele>185.018127</ele>
        <time>2013-03-04T12:08:20Z</time>
      </trkpt>
      <trkpt lat="44.96705" lon="0.53999">
        <ele>185.074707</ele>
        <time>2013-03-04T12:08:22Z</time>
      </trkpt>
      <trkpt lat="44.96706" lon="0.54006">
        <ele>185.325439</ele>
        <time>2013-03-04T12:08:23Z</time>
      </trkpt>
      <trkpt lat="44.96707" lon="0.54015">
        <ele>185.763428</ele>
        <time>2013-03-04T12:08:24Z</time>
      </trkpt>
      <trkpt lat="44.96709" lon="0.54026">
        <ele>186.245544</ele>
        <time>2013-03-04T12:08:26Z</time>
      </trkpt>
      <trkpt lat="44.9671" lon="0.54037">
        <ele>186.730652</ele>
        <time>2013-03-04T12:08:28Z</time>
      </trkpt>
      <trkpt lat="44.96712" lon="0.54049">
        <ele>187.327148</ele>
        <time>2013-03-04T12:08:30Z</time>
      </trkpt>
      <trkpt lat="44.96714" lon="0.54059">
        <ele>187.778381</ele>
        <time>2013-03-04T12:08:32Z</time>
      </trkpt>
      <trkpt lat="44.96715" lon="0.54068">
        <ele>188.207916</ele>
        <time>2013-03-04T12:08:34Z</time>
      </trkpt>
      <trkpt lat="44.96717" lon="0.54076">
        <ele>188.626831</ele>
        <time>2013-03-04T12:08:36Z</time>
      </trkpt>
      <trkpt lat="44.96719" lon="0.54085">
        <ele>189.06662</ele>
        <time>2013-03-04T12:08:38Z</time>
      </trkpt>
      <trkpt lat="44.9672" lon="0.54094">
        <ele>189.390015</ele>
        <time>2013-03-04T12:08:40Z</time>
      </trkpt>
      <trkpt lat="44.96723" lon="0.54106">
        <ele>189.829376</ele>
        <time>2013-03-04T12:08:42Z</time>
      </trkpt>
      <trkpt lat="44.96725" lon="0.54118">
        <ele>190.273499</ele>
        <time>2013-03-04T12:08:44Z</time>
      </trkpt>
      <trkpt lat="44.96726" lon="0.54124">
        <ele>190.52774</ele>
        <time>2013-03-04T12:08:45Z</time>
      </trkpt>
      <trkpt lat="44.96728" lon="0.54133">
        <ele>190.926971</ele>
        <time>2013-03-04T12:08:47Z</time>
      </trkpt>
      <trkpt lat="44.96731" lon="0.54146">
        <ele>191.469879</ele>
        <time>2013-03-04T12:08:49Z</time>
      </trkpt>
      <trkpt lat="44.96732" lon="0.54153">
        <ele>191.827393</ele>
        <time>2013-03-04T12:08:51Z</time>
      </trkpt>
      <trkpt lat="44.96734" lon="0.54161">
        <ele>192.184509</ele>
        <time>2013-03-04T12:08:52Z</time>
      </trkpt>
      <trkpt lat="44.96736" lon="0.54166">
        <ele>192.492981</ele>
        <time>2013-03-04T12:08:53Z</time>
      </trkpt>
      <trkpt lat="44.9674" lon="0.54176">
        <ele>192.382996</ele>
        <time>2013-03-04T12:08:55Z</time>
      </trkpt>
      <trkpt lat="44.96745" lon="0.54189">
        <ele>192.260437</ele>
        <time>2013-03-04T12:08:57Z</time>
      </trkpt>
      <trkpt lat="44.96749" lon="0.54199">
        <ele>192.190216</ele>
        <time>2013-03-04T12:08:59Z</time>
      </trkpt>
      <trkpt lat="44.96754" lon="0.54211">
        <ele>192.045532</ele>
        <time>2013-03-04T12:09:01Z</time>
      </trkpt>
      <trkpt lat="44.96759" lon="0.54223">
        <ele>191.975067</ele>
        <time>2013-03-04T12:09:03Z</time>
      </trkpt>
      <trkpt lat="44.96761" lon="0.54229">
        <ele>191.975708</ele>
        <time>2013-03-04T12:09:04Z</time>
      </trkpt>
      <trkpt lat="44.96764" lon="0.54236">
        <ele>192.010559</ele>
        <time>2013-03-04T12:09:05Z</time>
      </trkpt>
      <trkpt lat="44.96769" lon="0.5425">
        <ele>192.168762</ele>
        <time>2013-03-04T12:09:07Z</time>
      </trkpt>
      <trkpt lat="44.96775" lon="0.54263">
        <ele>192.158417</ele>
        <time>2013-03-04T12:09:09Z</time>
      </trkpt>
      <trkpt lat="44.96779" lon="0.54276">
        <ele>192.122009</ele>
        <time>2013-03-04T12:09:11Z</time>
      </trkpt>
      <trkpt lat="44.96782" lon="0.54284">
        <ele>192.098724</ele>
        <time>2013-03-04T12:09:12Z</time>
      </trkpt>
      <trkpt lat="44.96787" lon="0.54298">
        <ele>192.044708</ele>
        <time>2013-03-04T12:09:14Z</time>
      </trkpt>
      <trkpt lat="44.96791" lon="0.5431">
        <ele>191.995056</ele>
        <time>2013-03-04T12:09:16Z</time>
      </trkpt>
      <trkpt lat="44.96795" lon="0.54327">
        <ele>191.88382</ele>
        <time>2013-03-04T12:09:18Z</time>
      </trkpt>
      <trkpt lat="44.96797" lon="0.54334">
        <ele>191.8255</ele>
        <time>2013-03-04T12:09:19Z</time>
      </trkpt>
      <trkpt lat="44.96799" lon="0.54341">
        <ele>191.677002</ele>
        <time>2013-03-04T12:09:20Z</time>
      </trkpt>
      <trkpt lat="44.96801" lon="0.54348">
        <ele>191.515717</ele>
        <time>2013-03-04T12:09:21Z</time>
      </trkpt>
      <trkpt lat="44.96804" lon="0.54366">
        <ele>191.075928</ele>
        <time>2013-03-04T12:09:23Z</time>
      </trkpt>
      <trkpt lat="44.96805" lon="0.54375">
        <ele>190.830566</ele>
        <time>2013-03-04T12:09:24Z</time>
      </trkpt>
      <trkpt lat="44.96806" lon="0.54386">
        <ele>190.464752</ele>
        <time>2013-03-04T12:09:26Z</time>
      </trkpt>
      <trkpt lat="44.96806" lon="0.54393">
        <ele>190.230988</ele>
        <time>2013-03-04T12:09:28Z</time>
      </trkpt>
      <trkpt lat="44.96815" lon="0.54411">
        <ele>190.108612</ele>
        <time>2013-03-04T12:09:31Z</time>
      </trkpt>
      <trkpt lat="44.96823" lon="0.54415">
        <ele>190.464172</ele>
        <time>2013-03-04T12:09:33Z</time>
      </trkpt>
      <trkpt lat="44.96832" lon="0.54419">
        <ele>190.795715</ele>
        <time>2013-03-04T12:09:35Z</time>
      </trkpt>
      <trkpt lat="44.96838" lon="0.54422">
        <ele>190.236664</ele>
        <time>2013-03-04T12:09:36Z</time>
      </trkpt>
      <trkpt lat="44.96849" lon="0.54427">
        <ele>189.011292</ele>
        <time>2013-03-04T12:09:38Z</time>
      </trkpt>
      <trkpt lat="44.96859" lon="0.54432">
        <ele>187.998352</ele>
        <time>2013-03-04T12:09:39Z</time>
      </trkpt>
      <trkpt lat="44.96871" lon="0.54439">
        <ele>186.767822</ele>
        <time>2013-03-04T12:09:41Z</time>
      </trkpt>
      <trkpt lat="44.96878" lon="0.54443">
        <ele>186.130859</ele>
        <time>2013-03-04T12:09:42Z</time>
      </trkpt>
      <trkpt lat="44.96885" lon="0.54446">
        <ele>185.605957</ele>
        <time>2013-03-04T12:09:43Z</time>
      </trkpt>
      <trkpt lat="44.96891" lon="0.5445">
        <ele>185.099365</ele>
        <time>2013-03-04T12:09:45Z</time>
      </trkpt>
      <trkpt lat="44.96899" lon="0.54455">
        <ele>184.577881</ele>
        <time>2013-03-04T12:09:46Z</time>
      </trkpt>
      <trkpt lat="44.96906" lon="0.54459">
        <ele>184.163879</ele>
        <time>2013-03-04T12:09:47Z</time>
      </trkpt>
      <trkpt lat="44.96917" lon="0.54466">
        <ele>183.5578</ele>
        <time>2013-03-04T12:09:48Z</time>
      </trkpt>
      <trkpt lat="44.96925" lon="0.54472">
        <ele>183.159302</ele>
        <time>2013-03-04T12:09:49Z</time>
      </trkpt>
      <trkpt lat="44.96937" lon="0.5448">
        <ele>182.695129</ele>
        <time>2013-03-04T12:09:51Z</time>
      </trkpt>
      <trkpt lat="44.96943" lon="0.54484">
        <ele>182.525024</ele>
        <time>2013-03-04T12:09:53Z</time>
      </trkpt>
      <trkpt lat="44.96951" lon="0.5449">
        <ele>182.368408</ele>
        <time>2013-03-04T12:09:55Z</time>
      </trkpt>
      <trkpt lat="44.96956" lon="0.54494">
        <ele>182.314941</ele>
        <time>2013-03-04T12:09:56Z</time>
      </trkpt>
      <trkpt lat="44.96963" lon="0.54499">
        <ele>182.293884</ele>
        <time>2013-03-04T12:09:58Z</time>
      </trkpt>
      <trkpt lat="44.96973" lon="0.54506">
        <ele>181.808899</ele>
        <time>2013-03-04T12:10:00Z</time>
      </trkpt>
      <trkpt lat="44.9698" lon="0.54511">
        <ele>181.469543</ele>
        <time>2013-03-04T12:10:02Z</time>
      </trkpt>
      <trkpt lat="44.9699" lon="0.54519">
        <ele>181.022888</ele>
        <time>2013-03-04T12:10:04Z</time>
      </trkpt>
      <trkpt lat="44.96999" lon="0.54525">
        <ele>180.732422</ele>
        <time>2013-03-04T12:10:07Z</time>
      </trkpt>
      <trkpt lat="44.97007" lon="0.54531">
        <ele>180.177673</ele>
        <time>2013-03-04T12:10:08Z</time>
      </trkpt>
      <trkpt lat="44.97014" lon="0.54536">
        <ele>179.651123</ele>
        <time>2013-03-04T12:10:09Z</time>
      </trkpt>
      <trkpt lat="44.97025" lon="0.54543">
        <ele>178.853088</ele>
        <time>2013-03-04T12:10:11Z</time>
      </trkpt>
      <trkpt lat="44.97039" lon="0.54551">
        <ele>177.879883</ele>
        <time>2013-03-04T12:10:13Z</time>
      </trkpt>
      <trkpt lat="44.97046" lon="0.54555">
        <ele>177.413269</ele>
        <time>2013-03-04T12:10:14Z</time>
      </trkpt>
      <trkpt lat="44.97062" lon="0.54564">
        <ele>176.324585</ele>
        <time>2013-03-04T12:10:16Z</time>
      </trkpt>
      <trkpt lat="44.9707" lon="0.54568">
        <ele>175.850098</ele>
        <time>2013-03-04T12:10:17Z</time>
      </trkpt>
      <trkpt lat="44.97077" lon="0.54572">
        <ele>175.420837</ele>
        <time>2013-03-04T12:10:18Z</time>
      </trkpt>
      <trkpt lat="44.97094" lon="0.54581">
        <ele>173.947571</ele>
        <time>2013-03-04T12:10:20Z</time>
      </trkpt>
      <trkpt lat="44.97103" lon="0.54586">
        <ele>172.84967</ele>
        <time>2013-03-04T12:10:21Z</time>
      </trkpt>
      <trkpt lat="44.97111" lon="0.54589">
        <ele>171.772339</ele>
        <time>2013-03-04T12:10:22Z</time>
      </trkpt>
      <trkpt lat="44.97125" lon="0.54596">
        <ele>169.856934</ele>
        <time>2013-03-04T12:10:24Z</time>
      </trkpt>
      <trkpt lat="44.97136" lon="0.54601">
        <ele>168.504333</ele>
        <time>2013-03-04T12:10:26Z</time>
      </trkpt>
      <trkpt lat="44.97146" lon="0.54605">
        <ele>167.28064</ele>
        <time>2013-03-04T12:10:28Z</time>
      </trkpt>
      <trkpt lat="44.97152" lon="0.54607">
        <ele>166.517578</ele>
        <time>2013-03-04T12:10:30Z</time>
      </trkpt>
      <trkpt lat="44.97157" lon="0.5458">
        <ele>167.68335</ele>
        <time>2013-03-04T12:10:31Z</time>
      </trkpt>
      <trkpt lat="44.97161" lon="0.54574">
        <ele>166.852295</ele>
        <time>2013-03-04T12:10:33Z</time>
      </trkpt>
      <trkpt lat="44.97166" lon="0.54566">
        <ele>165.841736</ele>
        <time>2013-03-04T12:10:35Z</time>
      </trkpt>
      <trkpt lat="44.97177" lon="0.54558">
        <ele>164.388733</ele>
        <time>2013-03-04T12:10:37Z</time>
      </trkpt>
      <trkpt lat="44.97187" lon="0.54558">
        <ele>163.712219</ele>
        <time>2013-03-04T12:10:38Z</time>
      </trkpt>
      <trkpt lat="44.97197" lon="0.54562">
        <ele>163.313721</ele>
        <time>2013-03-04T12:10:40Z</time>
      </trkpt>
      <trkpt lat="44.97203" lon="0.54561">
        <ele>162.72937</ele>
        <time>2013-03-04T12:10:41Z</time>
      </trkpt>
      <trkpt lat="44.97215" lon="0.54566">
        <ele>162.379211</ele>
        <time>2013-03-04T12:10:43Z</time>
      </trkpt>
      <trkpt lat="44.9722" lon="0.54564">
        <ele>161.85498</ele>
        <time>2013-03-04T12:10:44Z</time>
      </trkpt>
      <trkpt lat="44.97226" lon="0.54563">
        <ele>161.236145</ele>
        <time>2013-03-04T12:10:45Z</time>
      </trkpt>
      <trkpt lat="44.97236" lon="0.54562">
        <ele>160.489929</ele>
        <time>2013-03-04T12:10:47Z</time>
      </trkpt>
      <trkpt lat="44.97243" lon="0.54587">
        <ele>162.411621</ele>
        <time>2013-03-04T12:10:49Z</time>
      </trkpt>
      <trkpt lat="44.97248" lon="0.54589">
        <ele>162.114136</ele>
        <time>2013-03-04T12:10:50Z</time>
      </trkpt>
      <trkpt lat="44.97253" lon="0.54592">
        <ele>161.807861</ele>
        <time>2013-03-04T12:10:51Z</time>
      </trkpt>
      <trkpt lat="44.97263" lon="0.54598">
        <ele>161.049866</ele>
        <time>2013-03-04T12:10:53Z</time>
      </trkpt>
      <trkpt lat="44.9727" lon="0.54602">
        <ele>160.582214</ele>
        <time>2013-03-04T12:10:55Z</time>
      </trkpt>
      <trkpt lat="44.97278" lon="0.54608">
        <ele>160.145203</ele>
        <time>2013-03-04T12:10:57Z</time>
      </trkpt>
      <trkpt lat="44.97284" lon="0.54613">
        <ele>159.905273</ele>
        <time>2013-03-04T12:10:58Z</time>
      </trkpt>
      <trkpt lat="44.97288" lon="0.54618">
        <ele>159.751099</ele>
        <time>2013-03-04T12:11:00Z</time>
      </trkpt>
      <trkpt lat="44.97292" lon="0.54622">
        <ele>159.644165</ele>
        <time>2013-03-04T12:11:01Z</time>
      </trkpt>
      <trkpt lat="44.97299" lon="0.5463">
        <ele>159.563599</ele>
        <time>2013-03-04T12:11:02Z</time>
      </trkpt>
      <trkpt lat="44.97306" lon="0.54642">
        <ele>159.698669</ele>
        <time>2013-03-04T12:11:04Z</time>
      </trkpt>
      <trkpt lat="44.97308" lon="0.54649">
        <ele>159.847473</ele>
        <time>2013-03-04T12:11:05Z</time>
      </trkpt>
      <trkpt lat="44.97311" lon="0.54658">
        <ele>160.137329</ele>
        <time>2013-03-04T12:11:06Z</time>
      </trkpt>
      <trkpt lat="44.97327" lon="0.54669">
        <ele>160.006897</ele>
        <time>2013-03-04T12:11:08Z</time>
      </trkpt>
      <trkpt lat="44.97333" lon="0.54672">
        <ele>159.71875</ele>
        <time>2013-03-04T12:11:09Z</time>
      </trkpt>
      <trkpt lat="44.9734" lon="0.54674">
        <ele>159.136963</ele>
        <time>2013-03-04T12:11:10Z</time>
      </trkpt>
      <trkpt lat="44.97345" lon="0.54676">
        <ele>158.660156</ele>
        <time>2013-03-04T12:11:11Z</time>
      </trkpt>
      <trkpt lat="44.97352" lon="0.54678">
        <ele>158.106018</ele>
        <time>2013-03-04T12:11:12Z</time>
      </trkpt>
      <trkpt lat="44.97363" lon="0.54683">
        <ele>157.184631</ele>
        <time>2013-03-04T12:11:14Z</time>
      </trkpt>
      <trkpt lat="44.97372" lon="0.54687">
        <ele>156.499817</ele>
        <time>2013-03-04T12:11:15Z</time>
      </trkpt>
      <trkpt lat="44.9738" lon="0.5469">
        <ele>155.864807</ele>
        <time>2013-03-04T12:11:17Z</time>
      </trkpt>
      <trkpt lat="44.97397" lon="0.54698">
        <ele>154.702148</ele>
        <time>2013-03-04T12:11:19Z</time>
      </trkpt>
      <trkpt lat="44.97402" lon="0.54701">
        <ele>154.335876</ele>
        <time>2013-03-04T12:11:20Z</time>
      </trkpt>
      <trkpt lat="44.97411" lon="0.54705">
        <ele>153.851318</ele>
        <time>2013-03-04T12:11:22Z</time>
      </trkpt>
      <trkpt lat="44.97426" lon="0.54712">
        <ele>152.87207</ele>
        <time>2013-03-04T12:11:23Z</time>
      </trkpt>
      <trkpt lat="44.97434" lon="0.54715">
        <ele>152.437256</ele>
        <time>2013-03-04T12:11:24Z</time>
      </trkpt>
      <trkpt lat="44.97439" lon="0.54717">
        <ele>152.170898</ele>
        <time>2013-03-04T12:11:25Z</time>
      </trkpt>
      <trkpt lat="44.97446" lon="0.54719">
        <ele>151.843933</ele>
        <time>2013-03-04T12:11:26Z</time>
      </trkpt>
      <trkpt lat="44.97456" lon="0.54722">
        <ele>151.436646</ele>
        <time>2013-03-04T12:11:28Z</time>
      </trkpt>
      <trkpt lat="44.97486" lon="0.54726">
        <ele>150.287598</ele>
        <time>2013-03-04T12:11:32Z</time>
      </trkpt>
      <trkpt lat="44.97499" lon="0.54726">
        <ele>149.723694</ele>
        <time>2013-03-04T12:11:34Z</time>
      </trkpt>
      <trkpt lat="44.97505" lon="0.54724">
        <ele>148.836365</ele>
        <time>2013-03-04T12:11:35Z</time>
      </trkpt>
      <trkpt lat="44.97512" lon="0.54726">
        <ele>148.123047</ele>
        <time>2013-03-04T12:11:36Z</time>
      </trkpt>
      <trkpt lat="44.97518" lon="0.54726">
        <ele>147.280151</ele>
        <time>2013-03-04T12:11:37Z</time>
      </trkpt>
      <trkpt lat="44.97523" lon="0.54725">
        <ele>146.558472</ele>
        <time>2013-03-04T12:11:38Z</time>
      </trkpt>
      <trkpt lat="44.9753" lon="0.54724">
        <ele>145.635742</ele>
        <time>2013-03-04T12:11:39Z</time>
      </trkpt>
      <trkpt lat="44.97544" lon="0.5473">
        <ele>144.38385</ele>
        <time>2013-03-04T12:11:42Z</time>
      </trkpt>
      <trkpt lat="44.97549" lon="0.54732">
        <ele>143.739136</ele>
        <time>2013-03-04T12:11:43Z</time>
      </trkpt>
      <trkpt lat="44.97564" lon="0.54736">
        <ele>142.239014</ele>
        <time>2013-03-04T12:11:44Z</time>
      </trkpt>
      <trkpt lat="44.9757" lon="0.54737">
        <ele>141.585693</ele>
        <time>2013-03-04T12:11:45Z</time>
      </trkpt>
      <trkpt lat="44.97581" lon="0.5474">
        <ele>140.379272</ele>
        <time>2013-03-04T12:11:47Z</time>
      </trkpt>
      <trkpt lat="44.97591" lon="0.54745">
        <ele>139.30835</ele>
        <time>2013-03-04T12:11:49Z</time>
      </trkpt>
      <trkpt lat="44.97599" lon="0.54751">
        <ele>138.408081</ele>
        <time>2013-03-04T12:11:51Z</time>
      </trkpt>
      <trkpt lat="44.97604" lon="0.54754">
        <ele>137.58429</ele>
        <time>2013-03-04T12:11:52Z</time>
      </trkpt>
      <trkpt lat="44.97608" lon="0.54757">
        <ele>136.821594</ele>
        <time>2013-03-04T12:11:53Z</time>
      </trkpt>
      <trkpt lat="44.97613" lon="0.54761">
        <ele>136.043213</ele>
        <time>2013-03-04T12:11:54Z</time>
      </trkpt>
      <trkpt lat="44.97623" lon="0.54767">
        <ele>134.566528</ele>
        <time>2013-03-04T12:11:56Z</time>
      </trkpt>
      <trkpt lat="44.97628" lon="0.54772">
        <ele>133.740601</ele>
        <time>2013-03-04T12:11:57Z</time>
      </trkpt>
      <trkpt lat="44.97638" lon="0.54776">
        <ele>132.341125</ele>
        <time>2013-03-04T12:11:59Z</time>
      </trkpt>
      <trkpt lat="44.97643" lon="0.54779">
        <ele>131.684753</ele>
        <time>2013-03-04T12:12:01Z</time>
      </trkpt>
      <trkpt lat="44.97647" lon="0.54782">
        <ele>131.095337</ele>
        <time>2013-03-04T12:12:02Z</time>
      </trkpt>
      <trkpt lat="44.97656" lon="0.54777">
        <ele>129.603149</ele>
        <time>2013-03-04T12:12:04Z</time>
      </trkpt>
      <trkpt lat="44.9766" lon="0.5477">
        <ele>128.703125</ele>
        <time>2013-03-04T12:12:05Z</time>
      </trkpt>
      <trkpt lat="44.97667" lon="0.54764">
        <ele>127.49469</ele>
        <time>2013-03-04T12:12:07Z</time>
      </trkpt>
      <trkpt lat="44.97673" lon="0.54752">
        <ele>127.00708</ele>
        <time>2013-03-04T12:12:10Z</time>
      </trkpt>
      <trkpt lat="44.97682" lon="0.54739">
        <ele>127.089233</ele>
        <time>2013-03-04T12:12:11Z</time>
      </trkpt>
      <trkpt lat="44.97685" lon="0.5473">
        <ele>127.259277</ele>
        <time>2013-03-04T12:12:12Z</time>
      </trkpt>
      <trkpt lat="44.97688" lon="0.54722">
        <ele>127.417236</ele>
        <time>2013-03-04T12:12:13Z</time>
      </trkpt>
      <trkpt lat="44.97691" lon="0.54714">
        <ele>127.571899</ele>
        <time>2013-03-04T12:12:14Z</time>
      </trkpt>
      <trkpt lat="44.97695" lon="0.547">
        <ele>127.868164</ele>
        <time>2013-03-04T12:12:16Z</time>
      </trkpt>
      <trkpt lat="44.97699" lon="0.54693">
        <ele>127.977234</ele>
        <time>2013-03-04T12:12:17Z</time>
      </trkpt>
      <trkpt lat="44.97702" lon="0.54686">
        <ele>128.11731</ele>
        <time>2013-03-04T12:12:18Z</time>
      </trkpt>
      <trkpt lat="44.97704" lon="0.54677">
        <ele>128.304016</ele>
        <time>2013-03-04T12:12:20Z</time>
      </trkpt>
      <trkpt lat="44.97709" lon="0.54663">
        <ele>128.757507</ele>
        <time>2013-03-04T12:12:22Z</time>
      </trkpt>
      <trkpt lat="44.97714" lon="0.54661">
        <ele>128.851624</ele>
        <time>2013-03-04T12:12:25Z</time>
      </trkpt>
      <trkpt lat="44.97719" lon="0.54656">
        <ele>129.219666</ele>
        <time>2013-03-04T12:12:27Z</time>
      </trkpt>
      <trkpt lat="44.97726" lon="0.5465">
        <ele>129.681458</ele>
        <time>2013-03-04T12:12:29Z</time>
      </trkpt>
      <trkpt lat="44.97739" lon="0.54644">
        <ele>130.184143</ele>
        <time>2013-03-04T12:12:31Z</time>
      </trkpt>
      <trkpt lat="44.97745" lon="0.54637">
        <ele>130.822388</ele>
        <time>2013-03-04T12:12:33Z</time>
      </trkpt>
      <trkpt lat="44.97749" lon="0.54634">
        <ele>131.109436</ele>
        <time>2013-03-04T12:12:34Z</time>
      </trkpt>
      <trkpt lat="44.97755" lon="0.54628">
        <ele>131.73468</ele>
        <time>2013-03-04T12:12:36Z</time>
      </trkpt>
      <trkpt lat="44.97762" lon="0.54623">
        <ele>132.277588</ele>
        <time>2013-03-04T12:12:38Z</time>
      </trkpt>
      <trkpt lat="44.97769" lon="0.5462">
        <ele>132.67395</ele>
        <time>2013-03-04T12:12:40Z</time>
      </trkpt>
      <trkpt lat="44.97776" lon="0.54617">
        <ele>133.036743</ele>
        <time>2013-03-04T12:12:42Z</time>
      </trkpt>
      <trkpt lat="44.97784" lon="0.54615">
        <ele>133.323181</ele>
        <time>2013-03-04T12:12:44Z</time>
      </trkpt>
      <trkpt lat="44.97793" lon="0.54614">
        <ele>133.520081</ele>
        <time>2013-03-04T12:12:46Z</time>
      </trkpt>
      <trkpt lat="44.97801" lon="0.54614">
        <ele>133.596558</ele>
        <time>2013-03-04T12:12:48Z</time>
      </trkpt>
      <trkpt lat="44.97808" lon="0.54615">
        <ele>133.529663</ele>
        <time>2013-03-04T12:12:50Z</time>
      </trkpt>
      <trkpt lat="44.97814" lon="0.54616">
        <ele>133.554443</ele>
        <time>2013-03-04T12:12:52Z</time>
      </trkpt>
      <trkpt lat="44.9782" lon="0.54616">
        <ele>133.532104</ele>
        <time>2013-03-04T12:12:54Z</time>
      </trkpt>
      <trkpt lat="44.97826" lon="0.54619">
        <ele>133.293152</ele>
        <time>2013-03-04T12:12:55Z</time>
      </trkpt>
      <trkpt lat="44.97834" lon="0.54621">
        <ele>133.061951</ele>
        <time>2013-03-04T12:12:57Z</time>
      </trkpt>
      <trkpt lat="44.97843" lon="0.54624">
        <ele>132.892334</ele>
        <time>2013-03-04T12:12:59Z</time>
      </trkpt>
      <trkpt lat="44.97851" lon="0.54627">
        <ele>132.692566</ele>
        <time>2013-03-04T12:13:01Z</time>
      </trkpt>
      <trkpt lat="44.97859" lon="0.54629">
        <ele>132.666016</ele>
        <time>2013-03-04T12:13:03Z</time>
      </trkpt>
      <trkpt lat="44.97863" lon="0.5463">
        <ele>132.685059</ele>
        <time>2013-03-04T12:13:04Z</time>
      </trkpt>
      <trkpt lat="44.97868" lon="0.54631">
        <ele>132.62677</ele>
        <time>2013-03-04T12:13:05Z</time>
      </trkpt>
      <trkpt lat="44.97876" lon="0.54632">
        <ele>132.674561</ele>
        <time>2013-03-04T12:13:07Z</time>
      </trkpt>
      <trkpt lat="44.97884" lon="0.54631">
        <ele>133.128418</ele>
        <time>2013-03-04T12:13:09Z</time>
      </trkpt>
      <trkpt lat="44.97891" lon="0.5463">
        <ele>133.4151</ele>
        <time>2013-03-04T12:13:12Z</time>
      </trkpt>
      <trkpt lat="44.97899" lon="0.54633">
        <ele>133.240112</ele>
        <time>2013-03-04T12:13:14Z</time>
      </trkpt>
      <trkpt lat="44.97906" lon="0.54635">
        <ele>133.12738</ele>
        <time>2013-03-04T12:13:15Z</time>
      </trkpt>
      <trkpt lat="44.97912" lon="0.54636">
        <ele>133.120178</ele>
        <time>2013-03-04T12:13:18Z</time>
      </trkpt>
      <trkpt lat="44.97918" lon="0.54636">
        <ele>133.184387</ele>
        <time>2013-03-04T12:13:19Z</time>
      </trkpt>
      <trkpt lat="44.97925" lon="0.54638">
        <ele>133.196472</ele>
        <time>2013-03-04T12:13:21Z</time>
      </trkpt>
      <trkpt lat="44.97931" lon="0.54639">
        <ele>133.267944</ele>
        <time>2013-03-04T12:13:23Z</time>
      </trkpt>
      <trkpt lat="44.97938" lon="0.54643">
        <ele>133.064819</ele>
        <time>2013-03-04T12:13:25Z</time>
      </trkpt>
      <trkpt lat="44.97944" lon="0.54654">
        <ele>131.707886</ele>
        <time>2013-03-04T12:13:26Z</time>
      </trkpt>
      <trkpt lat="44.97952" lon="0.54661">
        <ele>131.279114</ele>
        <time>2013-03-04T12:13:28Z</time>
      </trkpt>
      <trkpt lat="44.97957" lon="0.54667">
        <ele>130.819275</ele>
        <time>2013-03-04T12:13:30Z</time>
      </trkpt>
      <trkpt lat="44.97961" lon="0.54677">
        <ele>130.129333</ele>
        <time>2013-03-04T12:13:32Z</time>
      </trkpt>
      <trkpt lat="44.97964" lon="0.54689">
        <ele>129.168457</ele>
        <time>2013-03-04T12:13:34Z</time>
      </trkpt>
      <trkpt lat="44.97964" lon="0.54697">
        <ele>128.448425</ele>
        <time>2013-03-04T12:13:35Z</time>
      </trkpt>
      <trkpt lat="44.97965" lon="0.54711">
        <ele>127.046997</ele>
        <time>2013-03-04T12:13:37Z</time>
      </trkpt>
      <trkpt lat="44.9797" lon="0.54721">
        <ele>126.250366</ele>
        <time>2013-03-04T12:13:39Z</time>
      </trkpt>
      <trkpt lat="44.97978" lon="0.54729">
        <ele>125.661743</ele>
        <time>2013-03-04T12:13:41Z</time>
      </trkpt>
      <trkpt lat="44.97984" lon="0.54737">
        <ele>125.072083</ele>
        <time>2013-03-04T12:13:44Z</time>
      </trkpt>
      <trkpt lat="44.97993" lon="0.54741">
        <ele>124.844788</ele>
        <time>2013-03-04T12:13:46Z</time>
      </trkpt>
      <trkpt lat="44.98002" lon="0.54746">
        <ele>124.426819</ele>
        <time>2013-03-04T12:13:47Z</time>
      </trkpt>
      <trkpt lat="44.98008" lon="0.5474">
        <ele>125.07959</ele>
        <time>2013-03-04T12:13:49Z</time>
      </trkpt>
      <trkpt lat="44.98016" lon="0.54739">
        <ele>125.121765</ele>
        <time>2013-03-04T12:13:51Z</time>
      </trkpt>
      <trkpt lat="44.98024" lon="0.5474">
        <ele>124.931519</ele>
        <time>2013-03-04T12:13:54Z</time>
      </trkpt>
      <trkpt lat="44.98031" lon="0.54739">
        <ele>124.9198</ele>
        <time>2013-03-04T12:13:55Z</time>
      </trkpt>
      <trkpt lat="44.98037" lon="0.54742">
        <ele>124.533508</ele>
        <time>2013-03-04T12:13:58Z</time>
      </trkpt>
      <trkpt lat="44.98038" lon="0.54751">
        <ele>123.541809</ele>
        <time>2013-03-04T12:14:01Z</time>
      </trkpt>
      <trkpt lat="44.98038" lon="0.5476">
        <ele>123.485229</ele>
        <time>2013-03-04T12:14:02Z</time>
      </trkpt>
      <trkpt lat="44.98038" lon="0.54767">
        <ele>123.455261</ele>
        <time>2013-03-04T12:14:03Z</time>
      </trkpt>
      <trkpt lat="44.98037" lon="0.54778">
        <ele>123.409119</ele>
        <time>2013-03-04T12:14:05Z</time>
      </trkpt>
      <trkpt lat="44.98036" lon="0.54791">
        <ele>123.353638</ele>
        <time>2013-03-04T12:14:07Z</time>
      </trkpt>
      <trkpt lat="44.98035" lon="0.5481">
        <ele>123.284729</ele>
        <time>2013-03-04T12:14:09Z</time>
      </trkpt>
      <trkpt lat="44.98033" lon="0.54822">
        <ele>123.26123</ele>
        <time>2013-03-04T12:14:11Z</time>
      </trkpt>
      <trkpt lat="44.98031" lon="0.54833">
        <ele>123.252808</ele>
        <time>2013-03-04T12:14:13Z</time>
      </trkpt>
      <trkpt lat="44.9803" lon="0.54843">
        <ele>123.473389</ele>
        <time>2013-03-04T12:14:15Z</time>
      </trkpt>
      <trkpt lat="44.98029" lon="0.5485">
        <ele>123.642456</ele>
        <time>2013-03-04T12:14:17Z</time>
      </trkpt>
      <trkpt lat="44.98029" lon="0.5486">
        <ele>123.850403</ele>
        <time>2013-03-04T12:14:19Z</time>
      </trkpt>
      <trkpt lat="44.98036" lon="0.54857">
        <ele>123.560425</ele>
        <time>2013-03-04T12:14:21Z</time>
      </trkpt>
      <trkpt lat="44.98041" lon="0.54862">
        <ele>123.526245</ele>
        <time>2013-03-04T12:14:25Z</time>
      </trkpt>
      <trkpt lat="44.98047" lon="0.54865">
        <ele>123.421936</ele>
        <time>2013-03-04T12:14:26Z</time>
      </trkpt>
      <trkpt lat="44.98052" lon="0.54868">
        <ele>123.335388</ele>
        <time>2013-03-04T12:14:28Z</time>
      </trkpt>
      <trkpt lat="44.98058" lon="0.54872">
        <ele>123.213013</ele>
        <time>2013-03-04T12:14:30Z</time>
      </trkpt>
      <trkpt lat="44.98067" lon="0.54876">
        <ele>123.017029</ele>
        <time>2013-03-04T12:14:32Z</time>
      </trkpt>
      <trkpt lat="44.98074" lon="0.5488">
        <ele>122.852417</ele>
        <time>2013-03-04T12:14:33Z</time>
      </trkpt>
      <trkpt lat="44.98083" lon="0.54882">
        <ele>122.58844</ele>
        <time>2013-03-04T12:14:35Z</time>
      </trkpt>
      <trkpt lat="44.98092" lon="0.54885">
        <ele>122.775146</ele>
        <time>2013-03-04T12:14:37Z</time>
      </trkpt>
      <trkpt lat="44.98097" lon="0.54888">
        <ele>122.917725</ele>
        <time>2013-03-04T12:14:38Z</time>
      </trkpt>
      <trkpt lat="44.98107" lon="0.5489">
        <ele>123.165833</ele>
        <time>2013-03-04T12:14:40Z</time>
      </trkpt>
      <trkpt lat="44.98114" lon="0.54893">
        <ele>123.39325</ele>
        <time>2013-03-04T12:14:41Z</time>
      </trkpt>
      <trkpt lat="44.98119" lon="0.54894">
        <ele>123.531921</ele>
        <time>2013-03-04T12:14:43Z</time>
      </trkpt>
      <trkpt lat="44.98127" lon="0.54901">
        <ele>123.99115</ele>
        <time>2013-03-04T12:14:44Z</time>
      </trkpt>
      <trkpt lat="44.98135" lon="0.54902">
        <ele>124.239624</ele>
        <time>2013-03-04T12:14:46Z</time>
      </trkpt>
      <trkpt lat="44.98145" lon="0.54902">
        <ele>124.5224</ele>
        <time>2013-03-04T12:14:48Z</time>
      </trkpt>
      <trkpt lat="44.98152" lon="0.54903">
        <ele>124.724915</ele>
        <time>2013-03-04T12:14:51Z</time>
      </trkpt>
      <trkpt lat="44.98157" lon="0.54903">
        <ele>124.879089</ele>
        <time>2013-03-04T12:14:52Z</time>
      </trkpt>
      <trkpt lat="44.98163" lon="0.54903">
        <ele>125.061768</ele>
        <time>2013-03-04T12:14:53Z</time>
      </trkpt>
      <trkpt lat="44.98177" lon="0.54902">
        <ele>125.422241</ele>
        <time>2013-03-04T12:14:55Z</time>
      </trkpt>
      <trkpt lat="44.98183" lon="0.54902">
        <ele>125.593384</ele>
        <time>2013-03-04T12:14:58Z</time>
      </trkpt>
      <trkpt lat="44.98189" lon="0.54902">
        <ele>125.732178</ele>
        <time>2013-03-04T12:15:00Z</time>
      </trkpt>
      <trkpt lat="44.98197" lon="0.54903">
        <ele>125.995667</ele>
        <time>2013-03-04T12:15:02Z</time>
      </trkpt>
      <trkpt lat="44.98202" lon="0.54903">
        <ele>126.158936</ele>
        <time>2013-03-04T12:15:04Z</time>
      </trkpt>
      <trkpt lat="44.98208" lon="0.54904">
        <ele>126.413879</ele>
        <time>2013-03-04T12:15:06Z</time>
      </trkpt>
      <trkpt lat="44.98215" lon="0.54906">
        <ele>126.800781</ele>
        <time>2013-03-04T12:15:08Z</time>
      </trkpt>
      <trkpt lat="44.98224" lon="0.5491">
        <ele>127.42157</ele>
        <time>2013-03-04T12:15:10Z</time>
      </trkpt>
      <trkpt lat="44.98236" lon="0.54915">
        <ele>128.276917</ele>
        <time>2013-03-04T12:15:12Z</time>
      </trkpt>
      <trkpt lat="44.98242" lon="0.54919">
        <ele>128.945801</ele>
        <time>2013-03-04T12:15:14Z</time>
      </trkpt>
      <trkpt lat="44.98268" lon="0.54881">
        <ele>125.41449</ele>
        <time>2013-03-04T12:15:17Z</time>
      </trkpt>
      <trkpt lat="44.98272" lon="0.54878">
        <ele>125.127075</ele>
        <time>2013-03-04T12:15:18Z</time>
      </trkpt>
      <trkpt lat="44.98279" lon="0.54879">
        <ele>125.384583</ele>
        <time>2013-03-04T12:15:21Z</time>
      </trkpt>
      <trkpt lat="44.98285" lon="0.54877">
        <ele>125.219238</ele>
        <time>2013-03-04T12:15:22Z</time>
      </trkpt>
      <trkpt lat="44.98293" lon="0.54876">
        <ele>125.090271</ele>
        <time>2013-03-04T12:15:24Z</time>
      </trkpt>
      <trkpt lat="44.983" lon="0.54874">
        <ele>124.988159</ele>
        <time>2013-03-04T12:15:26Z</time>
      </trkpt>
      <trkpt lat="44.98306" lon="0.54874">
        <ele>124.959473</ele>
        <time>2013-03-04T12:15:28Z</time>
      </trkpt>
      <trkpt lat="44.98313" lon="0.54872">
        <ele>124.826965</ele>
        <time>2013-03-04T12:15:30Z</time>
      </trkpt>
      <trkpt lat="44.98321" lon="0.54869">
        <ele>124.52179</ele>
        <time>2013-03-04T12:15:33Z</time>
      </trkpt>
      <trkpt lat="44.98339" lon="0.5487">
        <ele>124.46814</ele>
        <time>2013-03-04T12:15:34Z</time>
      </trkpt>
      <trkpt lat="44.98346" lon="0.54866">
        <ele>123.633545</ele>
        <time>2013-03-04T12:15:36Z</time>
      </trkpt>
      <trkpt lat="44.98351" lon="0.54865">
        <ele>123.377502</ele>
        <time>2013-03-04T12:15:37Z</time>
      </trkpt>
      <trkpt lat="44.98361" lon="0.54863">
        <ele>122.811462</ele>
        <time>2013-03-04T12:15:40Z</time>
      </trkpt>
      <trkpt lat="44.98372" lon="0.54855">
        <ele>121.487305</ele>
        <time>2013-03-04T12:15:41Z</time>
      </trkpt>
      <trkpt lat="44.98377" lon="0.54857">
        <ele>121.512329</ele>
        <time>2013-03-04T12:15:42Z</time>
      </trkpt>
      <trkpt lat="44.98386" lon="0.54856">
        <ele>121.250061</ele>
        <time>2013-03-04T12:15:44Z</time>
      </trkpt>
      <trkpt lat="44.98394" lon="0.54853">
        <ele>120.680359</ele>
        <time>2013-03-04T12:15:46Z</time>
      </trkpt>
      <trkpt lat="44.98405" lon="0.54857">
        <ele>120.809448</ele>
        <time>2013-03-04T12:15:48Z</time>
      </trkpt>
      <trkpt lat="44.98409" lon="0.54856">
        <ele>120.664429</ele>
        <time>2013-03-04T12:15:49Z</time>
      </trkpt>
      <trkpt lat="44.98418" lon="0.54856">
        <ele>120.416748</ele>
        <time>2013-03-04T12:15:51Z</time>
      </trkpt>
      <trkpt lat="44.98424" lon="0.54856">
        <ele>119.954712</ele>
        <time>2013-03-04T12:15:53Z</time>
      </trkpt>
      <trkpt lat="44.9843" lon="0.54851">
        <ele>119.019531</ele>
        <time>2013-03-04T12:15:55Z</time>
      </trkpt>
      <trkpt lat="44.98436" lon="0.5485">
        <ele>118.60675</ele>
        <time>2013-03-04T12:15:57Z</time>
      </trkpt>
      <trkpt lat="44.98443" lon="0.54851">
        <ele>118.206665</ele>
        <time>2013-03-04T12:15:59Z</time>
      </trkpt>
      <trkpt lat="44.98449" lon="0.5486">
        <ele>118.648804</ele>
        <time>2013-03-04T12:16:01Z</time>
      </trkpt>
      <trkpt lat="44.98457" lon="0.54864">
        <ele>118.586914</ele>
        <time>2013-03-04T12:16:03Z</time>
      </trkpt>
      <trkpt lat="44.98464" lon="0.54869">
        <ele>118.475525</ele>
        <time>2013-03-04T12:16:05Z</time>
      </trkpt>
      <trkpt lat="44.98472" lon="0.54873">
        <ele>118.36853</ele>
        <time>2013-03-04T12:16:07Z</time>
      </trkpt>
      <trkpt lat="44.98478" lon="0.54878">
        <ele>118.27533</ele>
        <time>2013-03-04T12:16:09Z</time>
      </trkpt>
      <trkpt lat="44.98484" lon="0.54881">
        <ele>118.121521</ele>
        <time>2013-03-04T12:16:11Z</time>
      </trkpt>
      <trkpt lat="44.9849" lon="0.54881">
        <ele>117.745239</ele>
        <time>2013-03-04T12:16:13Z</time>
      </trkpt>
      <trkpt lat="44.98497" lon="0.54881">
        <ele>117.195923</ele>
        <time>2013-03-04T12:16:15Z</time>
      </trkpt>
      <trkpt lat="44.98504" lon="0.54882">
        <ele>117.004211</ele>
        <time>2013-03-04T12:16:17Z</time>
      </trkpt>
      <trkpt lat="44.9851" lon="0.54885">
        <ele>117.148682</ele>
        <time>2013-03-04T12:16:19Z</time>
      </trkpt>
      <trkpt lat="44.98517" lon="0.54889">
        <ele>117.325806</ele>
        <time>2013-03-04T12:16:21Z</time>
      </trkpt>
      <trkpt lat="44.98523" lon="0.54892">
        <ele>117.415466</ele>
        <time>2013-03-04T12:16:23Z</time>
      </trkpt>
      <trkpt lat="44.98531" lon="0.54895">
        <ele>117.424561</ele>
        <time>2013-03-04T12:16:26Z</time>
      </trkpt>
      <trkpt lat="44.98539" lon="0.54899">
        <ele>117.531982</ele>
        <time>2013-03-04T12:16:27Z</time>
      </trkpt>
      <trkpt lat="44.98546" lon="0.54904">
        <ele>117.626892</ele>
        <time>2013-03-04T12:16:29Z</time>
      </trkpt>
      <trkpt lat="44.98553" lon="0.54911">
        <ele>117.817688</ele>
        <time>2013-03-04T12:16:31Z</time>
      </trkpt>
      <trkpt lat="44.98559" lon="0.54917">
        <ele>117.871216</ele>
        <time>2013-03-04T12:16:33Z</time>
      </trkpt>
      <trkpt lat="44.98566" lon="0.54923">
        <ele>118.493347</ele>
        <time>2013-03-04T12:16:35Z</time>
      </trkpt>
      <trkpt lat="44.98573" lon="0.54926">
        <ele>118.715088</ele>
        <time>2013-03-04T12:16:37Z</time>
      </trkpt>
      <trkpt lat="44.98581" lon="0.5493">
        <ele>118.849121</ele>
        <time>2013-03-04T12:16:39Z</time>
      </trkpt>
      <trkpt lat="44.98589" lon="0.54933">
        <ele>119.174622</ele>
        <time>2013-03-04T12:16:41Z</time>
      </trkpt>
      <trkpt lat="44.98597" lon="0.54935">
        <ele>119.402283</ele>
        <time>2013-03-04T12:16:43Z</time>
      </trkpt>
      <trkpt lat="44.98604" lon="0.54938">
        <ele>119.833252</ele>
        <time>2013-03-04T12:16:45Z</time>
      </trkpt>
      <trkpt lat="44.98612" lon="0.54943">
        <ele>120.453613</ele>
        <time>2013-03-04T12:16:47Z</time>
      </trkpt>
      <trkpt lat="44.98619" lon="0.54944">
        <ele>120.598633</ele>
        <time>2013-03-04T12:16:49Z</time>
      </trkpt>
      <trkpt lat="44.98625" lon="0.54943">
        <ele>120.512024</ele>
        <time>2013-03-04T12:16:51Z</time>
      </trkpt>
      <trkpt lat="44.98631" lon="0.54942">
        <ele>120.304565</ele>
        <time>2013-03-04T12:16:53Z</time>
      </trkpt>
      <trkpt lat="44.98637" lon="0.5494">
        <ele>120.077637</ele>
        <time>2013-03-04T12:16:55Z</time>
      </trkpt>
      <trkpt lat="44.98645" lon="0.5494">
        <ele>120.021912</ele>
        <time>2013-03-04T12:16:57Z</time>
      </trkpt>
      <trkpt lat="44.98653" lon="0.54939">
        <ele>119.91449</ele>
        <time>2013-03-04T12:16:59Z</time>
      </trkpt>
      <trkpt lat="44.9866" lon="0.54938">
        <ele>119.874878</ele>
        <time>2013-03-04T12:17:01Z</time>
      </trkpt>
      <trkpt lat="44.98667" lon="0.54937">
        <ele>119.594604</ele>
        <time>2013-03-04T12:17:03Z</time>
      </trkpt>
      <trkpt lat="44.98675" lon="0.54934">
        <ele>118.696594</ele>
        <time>2013-03-04T12:17:06Z</time>
      </trkpt>
      <trkpt lat="44.98683" lon="0.54931">
        <ele>117.855408</ele>
        <time>2013-03-04T12:17:07Z</time>
      </trkpt>
      <trkpt lat="44.9869" lon="0.54929">
        <ele>117.054382</ele>
        <time>2013-03-04T12:17:09Z</time>
      </trkpt>
      <trkpt lat="44.98698" lon="0.54927">
        <ele>116.310303</ele>
        <time>2013-03-04T12:17:11Z</time>
      </trkpt>
      <trkpt lat="44.98708" lon="0.54925">
        <ele>115.487305</ele>
        <time>2013-03-04T12:17:13Z</time>
      </trkpt>
      <trkpt lat="44.98716" lon="0.5492">
        <ele>114.398315</ele>
        <time>2013-03-04T12:17:15Z</time>
      </trkpt>
      <trkpt lat="44.98723" lon="0.54915">
        <ele>113.536072</ele>
        <time>2013-03-04T12:17:17Z</time>
      </trkpt>
      <trkpt lat="44.98732" lon="0.54912">
        <ele>112.959351</ele>
        <time>2013-03-04T12:17:19Z</time>
      </trkpt>
      <trkpt lat="44.98738" lon="0.5491">
        <ele>112.556702</ele>
        <time>2013-03-04T12:17:22Z</time>
      </trkpt>
      <trkpt lat="44.98742" lon="0.54909">
        <ele>112.261169</ele>
        <time>2013-03-04T12:17:23Z</time>
      </trkpt>
      <trkpt lat="44.98741" lon="0.54901">
        <ele>112.075317</ele>
        <time>2013-03-04T12:17:28Z</time>
      </trkpt>
      <trkpt lat="44.98737" lon="0.54893">
        <ele>112.065125</ele>
        <time>2013-03-04T12:17:30Z</time>
      </trkpt>
      <trkpt lat="44.9873" lon="0.54883">
        <ele>112.096375</ele>
        <time>2013-03-04T12:17:32Z</time>
      </trkpt>
      <trkpt lat="44.98725" lon="0.54873">
        <ele>111.989746</ele>
        <time>2013-03-04T12:17:35Z</time>
      </trkpt>
      <trkpt lat="44.9872" lon="0.54863">
        <ele>111.837708</ele>
        <time>2013-03-04T12:17:36Z</time>
      </trkpt>
      <trkpt lat="44.98715" lon="0.54856">
        <ele>111.704895</ele>
        <time>2013-03-04T12:17:38Z</time>
      </trkpt>
      <trkpt lat="44.98712" lon="0.5485">
        <ele>111.612366</ele>
        <time>2013-03-04T12:17:40Z</time>
      </trkpt>
      <trkpt lat="44.98709" lon="0.54845">
        <ele>111.497986</ele>
        <time>2013-03-04T12:17:42Z</time>
      </trkpt>
      <trkpt lat="44.98711" lon="0.54837">
        <ele>111.061096</ele>
        <time>2013-03-04T12:17:52Z</time>
      </trkpt>
      <trkpt lat="44.98709" lon="0.5483">
        <ele>111.081909</ele>
        <time>2013-03-04T12:17:55Z</time>
      </trkpt>
      <trkpt lat="44.98707" lon="0.54823">
        <ele>111.305176</ele>
        <time>2013-03-04T12:17:57Z</time>
      </trkpt>
      <trkpt lat="44.98703" lon="0.54811">
        <ele>111.691772</ele>
        <time>2013-03-04T12:17:59Z</time>
      </trkpt>
      <trkpt lat="44.987" lon="0.548">
        <ele>112.075745</ele>
        <time>2013-03-04T12:18:01Z</time>
      </trkpt>
      <trkpt lat="44.98697" lon="0.5479">
        <ele>112.440247</ele>
        <time>2013-03-04T12:18:04Z</time>
      </trkpt>
      <trkpt lat="44.98695" lon="0.5478">
        <ele>112.809875</ele>
        <time>2013-03-04T12:18:05Z</time>
      </trkpt>
      <trkpt lat="44.98693" lon="0.5477">
        <ele>113.182495</ele>
        <time>2013-03-04T12:18:07Z</time>
      </trkpt>
      <trkpt lat="44.98691" lon="0.5476">
        <ele>113.55127</ele>
        <time>2013-03-04T12:18:09Z</time>
      </trkpt>
      <trkpt lat="44.98694" lon="0.5475">
        <ele>113.739136</ele>
        <time>2013-03-04T12:18:11Z</time>
      </trkpt>
      <trkpt lat="44.98697" lon="0.54744">
        <ele>114.305969</ele>
        <time>2013-03-04T12:18:12Z</time>
      </trkpt>
      <trkpt lat="44.98699" lon="0.54738">
        <ele>114.884277</ele>
        <time>2013-03-04T12:18:14Z</time>
      </trkpt>
      <trkpt lat="44.98702" lon="0.54732">
        <ele>115.50647</ele>
        <time>2013-03-04T12:18:15Z</time>
      </trkpt>
      <trkpt lat="44.98707" lon="0.54721">
        <ele>116.712036</ele>
        <time>2013-03-04T12:18:16Z</time>
      </trkpt>
      <trkpt lat="44.98711" lon="0.5471">
        <ele>117.922485</ele>
        <time>2013-03-04T12:18:18Z</time>
      </trkpt>
      <trkpt lat="44.98716" lon="0.547">
        <ele>118.987671</ele>
        <time>2013-03-04T12:18:20Z</time>
      </trkpt>
      <trkpt lat="44.98722" lon="0.54692">
        <ele>119.821655</ele>
        <time>2013-03-04T12:18:22Z</time>
      </trkpt>
      <trkpt lat="44.98727" lon="0.54684">
        <ele>120.567383</ele>
        <time>2013-03-04T12:18:24Z</time>
      </trkpt>
      <trkpt lat="44.98734" lon="0.54677">
        <ele>121.227051</ele>
        <time>2013-03-04T12:18:26Z</time>
      </trkpt>
      <trkpt lat="44.9874" lon="0.5467">
        <ele>121.942444</ele>
        <time>2013-03-04T12:18:28Z</time>
      </trkpt>
      <trkpt lat="44.98745" lon="0.54662">
        <ele>122.998535</ele>
        <time>2013-03-04T12:18:30Z</time>
      </trkpt>
      <trkpt lat="44.98749" lon="0.54652">
        <ele>124.333801</ele>
        <time>2013-03-04T12:18:32Z</time>
      </trkpt>
      <trkpt lat="44.98755" lon="0.54639">
        <ele>125.39093</ele>
        <time>2013-03-04T12:18:34Z</time>
      </trkpt>
      <trkpt lat="44.98759" lon="0.54626">
        <ele>126.305786</ele>
        <time>2013-03-04T12:18:36Z</time>
      </trkpt>
      <trkpt lat="44.98765" lon="0.54621">
        <ele>125.63855</ele>
        <time>2013-03-04T12:18:37Z</time>
      </trkpt>
      <trkpt lat="44.98771" lon="0.54605">
        <ele>126.18811</ele>
        <time>2013-03-04T12:18:39Z</time>
      </trkpt>
      <trkpt lat="44.98774" lon="0.54601">
        <ele>125.823486</ele>
        <time>2013-03-04T12:18:40Z</time>
      </trkpt>
      <trkpt lat="44.98777" lon="0.54595">
        <ele>125.624817</ele>
        <time>2013-03-04T12:18:41Z</time>
      </trkpt>
      <trkpt lat="44.98783" lon="0.54585">
        <ele>125.136719</ele>
        <time>2013-03-04T12:18:43Z</time>
      </trkpt>
      <trkpt lat="44.98789" lon="0.54575">
        <ele>124.024902</ele>
        <time>2013-03-04T12:18:45Z</time>
      </trkpt>
      <trkpt lat="44.98804" lon="0.54563">
        <ele>120.885803</ele>
        <time>2013-03-04T12:18:47Z</time>
      </trkpt>
      <trkpt lat="44.98808" lon="0.54557">
        <ele>120.379639</ele>
        <time>2013-03-04T12:18:49Z</time>
      </trkpt>
      <trkpt lat="44.98816" lon="0.54548">
        <ele>119.097534</ele>
        <time>2013-03-04T12:18:50Z</time>
      </trkpt>
      <trkpt lat="44.98818" lon="0.54532">
        <ele>120.405945</ele>
        <time>2013-03-04T12:18:52Z</time>
      </trkpt>
      <trkpt lat="44.9883" lon="0.54522">
        <ele>118.269165</ele>
        <time>2013-03-04T12:18:54Z</time>
      </trkpt>
      <trkpt lat="44.98834" lon="0.54516">
        <ele>118.081177</ele>
        <time>2013-03-04T12:18:55Z</time>
      </trkpt>
      <trkpt lat="44.98838" lon="0.54508">
        <ele>118.289062</ele>
        <time>2013-03-04T12:18:56Z</time>
      </trkpt>
      <trkpt lat="44.98842" lon="0.545">
        <ele>118.375977</ele>
        <time>2013-03-04T12:18:57Z</time>
      </trkpt>
      <trkpt lat="44.9885" lon="0.54485">
        <ele>117.362061</ele>
        <time>2013-03-04T12:18:59Z</time>
      </trkpt>
      <trkpt lat="44.98854" lon="0.54478">
        <ele>116.937073</ele>
        <time>2013-03-04T12:19:00Z</time>
      </trkpt>
      <trkpt lat="44.98858" lon="0.54471">
        <ele>116.517456</ele>
        <time>2013-03-04T12:19:01Z</time>
      </trkpt>
      <trkpt lat="44.98864" lon="0.54459">
        <ele>115.824463</ele>
        <time>2013-03-04T12:19:03Z</time>
      </trkpt>
      <trkpt lat="44.98867" lon="0.54453">
        <ele>115.552368</ele>
        <time>2013-03-04T12:19:04Z</time>
      </trkpt>
      <trkpt lat="44.98873" lon="0.54439">
        <ele>115.03479</ele>
        <time>2013-03-04T12:19:06Z</time>
      </trkpt>
      <trkpt lat="44.98878" lon="0.54426">
        <ele>114.620544</ele>
        <time>2013-03-04T12:19:08Z</time>
      </trkpt>
      <trkpt lat="44.98885" lon="0.54413">
        <ele>114.203186</ele>
        <time>2013-03-04T12:19:10Z</time>
      </trkpt>
      <trkpt lat="44.98887" lon="0.54407">
        <ele>114.049927</ele>
        <time>2013-03-04T12:19:11Z</time>
      </trkpt>
      <trkpt lat="44.98901" lon="0.54394">
        <ele>112.635437</ele>
        <time>2013-03-04T12:19:13Z</time>
      </trkpt>
      <trkpt lat="44.98903" lon="0.54382">
        <ele>112.862671</ele>
        <time>2013-03-04T12:19:15Z</time>
      </trkpt>
      <trkpt lat="44.98904" lon="0.54376">
        <ele>112.981201</ele>
        <time>2013-03-04T12:19:16Z</time>
      </trkpt>
      <trkpt lat="44.98906" lon="0.54366">
        <ele>113.169434</ele>
        <time>2013-03-04T12:19:17Z</time>
      </trkpt>
      <trkpt lat="44.98908" lon="0.54357">
        <ele>113.348633</ele>
        <time>2013-03-04T12:19:19Z</time>
      </trkpt>
      <trkpt lat="44.98909" lon="0.54349">
        <ele>113.484497</ele>
        <time>2013-03-04T12:19:20Z</time>
      </trkpt>
      <trkpt lat="44.9891" lon="0.54343">
        <ele>113.598022</ele>
        <time>2013-03-04T12:19:21Z</time>
      </trkpt>
      <trkpt lat="44.98913" lon="0.54331">
        <ele>113.765503</ele>
        <time>2013-03-04T12:19:23Z</time>
      </trkpt>
      <trkpt lat="44.98915" lon="0.54321">
        <ele>113.799561</ele>
        <time>2013-03-04T12:19:26Z</time>
      </trkpt>
      <trkpt lat="44.98916" lon="0.54311">
        <ele>113.837158</ele>
        <time>2013-03-04T12:19:28Z</time>
      </trkpt>
      <trkpt lat="44.98918" lon="0.54303">
        <ele>113.963623</ele>
        <time>2013-03-04T12:19:30Z</time>
      </trkpt>
      <trkpt lat="44.9892" lon="0.54295">
        <ele>114.109497</ele>
        <time>2013-03-04T12:19:33Z</time>
      </trkpt>
      <trkpt lat="44.98921" lon="0.54288">
        <ele>114.222412</ele>
        <time>2013-03-04T12:19:34Z</time>
      </trkpt>
      <trkpt lat="44.98922" lon="0.5428">
        <ele>114.333801</ele>
        <time>2013-03-04T12:19:36Z</time>
      </trkpt>
      <trkpt lat="44.98924" lon="0.54271">
        <ele>114.460388</ele>
        <time>2013-03-04T12:19:38Z</time>
      </trkpt>
      <trkpt lat="44.98927" lon="0.5426">
        <ele>114.589783</ele>
        <time>2013-03-04T12:19:40Z</time>
      </trkpt>
      <trkpt lat="44.98931" lon="0.5424">
        <ele>114.414673</ele>
        <time>2013-03-04T12:19:42Z</time>
      </trkpt>
      <trkpt lat="44.98933" lon="0.54234">
        <ele>114.236694</ele>
        <time>2013-03-04T12:19:43Z</time>
      </trkpt>
      <trkpt lat="44.98937" lon="0.54221">
        <ele>113.843384</ele>
        <time>2013-03-04T12:19:45Z</time>
      </trkpt>
      <trkpt lat="44.98939" lon="0.54212">
        <ele>113.585144</ele>
        <time>2013-03-04T12:19:47Z</time>
      </trkpt>
      <trkpt lat="44.98942" lon="0.54199">
        <ele>113.225952</ele>
        <time>2013-03-04T12:19:49Z</time>
      </trkpt>
      <trkpt lat="44.98945" lon="0.54187">
        <ele>112.898499</ele>
        <time>2013-03-04T12:19:51Z</time>
      </trkpt>
      <trkpt lat="44.98948" lon="0.54175">
        <ele>112.575562</ele>
        <time>2013-03-04T12:19:54Z</time>
      </trkpt>
      <trkpt lat="44.98951" lon="0.54163">
        <ele>112.115417</ele>
        <time>2013-03-04T12:19:55Z</time>
      </trkpt>
      <trkpt lat="44.98954" lon="0.54153">
        <ele>111.371277</ele>
        <time>2013-03-04T12:19:57Z</time>
      </trkpt>
      <trkpt lat="44.98956" lon="0.54144">
        <ele>110.755615</ele>
        <time>2013-03-04T12:19:59Z</time>
      </trkpt>
      <trkpt lat="44.98958" lon="0.54137">
        <ele>110.317932</ele>
        <time>2013-03-04T12:20:01Z</time>
      </trkpt>
      <trkpt lat="44.9896" lon="0.5413">
        <ele>109.83844</ele>
        <time>2013-03-04T12:20:04Z</time>
      </trkpt>
      <trkpt lat="44.9896" lon="0.54127">
        <ele>109.705872</ele>
        <time>2013-03-04T12:20:13Z</time>
      </trkpt>
      <trkpt lat="44.98947" lon="0.54077">
        <ele>108.963257</ele>
        <time>2013-03-04T12:20:15Z</time>
      </trkpt>
      <trkpt lat="44.98948" lon="0.54065">
        <ele>109.201172</ele>
        <time>2013-03-04T12:20:17Z</time>
      </trkpt>
      <trkpt lat="44.98949" lon="0.54059">
        <ele>109.276245</ele>
        <time>2013-03-04T12:20:18Z</time>
      </trkpt>
      <trkpt lat="44.98951" lon="0.54047">
        <ele>109.372925</ele>
        <time>2013-03-04T12:20:20Z</time>
      </trkpt>
      <trkpt lat="44.98955" lon="0.54036">
        <ele>109.351746</ele>
        <time>2013-03-04T12:20:22Z</time>
      </trkpt>
      <trkpt lat="44.98959" lon="0.54031">
        <ele>109.22168</ele>
        <time>2013-03-04T12:20:23Z</time>
      </trkpt>
      <trkpt lat="44.98966" lon="0.5402">
        <ele>108.957642</ele>
        <time>2013-03-04T12:20:25Z</time>
      </trkpt>
      <trkpt lat="44.98973" lon="0.54011">
        <ele>108.679077</ele>
        <time>2013-03-04T12:20:27Z</time>
      </trkpt>
      <trkpt lat="44.98976" lon="0.54006">
        <ele>108.618652</ele>
        <time>2013-03-04T12:20:28Z</time>
      </trkpt>
      <trkpt lat="44.9898" lon="0.53996">
        <ele>108.668335</ele>
        <time>2013-03-04T12:20:30Z</time>
      </trkpt>
      <trkpt lat="44.98983" lon="0.53987">
        <ele>108.915405</ele>
        <time>2013-03-04T12:20:33Z</time>
      </trkpt>
      <trkpt lat="44.98985" lon="0.53979">
        <ele>109.224854</ele>
        <time>2013-03-04T12:20:34Z</time>
      </trkpt>
      <trkpt lat="44.98987" lon="0.53971">
        <ele>109.47699</ele>
        <time>2013-03-04T12:20:36Z</time>
      </trkpt>
      <trkpt lat="44.98989" lon="0.53963">
        <ele>109.715942</ele>
        <time>2013-03-04T12:20:38Z</time>
      </trkpt>
      <trkpt lat="44.9899" lon="0.53955">
        <ele>110.027161</ele>
        <time>2013-03-04T12:20:41Z</time>
      </trkpt>
      <trkpt lat="44.98991" lon="0.53946">
        <ele>110.374451</ele>
        <time>2013-03-04T12:20:42Z</time>
      </trkpt>
      <trkpt lat="44.98993" lon="0.53936">
        <ele>110.671082</ele>
        <time>2013-03-04T12:20:44Z</time>
      </trkpt>
      <trkpt lat="44.98996" lon="0.53927">
        <ele>110.914429</ele>
        <time>2013-03-04T12:20:46Z</time>
      </trkpt>
      <trkpt lat="44.98998" lon="0.53918">
        <ele>111.149841</ele>
        <time>2013-03-04T12:20:48Z</time>
      </trkpt>
      <trkpt lat="44.99" lon="0.53909">
        <ele>111.469177</ele>
        <time>2013-03-04T12:20:50Z</time>
      </trkpt>
      <trkpt lat="44.99001" lon="0.539">
        <ele>111.867004</ele>
        <time>2013-03-04T12:20:53Z</time>
      </trkpt>
      <trkpt lat="44.99002" lon="0.53891">
        <ele>112.296021</ele>
        <time>2013-03-04T12:20:54Z</time>
      </trkpt>
      <trkpt lat="44.99003" lon="0.53882">
        <ele>112.61438</ele>
        <time>2013-03-04T12:20:56Z</time>
      </trkpt>
      <trkpt lat="44.99004" lon="0.53874">
        <ele>112.909546</ele>
        <time>2013-03-04T12:20:58Z</time>
      </trkpt>
      <trkpt lat="44.99006" lon="0.53867">
        <ele>113.19342</ele>
        <time>2013-03-04T12:21:00Z</time>
      </trkpt>
      <trkpt lat="44.99008" lon="0.5386">
        <ele>113.183228</ele>
        <time>2013-03-04T12:21:02Z</time>
      </trkpt>
      <trkpt lat="44.99011" lon="0.53854">
        <ele>113.024231</ele>
        <time>2013-03-04T12:21:04Z</time>
      </trkpt>
      <trkpt lat="44.99013" lon="0.53846">
        <ele>113.104736</ele>
        <time>2013-03-04T12:21:06Z</time>
      </trkpt>
      <trkpt lat="44.99014" lon="0.53836">
        <ele>113.454895</ele>
        <time>2013-03-04T12:21:08Z</time>
      </trkpt>
      <trkpt lat="44.99016" lon="0.53828">
        <ele>113.363708</ele>
        <time>2013-03-04T12:21:10Z</time>
      </trkpt>
      <trkpt lat="44.99018" lon="0.53819">
        <ele>113.006958</ele>
        <time>2013-03-04T12:21:13Z</time>
      </trkpt>
      <trkpt lat="44.9902" lon="0.5381">
        <ele>112.699036</ele>
        <time>2013-03-04T12:21:14Z</time>
      </trkpt>
      <trkpt lat="44.99022" lon="0.538">
        <ele>112.422668</ele>
        <time>2013-03-04T12:21:16Z</time>
      </trkpt>
      <trkpt lat="44.99024" lon="0.5379">
        <ele>112.165161</ele>
        <time>2013-03-04T12:21:18Z</time>
      </trkpt>
      <trkpt lat="44.99025" lon="0.53779">
        <ele>111.942444</ele>
        <time>2013-03-04T12:21:20Z</time>
      </trkpt>
      <trkpt lat="44.99027" lon="0.53769">
        <ele>111.795532</ele>
        <time>2013-03-04T12:21:22Z</time>
      </trkpt>
      <trkpt lat="44.99028" lon="0.53758">
        <ele>111.564575</ele>
        <time>2013-03-04T12:21:25Z</time>
      </trkpt>
      <trkpt lat="44.99032" lon="0.53747">
        <ele>111.060791</ele>
        <time>2013-03-04T12:21:26Z</time>
      </trkpt>
      <trkpt lat="44.99035" lon="0.53735">
        <ele>110.589539</ele>
        <time>2013-03-04T12:21:28Z</time>
      </trkpt>
      <trkpt lat="44.99039" lon="0.53722">
        <ele>110.000732</ele>
        <time>2013-03-04T12:21:30Z</time>
      </trkpt>
      <trkpt lat="44.99043" lon="0.5371">
        <ele>109.579041</ele>
        <time>2013-03-04T12:21:32Z</time>
      </trkpt>
      <trkpt lat="44.99046" lon="0.537">
        <ele>109.248901</ele>
        <time>2013-03-04T12:21:34Z</time>
      </trkpt>
      <trkpt lat="44.99049" lon="0.53691">
        <ele>108.977051</ele>
        <time>2013-03-04T12:21:36Z</time>
      </trkpt>
      <trkpt lat="44.99052" lon="0.53682">
        <ele>108.778564</ele>
        <time>2013-03-04T12:21:38Z</time>
      </trkpt>
      <trkpt lat="44.99055" lon="0.53673">
        <ele>108.630981</ele>
        <time>2013-03-04T12:21:40Z</time>
      </trkpt>
      <trkpt lat="44.99057" lon="0.53666">
        <ele>108.549988</ele>
        <time>2013-03-04T12:21:42Z</time>
      </trkpt>
      <trkpt lat="44.99059" lon="0.53659">
        <ele>108.673828</ele>
        <time>2013-03-04T12:21:44Z</time>
      </trkpt>
      <trkpt lat="44.99061" lon="0.53652">
        <ele>108.75531</ele>
        <time>2013-03-04T12:21:46Z</time>
      </trkpt>
      <trkpt lat="44.99063" lon="0.53645">
        <ele>108.85083</ele>
        <time>2013-03-04T12:21:48Z</time>
      </trkpt>
      <trkpt lat="44.99065" lon="0.53638">
        <ele>108.872864</ele>
        <time>2013-03-04T12:21:50Z</time>
      </trkpt>
      <trkpt lat="44.99066" lon="0.53631">
        <ele>108.994019</ele>
        <time>2013-03-04T12:21:52Z</time>
      </trkpt>
      <trkpt lat="44.99068" lon="0.53624">
        <ele>109.118591</ele>
        <time>2013-03-04T12:21:54Z</time>
      </trkpt>
      <trkpt lat="44.99069" lon="0.53615">
        <ele>109.304932</ele>
        <time>2013-03-04T12:21:56Z</time>
      </trkpt>
      <trkpt lat="44.9907" lon="0.53606">
        <ele>109.571167</ele>
        <time>2013-03-04T12:21:58Z</time>
      </trkpt>
      <trkpt lat="44.9907" lon="0.53597">
        <ele>109.880676</ele>
        <time>2013-03-04T12:22:00Z</time>
      </trkpt>
      <trkpt lat="44.99071" lon="0.53589">
        <ele>110.166016</ele>
        <time>2013-03-04T12:22:02Z</time>
      </trkpt>
      <trkpt lat="44.99071" lon="0.53582">
        <ele>110.346191</ele>
        <time>2013-03-04T12:22:04Z</time>
      </trkpt>
      <trkpt lat="44.99072" lon="0.53575">
        <ele>110.41925</ele>
        <time>2013-03-04T12:22:07Z</time>
      </trkpt>
      <trkpt lat="44.99074" lon="0.53563">
        <ele>110.380005</ele>
        <time>2013-03-04T12:22:08Z</time>
      </trkpt>
      <trkpt lat="44.99076" lon="0.53552">
        <ele>110.374878</ele>
        <time>2013-03-04T12:22:10Z</time>
      </trkpt>
      <trkpt lat="44.99077" lon="0.53543">
        <ele>110.364258</ele>
        <time>2013-03-04T12:22:12Z</time>
      </trkpt>
      <trkpt lat="44.99079" lon="0.53532">
        <ele>110.27356</ele>
        <time>2013-03-04T12:22:14Z</time>
      </trkpt>
      <trkpt lat="44.99081" lon="0.53523">
        <ele>110.11792</ele>
        <time>2013-03-04T12:22:16Z</time>
      </trkpt>
      <trkpt lat="44.99083" lon="0.53514">
        <ele>109.88031</ele>
        <time>2013-03-04T12:22:18Z</time>
      </trkpt>
      <trkpt lat="44.99087" lon="0.53504">
        <ele>109.627625</ele>
        <time>2013-03-04T12:22:20Z</time>
      </trkpt>
      <trkpt lat="44.99091" lon="0.53492">
        <ele>110.050232</ele>
        <time>2013-03-04T12:22:22Z</time>
      </trkpt>
      <trkpt lat="44.99096" lon="0.5348">
        <ele>110.619873</ele>
        <time>2013-03-04T12:22:24Z</time>
      </trkpt>
      <trkpt lat="44.991" lon="0.5347">
        <ele>111.009949</ele>
        <time>2013-03-04T12:22:27Z</time>
      </trkpt>
      <trkpt lat="44.99105" lon="0.5346">
        <ele>111.305176</ele>
        <time>2013-03-04T12:22:28Z</time>
      </trkpt>
      <trkpt lat="44.99108" lon="0.5345">
        <ele>111.672668</ele>
        <time>2013-03-04T12:22:30Z</time>
      </trkpt>
      <trkpt lat="44.99111" lon="0.53439">
        <ele>112.053589</ele>
        <time>2013-03-04T12:22:32Z</time>
      </trkpt>
      <trkpt lat="44.99112" lon="0.53432">
        <ele>112.441956</ele>
        <time>2013-03-04T12:22:33Z</time>
      </trkpt>
      <trkpt lat="44.99114" lon="0.53418">
        <ele>112.976746</ele>
        <time>2013-03-04T12:22:35Z</time>
      </trkpt>
      <trkpt lat="44.99118" lon="0.53409">
        <ele>113.035767</ele>
        <time>2013-03-04T12:22:37Z</time>
      </trkpt>
      <trkpt lat="44.99122" lon="0.534">
        <ele>113.020142</ele>
        <time>2013-03-04T12:22:39Z</time>
      </trkpt>
      <trkpt lat="44.99126" lon="0.53391">
        <ele>113.0401</ele>
        <time>2013-03-04T12:22:41Z</time>
      </trkpt>
      <trkpt lat="44.99128" lon="0.53382">
        <ele>113.164612</ele>
        <time>2013-03-04T12:22:43Z</time>
      </trkpt>
      <trkpt lat="44.9913" lon="0.53372">
        <ele>113.670959</ele>
        <time>2013-03-04T12:22:45Z</time>
      </trkpt>
      <trkpt lat="44.9913" lon="0.5336">
        <ele>114.597778</ele>
        <time>2013-03-04T12:22:47Z</time>
      </trkpt>
      <trkpt lat="44.9913" lon="0.5335">
        <ele>115.378967</ele>
        <time>2013-03-04T12:22:49Z</time>
      </trkpt>
      <trkpt lat="44.99131" lon="0.5334">
        <ele>115.980164</ele>
        <time>2013-03-04T12:22:51Z</time>
      </trkpt>
      <trkpt lat="44.99132" lon="0.53332">
        <ele>116.220825</ele>
        <time>2013-03-04T12:22:53Z</time>
      </trkpt>
      <trkpt lat="44.99134" lon="0.53323">
        <ele>115.889954</ele>
        <time>2013-03-04T12:22:55Z</time>
      </trkpt>
      <trkpt lat="44.99136" lon="0.53314">
        <ele>115.644653</ele>
        <time>2013-03-04T12:22:58Z</time>
      </trkpt>
      <trkpt lat="44.99138" lon="0.53304">
        <ele>115.384644</ele>
        <time>2013-03-04T12:22:59Z</time>
      </trkpt>
      <trkpt lat="44.99141" lon="0.53295">
        <ele>114.792847</ele>
        <time>2013-03-04T12:23:01Z</time>
      </trkpt>
      <trkpt lat="44.99143" lon="0.53285">
        <ele>114.4776</ele>
        <time>2013-03-04T12:23:03Z</time>
      </trkpt>
      <trkpt lat="44.99145" lon="0.53275">
        <ele>114.275085</ele>
        <time>2013-03-04T12:23:05Z</time>
      </trkpt>
      <trkpt lat="44.99146" lon="0.53266">
        <ele>114.25415</ele>
        <time>2013-03-04T12:23:07Z</time>
      </trkpt>
      <trkpt lat="44.99147" lon="0.53258">
        <ele>114.320129</ele>
        <time>2013-03-04T12:23:10Z</time>
      </trkpt>
      <trkpt lat="44.99147" lon="0.53249">
        <ele>114.47345</ele>
        <time>2013-03-04T12:23:11Z</time>
      </trkpt>
      <trkpt lat="44.99148" lon="0.5324">
        <ele>114.607117</ele>
        <time>2013-03-04T12:23:13Z</time>
      </trkpt>
      <trkpt lat="44.9915" lon="0.53229">
        <ele>114.369751</ele>
        <time>2013-03-04T12:23:15Z</time>
      </trkpt>
      <trkpt lat="44.99153" lon="0.53219">
        <ele>114.116577</ele>
        <time>2013-03-04T12:23:17Z</time>
      </trkpt>
      <trkpt lat="44.99155" lon="0.53213">
        <ele>113.93042</ele>
        <time>2013-03-04T12:23:18Z</time>
      </trkpt>
      <trkpt lat="44.99157" lon="0.53202">
        <ele>113.819824</ele>
        <time>2013-03-04T12:23:20Z</time>
      </trkpt>
      <trkpt lat="44.99158" lon="0.53193">
        <ele>113.822266</ele>
        <time>2013-03-04T12:23:23Z</time>
      </trkpt>
      <trkpt lat="44.99161" lon="0.53187">
        <ele>113.539795</ele>
        <time>2013-03-04T12:23:25Z</time>
      </trkpt>
      <trkpt lat="44.99162" lon="0.53181">
        <ele>113.490295</ele>
        <time>2013-03-04T12:23:26Z</time>
      </trkpt>
      <trkpt lat="44.99163" lon="0.53172">
        <ele>113.769043</ele>
        <time>2013-03-04T12:23:29Z</time>
      </trkpt>
      <trkpt lat="44.99163" lon="0.53163">
        <ele>113.934448</ele>
        <time>2013-03-04T12:23:31Z</time>
      </trkpt>
      <trkpt lat="44.99165" lon="0.53152">
        <ele>113.978577</ele>
        <time>2013-03-04T12:23:33Z</time>
      </trkpt>
      <trkpt lat="44.99166" lon="0.53142">
        <ele>114.022461</ele>
        <time>2013-03-04T12:23:35Z</time>
      </trkpt>
      <trkpt lat="44.99167" lon="0.53134">
        <ele>114.148743</ele>
        <time>2013-03-04T12:23:37Z</time>
      </trkpt>
      <trkpt lat="44.99168" lon="0.53127">
        <ele>114.233398</ele>
        <time>2013-03-04T12:23:39Z</time>
      </trkpt>
      <trkpt lat="44.99168" lon="0.53121">
        <ele>114.353271</ele>
        <time>2013-03-04T12:23:41Z</time>
      </trkpt>
      <trkpt lat="44.9917" lon="0.53113">
        <ele>114.426453</ele>
        <time>2013-03-04T12:23:44Z</time>
      </trkpt>
      <trkpt lat="44.99171" lon="0.53105">
        <ele>114.47937</ele>
        <time>2013-03-04T12:23:46Z</time>
      </trkpt>
      <trkpt lat="44.99173" lon="0.53095">
        <ele>114.530212</ele>
        <time>2013-03-04T12:23:48Z</time>
      </trkpt>
      <trkpt lat="44.99174" lon="0.53085">
        <ele>114.596375</ele>
        <time>2013-03-04T12:23:50Z</time>
      </trkpt>
      <trkpt lat="44.99176" lon="0.53076">
        <ele>114.323059</ele>
        <time>2013-03-04T12:23:52Z</time>
      </trkpt>
      <trkpt lat="44.99178" lon="0.53067">
        <ele>114.149109</ele>
        <time>2013-03-04T12:23:54Z</time>
      </trkpt>
      <trkpt lat="44.99179" lon="0.53058">
        <ele>114.007507</ele>
        <time>2013-03-04T12:23:56Z</time>
      </trkpt>
      <trkpt lat="44.9918" lon="0.53049">
        <ele>113.938232</ele>
        <time>2013-03-04T12:23:58Z</time>
      </trkpt>
      <trkpt lat="44.9918" lon="0.5304">
        <ele>113.927185</ele>
        <time>2013-03-04T12:24:00Z</time>
      </trkpt>
      <trkpt lat="44.99181" lon="0.5303">
        <ele>113.881287</ele>
        <time>2013-03-04T12:24:02Z</time>
      </trkpt>
      <trkpt lat="44.99182" lon="0.53021">
        <ele>113.747375</ele>
        <time>2013-03-04T12:24:05Z</time>
      </trkpt>
      <trkpt lat="44.99184" lon="0.53012">
        <ele>113.55188</ele>
        <time>2013-03-04T12:24:06Z</time>
      </trkpt>
      <trkpt lat="44.99186" lon="0.53004">
        <ele>113.37793</ele>
        <time>2013-03-04T12:24:08Z</time>
      </trkpt>
      <trkpt lat="44.99188" lon="0.52996">
        <ele>113.116882</ele>
        <time>2013-03-04T12:24:10Z</time>
      </trkpt>
      <trkpt lat="44.9919" lon="0.52988">
        <ele>112.742188</ele>
        <time>2013-03-04T12:24:12Z</time>
      </trkpt>
      <trkpt lat="44.99194" lon="0.52979">
        <ele>112.193542</ele>
        <time>2013-03-04T12:24:14Z</time>
      </trkpt>
      <trkpt lat="44.99196" lon="0.5297">
        <ele>111.79248</ele>
        <time>2013-03-04T12:24:16Z</time>
      </trkpt>
      <trkpt lat="44.99197" lon="0.52948">
        <ele>111.362671</ele>
        <time>2013-03-04T12:24:18Z</time>
      </trkpt>
      <trkpt lat="44.99196" lon="0.52933">
        <ele>111.394592</ele>
        <time>2013-03-04T12:24:20Z</time>
      </trkpt>
      <trkpt lat="44.99195" lon="0.52923">
        <ele>111.385864</ele>
        <time>2013-03-04T12:24:21Z</time>
      </trkpt>
      <trkpt lat="44.99199" lon="0.52906">
        <ele>109.835876</ele>
        <time>2013-03-04T12:24:22Z</time>
      </trkpt>
      <trkpt lat="44.99201" lon="0.52891">
        <ele>108.494263</ele>
        <time>2013-03-04T12:24:23Z</time>
      </trkpt>
      <trkpt lat="44.99208" lon="0.52864">
        <ele>106.085754</ele>
        <time>2013-03-04T12:24:25Z</time>
      </trkpt>
      <trkpt lat="44.99209" lon="0.52849">
        <ele>104.972473</ele>
        <time>2013-03-04T12:24:27Z</time>
      </trkpt>
      <trkpt lat="44.99213" lon="0.52823">
        <ele>103.71936</ele>
        <time>2013-03-04T12:24:28Z</time>
      </trkpt>
      <trkpt lat="44.99218" lon="0.52809">
        <ele>103.436951</ele>
        <time>2013-03-04T12:24:29Z</time>
      </trkpt>
      <trkpt lat="44.99223" lon="0.52793">
        <ele>103.184875</ele>
        <time>2013-03-04T12:24:30Z</time>
      </trkpt>
      <trkpt lat="44.99228" lon="0.52778">
        <ele>103.004517</ele>
        <time>2013-03-04T12:24:31Z</time>
      </trkpt>
      <trkpt lat="44.99234" lon="0.52763">
        <ele>102.894348</ele>
        <time>2013-03-04T12:24:32Z</time>
      </trkpt>
      <trkpt lat="44.99239" lon="0.52749">
        <ele>102.897827</ele>
        <time>2013-03-04T12:24:33Z</time>
      </trkpt>
      <trkpt lat="44.99241" lon="0.52739">
        <ele>103.201599</ele>
        <time>2013-03-04T12:24:34Z</time>
      </trkpt>
      <trkpt lat="44.99248" lon="0.52719">
        <ele>103.748657</ele>
        <time>2013-03-04T12:24:36Z</time>
      </trkpt>
      <trkpt lat="44.99251" lon="0.52713">
        <ele>103.85144</ele>
        <time>2013-03-04T12:24:37Z</time>
      </trkpt>
      <trkpt lat="44.9926" lon="0.52719">
        <ele>103.381836</ele>
        <time>2013-03-04T12:24:39Z</time>
      </trkpt>
      <trkpt lat="44.99263" lon="0.52713">
        <ele>103.418335</ele>
        <time>2013-03-04T12:24:41Z</time>
      </trkpt>
      <trkpt lat="44.99269" lon="0.52719">
        <ele>103.06604</ele>
        <time>2013-03-04T12:24:42Z</time>
      </trkpt>
      <trkpt lat="44.99278" lon="0.52719">
        <ele>102.751709</ele>
        <time>2013-03-04T12:24:44Z</time>
      </trkpt>
      <trkpt lat="44.99283" lon="0.5272">
        <ele>102.53186</ele>
        <time>2013-03-04T12:24:46Z</time>
      </trkpt>
      <trkpt lat="44.99288" lon="0.5272">
        <ele>102.32959</ele>
        <time>2013-03-04T12:24:47Z</time>
      </trkpt>
      <trkpt lat="44.99297" lon="0.52722">
        <ele>101.979004</ele>
        <time>2013-03-04T12:24:50Z</time>
      </trkpt>
      <trkpt lat="44.99306" lon="0.52721">
        <ele>101.702148</ele>
        <time>2013-03-04T12:24:52Z</time>
      </trkpt>
      <trkpt lat="44.99314" lon="0.52721">
        <ele>101.388306</ele>
        <time>2013-03-04T12:24:53Z</time>
      </trkpt>
      <trkpt lat="44.99321" lon="0.52724">
        <ele>101.064575</ele>
        <time>2013-03-04T12:24:54Z</time>
      </trkpt>
      <trkpt lat="44.9933" lon="0.52725">
        <ele>100.729248</ele>
        <time>2013-03-04T12:24:57Z</time>
      </trkpt>
      <trkpt lat="44.9934" lon="0.52729">
        <ele>100.301514</ele>
        <time>2013-03-04T12:24:58Z</time>
      </trkpt>
      <trkpt lat="44.99347" lon="0.52731">
        <ele>100.05304</ele>
        <time>2013-03-04T12:24:59Z</time>
      </trkpt>
      <trkpt lat="44.99353" lon="0.52733">
        <ele>99.845093</ele>
        <time>2013-03-04T12:25:00Z</time>
      </trkpt>
      <trkpt lat="44.99363" lon="0.52733">
        <ele>99.54364</ele>
        <time>2013-03-04T12:25:02Z</time>
      </trkpt>
      <trkpt lat="44.99369" lon="0.52733">
        <ele>99.377686</ele>
        <time>2013-03-04T12:25:04Z</time>
      </trkpt>
      <trkpt lat="44.99375" lon="0.52733">
        <ele>99.206116</ele>
        <time>2013-03-04T12:25:05Z</time>
      </trkpt>
      <trkpt lat="44.9938" lon="0.52733">
        <ele>99.047607</ele>
        <time>2013-03-04T12:25:06Z</time>
      </trkpt>
      <trkpt lat="44.9939" lon="0.52735">
        <ele>98.747131</ele>
        <time>2013-03-04T12:25:07Z</time>
      </trkpt>
      <trkpt lat="44.994" lon="0.52737">
        <ele>98.457031</ele>
        <time>2013-03-04T12:25:09Z</time>
      </trkpt>
      <trkpt lat="44.99409" lon="0.52739">
        <ele>98.217957</ele>
        <time>2013-03-04T12:25:11Z</time>
      </trkpt>
      <trkpt lat="44.9942" lon="0.52741">
        <ele>98.031433</ele>
        <time>2013-03-04T12:25:13Z</time>
      </trkpt>
      <trkpt lat="44.99426" lon="0.52743">
        <ele>98.10321</ele>
        <time>2013-03-04T12:25:15Z</time>
      </trkpt>
      <trkpt lat="44.99437" lon="0.52745">
        <ele>98.222656</ele>
        <time>2013-03-04T12:25:16Z</time>
      </trkpt>
      <trkpt lat="44.99443" lon="0.52746">
        <ele>98.298828</ele>
        <time>2013-03-04T12:25:17Z</time>
      </trkpt>
      <trkpt lat="44.99452" lon="0.52748">
        <ele>98.414307</ele>
        <time>2013-03-04T12:25:19Z</time>
      </trkpt>
      <trkpt lat="44.99461" lon="0.5275">
        <ele>98.533691</ele>
        <time>2013-03-04T12:25:20Z</time>
      </trkpt>
      <trkpt lat="44.99468" lon="0.52752">
        <ele>98.641968</ele>
        <time>2013-03-04T12:25:21Z</time>
      </trkpt>
      <trkpt lat="44.9948" lon="0.52758">
        <ele>98.901428</ele>
        <time>2013-03-04T12:25:23Z</time>
      </trkpt>
      <trkpt lat="44.99486" lon="0.52761">
        <ele>99.054504</ele>
        <time>2013-03-04T12:25:25Z</time>
      </trkpt>
      <trkpt lat="44.99497" lon="0.52765">
        <ele>99.314819</ele>
        <time>2013-03-04T12:25:27Z</time>
      </trkpt>
      <trkpt lat="44.99508" lon="0.5277">
        <ele>99.932556</ele>
        <time>2013-03-04T12:25:29Z</time>
      </trkpt>
      <trkpt lat="44.99518" lon="0.52774">
        <ele>100.596924</ele>
        <time>2013-03-04T12:25:30Z</time>
      </trkpt>
      <trkpt lat="44.99528" lon="0.52778">
        <ele>101.246399</ele>
        <time>2013-03-04T12:25:32Z</time>
      </trkpt>
      <trkpt lat="44.99546" lon="0.52786">
        <ele>102.370178</ele>
        <time>2013-03-04T12:25:36Z</time>
      </trkpt>
      <trkpt lat="44.9955" lon="0.52787">
        <ele>102.645142</ele>
        <time>2013-03-04T12:25:37Z</time>
      </trkpt>
      <trkpt lat="44.9956" lon="0.52793">
        <ele>103.247375</ele>
        <time>2013-03-04T12:25:39Z</time>
      </trkpt>
      <trkpt lat="44.99564" lon="0.52795">
        <ele>103.508667</ele>
        <time>2013-03-04T12:25:41Z</time>
      </trkpt>
      <trkpt lat="44.99571" lon="0.52794">
        <ele>103.849304</ele>
        <time>2013-03-04T12:25:42Z</time>
      </trkpt>
      <trkpt lat="44.99578" lon="0.52794">
        <ele>104.256287</ele>
        <time>2013-03-04T12:25:44Z</time>
      </trkpt>
      <trkpt lat="44.99583" lon="0.52792">
        <ele>104.468872</ele>
        <time>2013-03-04T12:25:46Z</time>
      </trkpt>
      <trkpt lat="44.99589" lon="0.5279">
        <ele>104.882019</ele>
        <time>2013-03-04T12:25:48Z</time>
      </trkpt>
      <trkpt lat="44.99594" lon="0.52792">
        <ele>105.324646</ele>
        <time>2013-03-04T12:25:51Z</time>
      </trkpt>
      <trkpt lat="44.99591" lon="0.52785">
        <ele>104.973633</ele>
        <time>2013-03-04T12:25:55Z</time>
      </trkpt>
      <trkpt lat="44.99609" lon="0.52778">
        <ele>106.242676</ele>
        <time>2013-03-04T12:25:57Z</time>
      </trkpt>
      <trkpt lat="44.99611" lon="0.52771">
        <ele>106.356323</ele>
        <time>2013-03-04T12:25:59Z</time>
      </trkpt>
      <trkpt lat="44.99616" lon="0.52757">
        <ele>106.460632</ele>
        <time>2013-03-04T12:26:03Z</time>
      </trkpt>
      <trkpt lat="44.99613" lon="0.52764">
        <ele>106.357727</ele>
        <time>2013-03-04T12:26:05Z</time>
      </trkpt>
      <trkpt lat="44.99619" lon="0.52749">
        <ele>106.491943</ele>
        <time>2013-03-04T12:26:07Z</time>
      </trkpt>
      <trkpt lat="44.99621" lon="0.52741">
        <ele>106.42804</ele>
        <time>2013-03-04T12:26:09Z</time>
      </trkpt>
      <trkpt lat="44.99612" lon="0.52771">
        <ele>106.377075</ele>
        <time>2013-03-04T12:26:12Z</time>
      </trkpt>
      <trkpt lat="44.99651" lon="0.52761">
        <ele>109.138306</ele>
        <time>2013-03-04T12:26:15Z</time>
      </trkpt>
      <trkpt lat="44.99657" lon="0.52757">
        <ele>109.44574</ele>
        <time>2013-03-04T12:26:18Z</time>
      </trkpt>
      <trkpt lat="44.99662" lon="0.52753">
        <ele>109.74762</ele>
        <time>2013-03-04T12:26:21Z</time>
      </trkpt>
      <trkpt lat="44.99667" lon="0.5275">
        <ele>109.975342</ele>
        <time>2013-03-04T12:26:23Z</time>
      </trkpt>
      <trkpt lat="44.99671" lon="0.52747">
        <ele>110.300842</ele>
        <time>2013-03-04T12:26:25Z</time>
      </trkpt>
      <trkpt lat="44.99676" lon="0.52743">
        <ele>110.685852</ele>
        <time>2013-03-04T12:26:27Z</time>
      </trkpt>
      <trkpt lat="44.99681" lon="0.52739">
        <ele>111.114624</ele>
        <time>2013-03-04T12:26:31Z</time>
      </trkpt>
      <trkpt lat="44.99686" lon="0.52736">
        <ele>111.505737</ele>
        <time>2013-03-04T12:26:34Z</time>
      </trkpt>
      <trkpt lat="44.99691" lon="0.52733">
        <ele>111.837463</ele>
        <time>2013-03-04T12:26:37Z</time>
      </trkpt>
      <trkpt lat="44.99696" lon="0.5273">
        <ele>112.230713</ele>
        <time>2013-03-04T12:26:39Z</time>
      </trkpt>
      <trkpt lat="44.99702" lon="0.52726">
        <ele>112.651001</ele>
        <time>2013-03-04T12:26:42Z</time>
      </trkpt>
      <trkpt lat="44.99707" lon="0.52723">
        <ele>113.032776</ele>
        <time>2013-03-04T12:26:45Z</time>
      </trkpt>
      <trkpt lat="44.99711" lon="0.5272">
        <ele>113.347046</ele>
        <time>2013-03-04T12:26:47Z</time>
      </trkpt>
      <trkpt lat="44.99717" lon="0.52716">
        <ele>113.786499</ele>
        <time>2013-03-04T12:26:50Z</time>
      </trkpt>
      <trkpt lat="44.99722" lon="0.52714">
        <ele>114.121155</ele>
        <time>2013-03-04T12:26:53Z</time>
      </trkpt>
      <trkpt lat="44.99727" lon="0.5271">
        <ele>114.507935</ele>
        <time>2013-03-04T12:26:57Z</time>
      </trkpt>
      <trkpt lat="44.99732" lon="0.52708">
        <ele>114.831299</ele>
        <time>2013-03-04T12:26:58Z</time>
      </trkpt>
      <trkpt lat="44.99737" lon="0.52705">
        <ele>115.171143</ele>
        <time>2013-03-04T12:27:01Z</time>
      </trkpt>
      <trkpt lat="44.99741" lon="0.52702">
        <ele>115.499756</ele>
        <time>2013-03-04T12:27:02Z</time>
      </trkpt>
      <trkpt lat="44.99747" lon="0.52699">
        <ele>115.919434</ele>
        <time>2013-03-04T12:27:04Z</time>
      </trkpt>
      <trkpt lat="44.99753" lon="0.52696">
        <ele>116.04541</ele>
        <time>2013-03-04T12:27:07Z</time>
      </trkpt>
      <trkpt lat="44.99758" lon="0.52694">
        <ele>115.945435</ele>
        <time>2013-03-04T12:27:09Z</time>
      </trkpt>
      <trkpt lat="44.99762" lon="0.52691">
        <ele>115.829224</ele>
        <time>2013-03-04T12:27:12Z</time>
      </trkpt>
      <trkpt lat="44.99768" lon="0.52689">
        <ele>115.710938</ele>
        <time>2013-03-04T12:27:14Z</time>
      </trkpt>
      <trkpt lat="44.99773" lon="0.52687">
        <ele>115.59491</ele>
        <time>2013-03-04T12:27:16Z</time>
      </trkpt>
      <trkpt lat="44.9978" lon="0.52685">
        <ele>115.470459</ele>
        <time>2013-03-04T12:27:18Z</time>
      </trkpt>
      <trkpt lat="44.99785" lon="0.52684">
        <ele>115.388977</ele>
        <time>2013-03-04T12:27:20Z</time>
      </trkpt>
      <trkpt lat="44.99791" lon="0.52683">
        <ele>115.311401</ele>
        <time>2013-03-04T12:27:23Z</time>
      </trkpt>
      <trkpt lat="44.99798" lon="0.52683">
        <ele>115.225098</ele>
        <time>2013-03-04T12:27:24Z</time>
      </trkpt>
      <trkpt lat="44.99807" lon="0.52683">
        <ele>115.169739</ele>
        <time>2013-03-04T12:27:27Z</time>
      </trkpt>
      <trkpt lat="44.99818" lon="0.52687">
        <ele>115.316345</ele>
        <time>2013-03-04T12:27:28Z</time>
      </trkpt>
      <trkpt lat="44.99823" lon="0.5269">
        <ele>115.432861</ele>
        <time>2013-03-04T12:27:29Z</time>
      </trkpt>
      <trkpt lat="44.99833" lon="0.52695">
        <ele>115.72406</ele>
        <time>2013-03-04T12:27:31Z</time>
      </trkpt>
      <trkpt lat="44.99838" lon="0.52699">
        <ele>115.590088</ele>
        <time>2013-03-04T12:27:32Z</time>
      </trkpt>
      <trkpt lat="44.99848" lon="0.52705">
        <ele>115.296143</ele>
        <time>2013-03-04T12:27:34Z</time>
      </trkpt>
      <trkpt lat="44.99852" lon="0.52708">
        <ele>115.122559</ele>
        <time>2013-03-04T12:27:36Z</time>
      </trkpt>
      <trkpt lat="44.99865" lon="0.52717">
        <ele>114.634583</ele>
        <time>2013-03-04T12:27:37Z</time>
      </trkpt>
      <trkpt lat="44.99871" lon="0.52721">
        <ele>114.384277</ele>
        <time>2013-03-04T12:27:38Z</time>
      </trkpt>
      <trkpt lat="44.99879" lon="0.52726">
        <ele>114.003784</ele>
        <time>2013-03-04T12:27:40Z</time>
      </trkpt>
      <trkpt lat="44.9989" lon="0.52732">
        <ele>113.441833</ele>
        <time>2013-03-04T12:27:42Z</time>
      </trkpt>
      <trkpt lat="44.99901" lon="0.52737">
        <ele>112.822754</ele>
        <time>2013-03-04T12:27:44Z</time>
      </trkpt>
      <trkpt lat="44.99907" lon="0.5274">
        <ele>112.424133</ele>
        <time>2013-03-04T12:27:45Z</time>
      </trkpt>
      <trkpt lat="44.9992" lon="0.52745">
        <ele>111.848999</ele>
        <time>2013-03-04T12:27:47Z</time>
      </trkpt>
      <trkpt lat="44.99926" lon="0.52747">
        <ele>111.922791</ele>
        <time>2013-03-04T12:27:48Z</time>
      </trkpt>
      <trkpt lat="44.99933" lon="0.52747">
        <ele>111.964478</ele>
        <time>2013-03-04T12:27:49Z</time>
      </trkpt>
      <trkpt lat="44.99942" lon="0.52747">
        <ele>112.001404</ele>
        <time>2013-03-04T12:28:01Z</time>
      </trkpt>
      <trkpt lat="44.99949" lon="0.52746">
        <ele>112.041504</ele>
        <time>2013-03-04T12:28:06Z</time>
      </trkpt>
      <trkpt lat="44.99954" lon="0.52745">
        <ele>112.098022</ele>
        <time>2013-03-04T12:28:08Z</time>
      </trkpt>
      <trkpt lat="44.99961" lon="0.52742">
        <ele>112.217468</ele>
        <time>2013-03-04T12:28:11Z</time>
      </trkpt>
      <trkpt lat="44.99967" lon="0.5274">
        <ele>112.354431</ele>
        <time>2013-03-04T12:28:12Z</time>
      </trkpt>
      <trkpt lat="44.99974" lon="0.52737">
        <ele>112.58783</ele>
        <time>2013-03-04T12:28:14Z</time>
      </trkpt>
      <trkpt lat="44.99979" lon="0.52736">
        <ele>112.730835</ele>
        <time>2013-03-04T12:28:17Z</time>
      </trkpt>
      <trkpt lat="44.99985" lon="0.52735">
        <ele>112.914429</ele>
        <time>2013-03-04T12:28:20Z</time>
      </trkpt>
      <trkpt lat="44.99991" lon="0.52734">
        <ele>113.119995</ele>
        <time>2013-03-04T12:28:24Z</time>
      </trkpt>
      <trkpt lat="44.99994" lon="0.52715">
        <ele>114.69043</ele>
        <time>2013-03-04T12:28:27Z</time>
      </trkpt>
      <trkpt lat="45" lon="0.52717">
        <ele>114.818359</ele>
        <time>2013-03-04T12:28:30Z</time>
      </trkpt>
      <trkpt lat="45.00005" lon="0.52718">
        <ele>115.081116</ele>
        <time>2013-03-04T12:28:33Z</time>
      </trkpt>
      <trkpt lat="45.00011" lon="0.52719">
        <ele>115.414978</ele>
        <time>2013-03-04T12:28:37Z</time>
      </trkpt>
      <trkpt lat="45.00016" lon="0.5272">
        <ele>115.682007</ele>
        <time>2013-03-04T12:28:39Z</time>
      </trkpt>
      <trkpt lat="45.00019" lon="0.52721">
        <ele>115.745483</ele>
        <time>2013-03-04T12:28:44Z</time>
      </trkpt>
      <trkpt lat="45.00023" lon="0.52721">
        <ele>116.175964</ele>
        <time>2013-03-04T12:28:48Z</time>
      </trkpt>
      <trkpt lat="45.00029" lon="0.52719">
        <ele>116.739929</ele>
        <time>2013-03-04T12:28:51Z</time>
      </trkpt>
      <trkpt lat="45.00034" lon="0.52718">
        <ele>117.275513</ele>
        <time>2013-03-04T12:28:53Z</time>
      </trkpt>
      <trkpt lat="45.00039" lon="0.52716">
        <ele>117.940918</ele>
        <time>2013-03-04T12:28:55Z</time>
      </trkpt>
      <trkpt lat="45.00044" lon="0.52713">
        <ele>118.681213</ele>
        <time>2013-03-04T12:28:57Z</time>
      </trkpt>
      <trkpt lat="45.00049" lon="0.52711">
        <ele>119.305481</ele>
        <time>2013-03-04T12:28:59Z</time>
      </trkpt>
      <trkpt lat="45.00055" lon="0.52709">
        <ele>119.966736</ele>
        <time>2013-03-04T12:29:02Z</time>
      </trkpt>
      <trkpt lat="45.0006" lon="0.52708">
        <ele>120.567078</ele>
        <time>2013-03-04T12:29:05Z</time>
      </trkpt>
      <trkpt lat="45.00065" lon="0.52706">
        <ele>121.358337</ele>
        <time>2013-03-04T12:29:08Z</time>
      </trkpt>
      <trkpt lat="45.0007" lon="0.52703">
        <ele>122.156555</ele>
        <time>2013-03-04T12:29:10Z</time>
      </trkpt>
      <trkpt lat="45.00075" lon="0.52701">
        <ele>122.853577</ele>
        <time>2013-03-04T12:29:12Z</time>
      </trkpt>
      <trkpt lat="45.0008" lon="0.527">
        <ele>123.427002</ele>
        <time>2013-03-04T12:29:14Z</time>
      </trkpt>
      <trkpt lat="45.00086" lon="0.52698">
        <ele>124.158691</ele>
        <time>2013-03-04T12:29:17Z</time>
      </trkpt>
      <trkpt lat="45.00091" lon="0.52698">
        <ele>124.134766</ele>
        <time>2013-03-04T12:29:21Z</time>
      </trkpt>
      <trkpt lat="45.00096" lon="0.527">
        <ele>123.893982</ele>
        <time>2013-03-04T12:29:25Z</time>
      </trkpt>
      <trkpt lat="45.00102" lon="0.527">
        <ele>123.950745</ele>
        <time>2013-03-04T12:29:28Z</time>
      </trkpt>
      <trkpt lat="45.00106" lon="0.52696">
        <ele>124.565308</ele>
        <time>2013-03-04T12:29:30Z</time>
      </trkpt>
      <trkpt lat="45.0011" lon="0.52692">
        <ele>125.213989</ele>
        <time>2013-03-04T12:29:32Z</time>
      </trkpt>
      <trkpt lat="45.00115" lon="0.52689">
        <ele>125.558105</ele>
        <time>2013-03-04T12:29:35Z</time>
      </trkpt>
      <trkpt lat="45.00121" lon="0.52687">
        <ele>125.93811</ele>
        <time>2013-03-04T12:29:38Z</time>
      </trkpt>
      <trkpt lat="45.00125" lon="0.52683">
        <ele>126.492981</ele>
        <time>2013-03-04T12:29:40Z</time>
      </trkpt>
      <trkpt lat="45.00131" lon="0.52681">
        <ele>126.92157</ele>
        <time>2013-03-04T12:29:42Z</time>
      </trkpt>
      <trkpt lat="45.00135" lon="0.52679">
        <ele>127.199402</ele>
        <time>2013-03-04T12:29:44Z</time>
      </trkpt>
      <trkpt lat="45.00142" lon="0.52678">
        <ele>127.378723</ele>
        <time>2013-03-04T12:29:47Z</time>
      </trkpt>
      <trkpt lat="45.00147" lon="0.52675">
        <ele>127.737305</ele>
        <time>2013-03-04T12:29:50Z</time>
      </trkpt>
      <trkpt lat="45.00153" lon="0.52674">
        <ele>127.908386</ele>
        <time>2013-03-04T12:29:51Z</time>
      </trkpt>
      <trkpt lat="45.00158" lon="0.52673">
        <ele>128.037659</ele>
        <time>2013-03-04T12:29:53Z</time>
      </trkpt>
      <trkpt lat="45.00162" lon="0.52672">
        <ele>128.212036</ele>
        <time>2013-03-04T12:29:55Z</time>
      </trkpt>
      <trkpt lat="45.00167" lon="0.5267">
        <ele>128.460693</ele>
        <time>2013-03-04T12:29:57Z</time>
      </trkpt>
      <trkpt lat="45.00172" lon="0.52669">
        <ele>128.916748</ele>
        <time>2013-03-04T12:30:00Z</time>
      </trkpt>
      <trkpt lat="45.00177" lon="0.52667">
        <ele>129.49884</ele>
        <time>2013-03-04T12:30:02Z</time>
      </trkpt>
      <trkpt lat="45.00183" lon="0.52664">
        <ele>130.372742</ele>
        <time>2013-03-04T12:30:03Z</time>
      </trkpt>
      <trkpt lat="45.00189" lon="0.52661">
        <ele>131.076843</ele>
        <time>2013-03-04T12:30:05Z</time>
      </trkpt>
      <trkpt lat="45.00195" lon="0.52661">
        <ele>131.330505</ele>
        <time>2013-03-04T12:30:07Z</time>
      </trkpt>
      <trkpt lat="45.002" lon="0.52662">
        <ele>131.418884</ele>
        <time>2013-03-04T12:30:09Z</time>
      </trkpt>
      <trkpt lat="45.00205" lon="0.52664">
        <ele>131.254211</ele>
        <time>2013-03-04T12:30:11Z</time>
      </trkpt>
      <trkpt lat="45.0021" lon="0.52664">
        <ele>131.568481</ele>
        <time>2013-03-04T12:30:13Z</time>
      </trkpt>
      <trkpt lat="45.00215" lon="0.52662">
        <ele>132.235657</ele>
        <time>2013-03-04T12:30:15Z</time>
      </trkpt>
      <trkpt lat="45.0022" lon="0.52661">
        <ele>132.669189</ele>
        <time>2013-03-04T12:30:17Z</time>
      </trkpt>
      <trkpt lat="45.00225" lon="0.52659">
        <ele>133.114319</ele>
        <time>2013-03-04T12:30:19Z</time>
      </trkpt>
      <trkpt lat="45.0023" lon="0.52657">
        <ele>133.783447</ele>
        <time>2013-03-04T12:30:21Z</time>
      </trkpt>
      <trkpt lat="45.00236" lon="0.52654">
        <ele>134.446899</ele>
        <time>2013-03-04T12:30:25Z</time>
      </trkpt>
      <trkpt lat="45.00243" lon="0.52653">
        <ele>134.939819</ele>
        <time>2013-03-04T12:30:27Z</time>
      </trkpt>
      <trkpt lat="45.0025" lon="0.52654">
        <ele>135.180481</ele>
        <time>2013-03-04T12:30:30Z</time>
      </trkpt>
      <trkpt lat="45.00256" lon="0.52654">
        <ele>135.251465</ele>
        <time>2013-03-04T12:30:33Z</time>
      </trkpt>
      <trkpt lat="45.00262" lon="0.52652">
        <ele>135.516968</ele>
        <time>2013-03-04T12:30:36Z</time>
      </trkpt>
      <trkpt lat="45.00267" lon="0.5265">
        <ele>135.966187</ele>
        <time>2013-03-04T12:30:38Z</time>
      </trkpt>
      <trkpt lat="45.00272" lon="0.52647">
        <ele>136.433472</ele>
        <time>2013-03-04T12:30:40Z</time>
      </trkpt>
      <trkpt lat="45.00276" lon="0.52643">
        <ele>137.14386</ele>
        <time>2013-03-04T12:30:42Z</time>
      </trkpt>
      <trkpt lat="45.00281" lon="0.5264">
        <ele>137.7995</ele>
        <time>2013-03-04T12:30:44Z</time>
      </trkpt>
      <trkpt lat="45.00286" lon="0.52637">
        <ele>138.244873</ele>
        <time>2013-03-04T12:30:46Z</time>
      </trkpt>
      <trkpt lat="45.00291" lon="0.52636">
        <ele>138.546814</ele>
        <time>2013-03-04T12:30:48Z</time>
      </trkpt>
      <trkpt lat="45.00296" lon="0.52634">
        <ele>138.786743</ele>
        <time>2013-03-04T12:30:50Z</time>
      </trkpt>
      <trkpt lat="45.00302" lon="0.52634">
        <ele>138.931519</ele>
        <time>2013-03-04T12:30:52Z</time>
      </trkpt>
      <trkpt lat="45.00307" lon="0.52632">
        <ele>139.150208</ele>
        <time>2013-03-04T12:30:54Z</time>
      </trkpt>
      <trkpt lat="45.00312" lon="0.52632">
        <ele>139.248718</ele>
        <time>2013-03-04T12:30:56Z</time>
      </trkpt>
      <trkpt lat="45.00317" lon="0.52633">
        <ele>139.105347</ele>
        <time>2013-03-04T12:30:59Z</time>
      </trkpt>
      <trkpt lat="45.00323" lon="0.52634">
        <ele>139.064392</ele>
        <time>2013-03-04T12:31:00Z</time>
      </trkpt>
      <trkpt lat="45.00328" lon="0.52634">
        <ele>139.095642</ele>
        <time>2013-03-04T12:31:02Z</time>
      </trkpt>
      <trkpt lat="45.00333" lon="0.52634">
        <ele>139.136475</ele>
        <time>2013-03-04T12:31:04Z</time>
      </trkpt>
      <trkpt lat="45.00339" lon="0.52634">
        <ele>138.469482</ele>
        <time>2013-03-04T12:31:07Z</time>
      </trkpt>
      <trkpt lat="45.00345" lon="0.52634">
        <ele>137.786011</ele>
        <time>2013-03-04T12:31:10Z</time>
      </trkpt>
      <trkpt lat="45.00352" lon="0.52635">
        <ele>136.866577</ele>
        <time>2013-03-04T12:31:13Z</time>
      </trkpt>
      <trkpt lat="45.00357" lon="0.52637">
        <ele>136.036011</ele>
        <time>2013-03-04T12:31:15Z</time>
      </trkpt>
      <trkpt lat="45.00362" lon="0.5264">
        <ele>135.209106</ele>
        <time>2013-03-04T12:31:18Z</time>
      </trkpt>
      <trkpt lat="45.00368" lon="0.52644">
        <ele>134.358948</ele>
        <time>2013-03-04T12:31:19Z</time>
      </trkpt>
      <trkpt lat="45.00372" lon="0.52646">
        <ele>133.740356</ele>
        <time>2013-03-04T12:31:21Z</time>
      </trkpt>
      <trkpt lat="45.00376" lon="0.52648">
        <ele>133.251953</ele>
        <time>2013-03-04T12:31:23Z</time>
      </trkpt>
      <trkpt lat="45.00381" lon="0.5265">
        <ele>132.681824</ele>
        <time>2013-03-04T12:31:25Z</time>
      </trkpt>
      <trkpt lat="45.00388" lon="0.52656">
        <ele>131.913574</ele>
        <time>2013-03-04T12:31:27Z</time>
      </trkpt>
      <trkpt lat="45.00395" lon="0.52662">
        <ele>131.176819</ele>
        <time>2013-03-04T12:31:29Z</time>
      </trkpt>
      <trkpt lat="45.00401" lon="0.52667">
        <ele>130.731934</ele>
        <time>2013-03-04T12:31:31Z</time>
      </trkpt>
      <trkpt lat="45.00408" lon="0.52673">
        <ele>129.940308</ele>
        <time>2013-03-04T12:31:33Z</time>
      </trkpt>
      <trkpt lat="45.00414" lon="0.5268">
        <ele>129.096008</ele>
        <time>2013-03-04T12:31:35Z</time>
      </trkpt>
      <trkpt lat="45.00421" lon="0.52689">
        <ele>128.352783</ele>
        <time>2013-03-04T12:31:38Z</time>
      </trkpt>
      <trkpt lat="45.00427" lon="0.52699">
        <ele>127.648376</ele>
        <time>2013-03-04T12:31:39Z</time>
      </trkpt>
      <trkpt lat="45.00433" lon="0.52708">
        <ele>127.126648</ele>
        <time>2013-03-04T12:31:41Z</time>
      </trkpt>
      <trkpt lat="45.00438" lon="0.52715">
        <ele>126.803223</ele>
        <time>2013-03-04T12:31:43Z</time>
      </trkpt>
      <trkpt lat="45.00443" lon="0.52719">
        <ele>126.652954</ele>
        <time>2013-03-04T12:31:45Z</time>
      </trkpt>
      <trkpt lat="45.00449" lon="0.52723">
        <ele>126.621948</ele>
        <time>2013-03-04T12:31:48Z</time>
      </trkpt>
      <trkpt lat="45.00454" lon="0.52729">
        <ele>126.509644</ele>
        <time>2013-03-04T12:31:50Z</time>
      </trkpt>
      <trkpt lat="45.00456" lon="0.52736">
        <ele>126.332764</ele>
        <time>2013-03-04T12:31:51Z</time>
      </trkpt>
      <trkpt lat="45.00458" lon="0.52748">
        <ele>126.056152</ele>
        <time>2013-03-04T12:31:53Z</time>
      </trkpt>
      <trkpt lat="45.00462" lon="0.52758">
        <ele>126.098206</ele>
        <time>2013-03-04T12:31:55Z</time>
      </trkpt>
      <trkpt lat="45.00469" lon="0.52767">
        <ele>126.38855</ele>
        <time>2013-03-04T12:31:57Z</time>
      </trkpt>
      <trkpt lat="45.00476" lon="0.52774">
        <ele>126.785706</ele>
        <time>2013-03-04T12:31:59Z</time>
      </trkpt>
      <trkpt lat="45.00479" lon="0.52779">
        <ele>127.002014</ele>
        <time>2013-03-04T12:32:00Z</time>
      </trkpt>
      <trkpt lat="45.00483" lon="0.52784">
        <ele>127.223999</ele>
        <time>2013-03-04T12:32:01Z</time>
      </trkpt>
      <trkpt lat="45.00489" lon="0.52793">
        <ele>127.683655</ele>
        <time>2013-03-04T12:32:03Z</time>
      </trkpt>
      <trkpt lat="45.00494" lon="0.52802">
        <ele>128.167297</ele>
        <time>2013-03-04T12:32:05Z</time>
      </trkpt>
      <trkpt lat="45.005" lon="0.52811">
        <ele>128.690979</ele>
        <time>2013-03-04T12:32:07Z</time>
      </trkpt>
      <trkpt lat="45.00504" lon="0.52819">
        <ele>128.878906</ele>
        <time>2013-03-04T12:32:09Z</time>
      </trkpt>
      <trkpt lat="45.00508" lon="0.52828">
        <ele>129.103333</ele>
        <time>2013-03-04T12:32:11Z</time>
      </trkpt>
      <trkpt lat="45.00512" lon="0.52837">
        <ele>129.154724</ele>
        <time>2013-03-04T12:32:13Z</time>
      </trkpt>
      <trkpt lat="45.00516" lon="0.52845">
        <ele>128.971558</ele>
        <time>2013-03-04T12:32:15Z</time>
      </trkpt>
      <trkpt lat="45.0052" lon="0.52854">
        <ele>128.822205</ele>
        <time>2013-03-04T12:32:17Z</time>
      </trkpt>
      <trkpt lat="45.00525" lon="0.52864">
        <ele>128.776489</ele>
        <time>2013-03-04T12:32:19Z</time>
      </trkpt>
      <trkpt lat="45.00531" lon="0.52873">
        <ele>128.899475</ele>
        <time>2013-03-04T12:32:21Z</time>
      </trkpt>
      <trkpt lat="45.00536" lon="0.5288">
        <ele>129.061707</ele>
        <time>2013-03-04T12:32:23Z</time>
      </trkpt>
      <trkpt lat="45.00542" lon="0.52884">
        <ele>129.382568</ele>
        <time>2013-03-04T12:32:25Z</time>
      </trkpt>
      <trkpt lat="45.00548" lon="0.52887">
        <ele>129.812561</ele>
        <time>2013-03-04T12:32:27Z</time>
      </trkpt>
      <trkpt lat="45.00555" lon="0.5289">
        <ele>130.312134</ele>
        <time>2013-03-04T12:32:29Z</time>
      </trkpt>
      <trkpt lat="45.00562" lon="0.52893">
        <ele>130.787476</ele>
        <time>2013-03-04T12:32:31Z</time>
      </trkpt>
      <trkpt lat="45.00567" lon="0.52896">
        <ele>131.247498</ele>
        <time>2013-03-04T12:32:33Z</time>
      </trkpt>
      <trkpt lat="45.00572" lon="0.52899">
        <ele>131.653687</ele>
        <time>2013-03-04T12:32:35Z</time>
      </trkpt>
      <trkpt lat="45.00577" lon="0.52901">
        <ele>132.070496</ele>
        <time>2013-03-04T12:32:37Z</time>
      </trkpt>
      <trkpt lat="45.00581" lon="0.52904">
        <ele>132.521362</ele>
        <time>2013-03-04T12:32:39Z</time>
      </trkpt>
      <trkpt lat="45.00588" lon="0.52908">
        <ele>132.649658</ele>
        <time>2013-03-04T12:32:41Z</time>
      </trkpt>
      <trkpt lat="45.00595" lon="0.52908">
        <ele>132.444946</ele>
        <time>2013-03-04T12:32:43Z</time>
      </trkpt>
      <trkpt lat="45.00602" lon="0.52905">
        <ele>132.13092</ele>
        <time>2013-03-04T12:32:45Z</time>
      </trkpt>
      <trkpt lat="45.00609" lon="0.52903">
        <ele>131.805786</ele>
        <time>2013-03-04T12:32:47Z</time>
      </trkpt>
      <trkpt lat="45.00616" lon="0.52901">
        <ele>131.452393</ele>
        <time>2013-03-04T12:32:49Z</time>
      </trkpt>
      <trkpt lat="45.00623" lon="0.52898">
        <ele>131.066406</ele>
        <time>2013-03-04T12:32:51Z</time>
      </trkpt>
      <trkpt lat="45.0063" lon="0.52894">
        <ele>130.589294</ele>
        <time>2013-03-04T12:32:53Z</time>
      </trkpt>
      <trkpt lat="45.00637" lon="0.52891">
        <ele>130.101685</ele>
        <time>2013-03-04T12:32:56Z</time>
      </trkpt>
      <trkpt lat="45.00643" lon="0.52896">
        <ele>130.157043</ele>
        <time>2013-03-04T12:32:57Z</time>
      </trkpt>
      <trkpt lat="45.00648" lon="0.52907">
        <ele>130.740479</ele>
        <time>2013-03-04T12:32:59Z</time>
      </trkpt>
      <trkpt lat="45.0065" lon="0.52918">
        <ele>131.427917</ele>
        <time>2013-03-04T12:33:01Z</time>
      </trkpt>
      <trkpt lat="45.00652" lon="0.52928">
        <ele>131.648132</ele>
        <time>2013-03-04T12:33:03Z</time>
      </trkpt>
      <trkpt lat="45.00655" lon="0.52938">
        <ele>131.875244</ele>
        <time>2013-03-04T12:33:05Z</time>
      </trkpt>
      <trkpt lat="45.00657" lon="0.52947">
        <ele>132.117249</ele>
        <time>2013-03-04T12:33:07Z</time>
      </trkpt>
      <trkpt lat="45.00659" lon="0.52956">
        <ele>132.372375</ele>
        <time>2013-03-04T12:33:09Z</time>
      </trkpt>
      <trkpt lat="45.00662" lon="0.52964">
        <ele>132.665527</ele>
        <time>2013-03-04T12:33:11Z</time>
      </trkpt>
      <trkpt lat="45.00666" lon="0.52972">
        <ele>132.959412</ele>
        <time>2013-03-04T12:33:13Z</time>
      </trkpt>
      <trkpt lat="45.00669" lon="0.52977">
        <ele>132.919189</ele>
        <time>2013-03-04T12:33:15Z</time>
      </trkpt>
      <trkpt lat="45.00673" lon="0.52982">
        <ele>132.687622</ele>
        <time>2013-03-04T12:33:17Z</time>
      </trkpt>
      <trkpt lat="45.0068" lon="0.52985">
        <ele>132.14325</ele>
        <time>2013-03-04T12:33:19Z</time>
      </trkpt>
      <trkpt lat="45.00687" lon="0.52986">
        <ele>131.502258</ele>
        <time>2013-03-04T12:33:21Z</time>
      </trkpt>
      <trkpt lat="45.00695" lon="0.52986">
        <ele>130.644043</ele>
        <time>2013-03-04T12:33:23Z</time>
      </trkpt>
      <trkpt lat="45.00711" lon="0.5299">
        <ele>129.316223</ele>
        <time>2013-03-04T12:33:25Z</time>
      </trkpt>
      <trkpt lat="45.00717" lon="0.52996">
        <ele>128.986084</ele>
        <time>2013-03-04T12:33:25Z</time>
      </trkpt>
      <trkpt lat="45.00723" lon="0.53">
        <ele>128.573975</ele>
        <time>2013-03-04T12:33:26Z</time>
      </trkpt>
      <trkpt lat="45.00728" lon="0.53001">
        <ele>128.206909</ele>
        <time>2013-03-04T12:33:27Z</time>
      </trkpt>
      <trkpt lat="45.00738" lon="0.53007">
        <ele>127.458069</ele>
        <time>2013-03-04T12:33:29Z</time>
      </trkpt>
      <trkpt lat="45.00744" lon="0.53011">
        <ele>127.02948</ele>
        <time>2013-03-04T12:33:31Z</time>
      </trkpt>
      <trkpt lat="45.00753" lon="0.53018">
        <ele>126.619995</ele>
        <time>2013-03-04T12:33:33Z</time>
      </trkpt>
      <trkpt lat="45.00759" lon="0.53028">
        <ele>126.656311</ele>
        <time>2013-03-04T12:33:35Z</time>
      </trkpt>
      <trkpt lat="45.00766" lon="0.53033">
        <ele>126.354248</ele>
        <time>2013-03-04T12:33:37Z</time>
      </trkpt>
      <trkpt lat="45.00772" lon="0.53037">
        <ele>126.172852</ele>
        <time>2013-03-04T12:33:39Z</time>
      </trkpt>
      <trkpt lat="45.00778" lon="0.53041">
        <ele>125.941895</ele>
        <time>2013-03-04T12:33:41Z</time>
      </trkpt>
      <trkpt lat="45.00785" lon="0.53046">
        <ele>125.750488</ele>
        <time>2013-03-04T12:33:43Z</time>
      </trkpt>
      <trkpt lat="45.00793" lon="0.5305">
        <ele>125.502502</ele>
        <time>2013-03-04T12:33:45Z</time>
      </trkpt>
      <trkpt lat="45.00798" lon="0.53053">
        <ele>125.379089</ele>
        <time>2013-03-04T12:33:46Z</time>
      </trkpt>
      <trkpt lat="45.00806" lon="0.53059">
        <ele>125.303345</ele>
        <time>2013-03-04T12:33:48Z</time>
      </trkpt>
      <trkpt lat="45.0081" lon="0.53062">
        <ele>125.33551</ele>
        <time>2013-03-04T12:33:49Z</time>
      </trkpt>
      <trkpt lat="45.00816" lon="0.53067">
        <ele>125.35907</ele>
        <time>2013-03-04T12:33:51Z</time>
      </trkpt>
      <trkpt lat="45.00823" lon="0.53071">
        <ele>125.38324</ele>
        <time>2013-03-04T12:33:53Z</time>
      </trkpt>
      <trkpt lat="45.00831" lon="0.53076">
        <ele>125.378784</ele>
        <time>2013-03-04T12:33:55Z</time>
      </trkpt>
      <trkpt lat="45.00836" lon="0.53078">
        <ele>125.215942</ele>
        <time>2013-03-04T12:33:56Z</time>
      </trkpt>
      <trkpt lat="45.00846" lon="0.53084">
        <ele>124.399719</ele>
        <time>2013-03-04T12:33:58Z</time>
      </trkpt>
      <trkpt lat="45.00851" lon="0.53087">
        <ele>123.79248</ele>
        <time>2013-03-04T12:33:59Z</time>
      </trkpt>
      <trkpt lat="45.00871" lon="0.53102">
        <ele>122.054565</ele>
        <time>2013-03-04T12:34:01Z</time>
      </trkpt>
      <trkpt lat="45.00878" lon="0.53109">
        <ele>121.522705</ele>
        <time>2013-03-04T12:34:02Z</time>
      </trkpt>
      <trkpt lat="45.00891" lon="0.53125">
        <ele>120.696777</ele>
        <time>2013-03-04T12:34:04Z</time>
      </trkpt>
      <trkpt lat="45.00904" lon="0.53137">
        <ele>119.80249</ele>
        <time>2013-03-04T12:34:06Z</time>
      </trkpt>
      <trkpt lat="45.00909" lon="0.53141">
        <ele>119.396851</ele>
        <time>2013-03-04T12:34:07Z</time>
      </trkpt>
      <trkpt lat="45.00915" lon="0.53146">
        <ele>119.003296</ele>
        <time>2013-03-04T12:34:08Z</time>
      </trkpt>
      <trkpt lat="45.00919" lon="0.5315">
        <ele>118.782837</ele>
        <time>2013-03-04T12:34:09Z</time>
      </trkpt>
      <trkpt lat="45.00926" lon="0.53156">
        <ele>118.605164</ele>
        <time>2013-03-04T12:34:10Z</time>
      </trkpt>
      <trkpt lat="45.00937" lon="0.53163">
        <ele>118.111511</ele>
        <time>2013-03-04T12:34:12Z</time>
      </trkpt>
      <trkpt lat="45.00947" lon="0.53169">
        <ele>117.581421</ele>
        <time>2013-03-04T12:34:14Z</time>
      </trkpt>
      <trkpt lat="45.00955" lon="0.53179">
        <ele>117.304932</ele>
        <time>2013-03-04T12:34:16Z</time>
      </trkpt>
      <trkpt lat="45.00963" lon="0.53183">
        <ele>116.806763</ele>
        <time>2013-03-04T12:34:18Z</time>
      </trkpt>
      <trkpt lat="45.00971" lon="0.53188">
        <ele>116.394897</ele>
        <time>2013-03-04T12:34:21Z</time>
      </trkpt>
      <trkpt lat="45.0098" lon="0.53194">
        <ele>115.900696</ele>
        <time>2013-03-04T12:34:22Z</time>
      </trkpt>
      <trkpt lat="45.00985" lon="0.53196">
        <ele>115.582825</ele>
        <time>2013-03-04T12:34:23Z</time>
      </trkpt>
      <trkpt lat="45.00989" lon="0.53198">
        <ele>115.343689</ele>
        <time>2013-03-04T12:34:25Z</time>
      </trkpt>
      <trkpt lat="45.01" lon="0.53209">
        <ele>115.029846</ele>
        <time>2013-03-04T12:34:26Z</time>
      </trkpt>
      <trkpt lat="45.01005" lon="0.53212">
        <ele>114.887512</ele>
        <time>2013-03-04T12:34:27Z</time>
      </trkpt>
      <trkpt lat="45.01011" lon="0.53218">
        <ele>114.837646</ele>
        <time>2013-03-04T12:34:29Z</time>
      </trkpt>
      <trkpt lat="45.01024" lon="0.53228">
        <ele>114.586121</ele>
        <time>2013-03-04T12:34:30Z</time>
      </trkpt>
      <trkpt lat="45.0103" lon="0.53233">
        <ele>114.431458</ele>
        <time>2013-03-04T12:34:31Z</time>
      </trkpt>
      <trkpt lat="45.01041" lon="0.53242">
        <ele>114.176941</ele>
        <time>2013-03-04T12:34:33Z</time>
      </trkpt>
      <trkpt lat="45.01047" lon="0.53246">
        <ele>113.998047</ele>
        <time>2013-03-04T12:34:34Z</time>
      </trkpt>
      <trkpt lat="45.01059" lon="0.53254">
        <ele>113.736267</ele>
        <time>2013-03-04T12:34:36Z</time>
      </trkpt>
      <trkpt lat="45.01064" lon="0.53257">
        <ele>113.662659</ele>
        <time>2013-03-04T12:34:37Z</time>
      </trkpt>
      <trkpt lat="45.01076" lon="0.53264">
        <ele>113.470459</ele>
        <time>2013-03-04T12:34:39Z</time>
      </trkpt>
      <trkpt lat="45.01087" lon="0.53269">
        <ele>113.172546</ele>
        <time>2013-03-04T12:34:41Z</time>
      </trkpt>
      <trkpt lat="45.01094" lon="0.53277">
        <ele>113.212708</ele>
        <time>2013-03-04T12:34:43Z</time>
      </trkpt>
      <trkpt lat="45.01103" lon="0.53285">
        <ele>113.122192</ele>
        <time>2013-03-04T12:34:45Z</time>
      </trkpt>
      <trkpt lat="45.01112" lon="0.53291">
        <ele>112.868164</ele>
        <time>2013-03-04T12:34:47Z</time>
      </trkpt>
      <trkpt lat="45.01121" lon="0.53328">
        <ele>114.490479</ele>
        <time>2013-03-04T12:34:49Z</time>
      </trkpt>
      <trkpt lat="45.0113" lon="0.53335">
        <ele>114.286133</ele>
        <time>2013-03-04T12:34:53Z</time>
      </trkpt>
      <trkpt lat="45.01138" lon="0.53343">
        <ele>114.256042</ele>
        <time>2013-03-04T12:34:54Z</time>
      </trkpt>
      <trkpt lat="45.01151" lon="0.53355">
        <ele>114.250183</ele>
        <time>2013-03-04T12:34:56Z</time>
      </trkpt>
      <trkpt lat="45.01157" lon="0.53362">
        <ele>114.236755</ele>
        <time>2013-03-04T12:34:57Z</time>
      </trkpt>
      <trkpt lat="45.01161" lon="0.53366">
        <ele>114.225708</ele>
        <time>2013-03-04T12:34:58Z</time>
      </trkpt>
      <trkpt lat="45.01167" lon="0.53372">
        <ele>114.247314</ele>
        <time>2013-03-04T12:34:59Z</time>
      </trkpt>
      <trkpt lat="45.01172" lon="0.53378">
        <ele>114.49646</ele>
        <time>2013-03-04T12:35:00Z</time>
      </trkpt>
      <trkpt lat="45.01176" lon="0.53382">
        <ele>114.691711</ele>
        <time>2013-03-04T12:35:01Z</time>
      </trkpt>
      <trkpt lat="45.01183" lon="0.5339">
        <ele>114.979492</ele>
        <time>2013-03-04T12:35:03Z</time>
      </trkpt>
      <trkpt lat="45.01192" lon="0.534">
        <ele>115.228882</ele>
        <time>2013-03-04T12:35:05Z</time>
      </trkpt>
      <trkpt lat="45.01198" lon="0.53406">
        <ele>115.341064</ele>
        <time>2013-03-04T12:35:06Z</time>
      </trkpt>
      <trkpt lat="45.01203" lon="0.53411">
        <ele>115.406311</ele>
        <time>2013-03-04T12:35:08Z</time>
      </trkpt>
      <trkpt lat="45.0122" lon="0.53427">
        <ele>115.216309</ele>
        <time>2013-03-04T12:35:10Z</time>
      </trkpt>
      <trkpt lat="45.01224" lon="0.53432">
        <ele>115.152161</ele>
        <time>2013-03-04T12:35:11Z</time>
      </trkpt>
      <trkpt lat="45.0123" lon="0.53437">
        <ele>115.100525</ele>
        <time>2013-03-04T12:35:12Z</time>
      </trkpt>
      <trkpt lat="45.0124" lon="0.53449">
        <ele>115.066406</ele>
        <time>2013-03-04T12:35:14Z</time>
      </trkpt>
      <trkpt lat="45.01244" lon="0.53454">
        <ele>115.083923</ele>
        <time>2013-03-04T12:35:15Z</time>
      </trkpt>
      <trkpt lat="45.01252" lon="0.53463">
        <ele>115.13678</ele>
        <time>2013-03-04T12:35:17Z</time>
      </trkpt>
      <trkpt lat="45.01257" lon="0.53469">
        <ele>115.161865</ele>
        <time>2013-03-04T12:35:19Z</time>
      </trkpt>
      <trkpt lat="45.01268" lon="0.53482">
        <ele>115.151855</ele>
        <time>2013-03-04T12:35:20Z</time>
      </trkpt>
      <trkpt lat="45.01272" lon="0.53487">
        <ele>115.124939</ele>
        <time>2013-03-04T12:35:21Z</time>
      </trkpt>
      <trkpt lat="45.01282" lon="0.53498">
        <ele>115.031921</ele>
        <time>2013-03-04T12:35:23Z</time>
      </trkpt>
      <trkpt lat="45.01292" lon="0.5351">
        <ele>115.531921</ele>
        <time>2013-03-04T12:35:25Z</time>
      </trkpt>
      <trkpt lat="45.01297" lon="0.53514">
        <ele>115.652466</ele>
        <time>2013-03-04T12:35:26Z</time>
      </trkpt>
      <trkpt lat="45.01307" lon="0.53524">
        <ele>115.604919</ele>
        <time>2013-03-04T12:35:28Z</time>
      </trkpt>
      <trkpt lat="45.01317" lon="0.5353">
        <ele>115.142029</ele>
        <time>2013-03-04T12:35:30Z</time>
      </trkpt>
      <trkpt lat="45.01323" lon="0.53534">
        <ele>114.725586</ele>
        <time>2013-03-04T12:35:31Z</time>
      </trkpt>
      <trkpt lat="45.01335" lon="0.53539">
        <ele>113.853577</ele>
        <time>2013-03-04T12:35:33Z</time>
      </trkpt>
      <trkpt lat="45.0134" lon="0.53541">
        <ele>113.870361</ele>
        <time>2013-03-04T12:35:34Z</time>
      </trkpt>
      <trkpt lat="45.01345" lon="0.53544">
        <ele>113.898438</ele>
        <time>2013-03-04T12:35:35Z</time>
      </trkpt>
      <trkpt lat="45.01352" lon="0.53547">
        <ele>113.921997</ele>
        <time>2013-03-04T12:35:36Z</time>
      </trkpt>
      <trkpt lat="45.01362" lon="0.53551">
        <ele>113.911621</ele>
        <time>2013-03-04T12:35:38Z</time>
      </trkpt>
      <trkpt lat="45.01367" lon="0.53553">
        <ele>113.898376</ele>
        <time>2013-03-04T12:35:39Z</time>
      </trkpt>
      <trkpt lat="45.01372" lon="0.53555">
        <ele>113.879028</ele>
        <time>2013-03-04T12:35:40Z</time>
      </trkpt>
      <trkpt lat="45.01378" lon="0.53557">
        <ele>113.85675</ele>
        <time>2013-03-04T12:35:42Z</time>
      </trkpt>
      <trkpt lat="45.01383" lon="0.53559">
        <ele>113.832886</ele>
        <time>2013-03-04T12:35:43Z</time>
      </trkpt>
      <trkpt lat="45.01395" lon="0.53564">
        <ele>113.759583</ele>
        <time>2013-03-04T12:35:44Z</time>
      </trkpt>
      <trkpt lat="45.014" lon="0.53566">
        <ele>113.723022</ele>
        <time>2013-03-04T12:35:45Z</time>
      </trkpt>
      <trkpt lat="45.01406" lon="0.53568">
        <ele>113.694092</ele>
        <time>2013-03-04T12:35:46Z</time>
      </trkpt>
      <trkpt lat="45.01415" lon="0.53572">
        <ele>113.632019</ele>
        <time>2013-03-04T12:35:48Z</time>
      </trkpt>
      <trkpt lat="45.01421" lon="0.53575">
        <ele>113.721252</ele>
        <time>2013-03-04T12:35:49Z</time>
      </trkpt>
      <trkpt lat="45.0143" lon="0.53579">
        <ele>113.976013</ele>
        <time>2013-03-04T12:35:51Z</time>
      </trkpt>
      <trkpt lat="45.0144" lon="0.53583">
        <ele>114.265259</ele>
        <time>2013-03-04T12:35:54Z</time>
      </trkpt>
      <trkpt lat="45.0145" lon="0.53587">
        <ele>114.739258</ele>
        <time>2013-03-04T12:35:55Z</time>
      </trkpt>
      <trkpt lat="45.01454" lon="0.53589">
        <ele>114.998291</ele>
        <time>2013-03-04T12:35:57Z</time>
      </trkpt>
      <trkpt lat="45.01465" lon="0.53593">
        <ele>115.633301</ele>
        <time>2013-03-04T12:35:58Z</time>
      </trkpt>
      <trkpt lat="45.01471" lon="0.53596">
        <ele>115.953552</ele>
        <time>2013-03-04T12:35:59Z</time>
      </trkpt>
      <trkpt lat="45.0148" lon="0.53599">
        <ele>116.524719</ele>
        <time>2013-03-04T12:36:01Z</time>
      </trkpt>
      <trkpt lat="45.01485" lon="0.53601">
        <ele>116.850464</ele>
        <time>2013-03-04T12:36:03Z</time>
      </trkpt>
      <trkpt lat="45.01496" lon="0.53605">
        <ele>117.538696</ele>
        <time>2013-03-04T12:36:04Z</time>
      </trkpt>
      <trkpt lat="45.01503" lon="0.53608">
        <ele>117.95697</ele>
        <time>2013-03-04T12:36:06Z</time>
      </trkpt>
      <trkpt lat="45.01509" lon="0.5361">
        <ele>118.143372</ele>
        <time>2013-03-04T12:36:07Z</time>
      </trkpt>
      <trkpt lat="45.01519" lon="0.53615">
        <ele>118.499512</ele>
        <time>2013-03-04T12:36:09Z</time>
      </trkpt>
      <trkpt lat="45.01529" lon="0.53618">
        <ele>118.763428</ele>
        <time>2013-03-04T12:36:11Z</time>
      </trkpt>
      <trkpt lat="45.01534" lon="0.5362">
        <ele>118.860657</ele>
        <time>2013-03-04T12:36:12Z</time>
      </trkpt>
      <trkpt lat="45.01542" lon="0.53623">
        <ele>118.990601</ele>
        <time>2013-03-04T12:36:14Z</time>
      </trkpt>
      <trkpt lat="45.01551" lon="0.53625">
        <ele>119.099976</ele>
        <time>2013-03-04T12:36:16Z</time>
      </trkpt>
      <trkpt lat="45.01559" lon="0.53628">
        <ele>119.190613</ele>
        <time>2013-03-04T12:36:18Z</time>
      </trkpt>
      <trkpt lat="45.01563" lon="0.53629">
        <ele>119.236877</ele>
        <time>2013-03-04T12:36:19Z</time>
      </trkpt>
      <trkpt lat="45.01568" lon="0.53631">
        <ele>119.276062</ele>
        <time>2013-03-04T12:36:21Z</time>
      </trkpt>
      <trkpt lat="45.01573" lon="0.53632">
        <ele>119.308044</ele>
        <time>2013-03-04T12:36:22Z</time>
      </trkpt>
      <trkpt lat="45.01581" lon="0.53626">
        <ele>118.63562</ele>
        <time>2013-03-04T12:36:23Z</time>
      </trkpt>
      <trkpt lat="45.01585" lon="0.53629">
        <ele>118.76355</ele>
        <time>2013-03-04T12:36:24Z</time>
      </trkpt>
      <trkpt lat="45.01595" lon="0.53634">
        <ele>118.902832</ele>
        <time>2013-03-04T12:36:26Z</time>
      </trkpt>
      <trkpt lat="45.01603" lon="0.53639">
        <ele>119.00946</ele>
        <time>2013-03-04T12:36:28Z</time>
      </trkpt>
      <trkpt lat="45.01607" lon="0.53642">
        <ele>119.044678</ele>
        <time>2013-03-04T12:36:29Z</time>
      </trkpt>
      <trkpt lat="45.01613" lon="0.53644">
        <ele>118.924133</ele>
        <time>2013-03-04T12:36:31Z</time>
      </trkpt>
      <trkpt lat="45.01619" lon="0.53644">
        <ele>118.713013</ele>
        <time>2013-03-04T12:36:33Z</time>
      </trkpt>
      <trkpt lat="45.01626" lon="0.53646">
        <ele>118.622742</ele>
        <time>2013-03-04T12:36:35Z</time>
      </trkpt>
      <trkpt lat="45.01636" lon="0.53654">
        <ele>118.69104</ele>
        <time>2013-03-04T12:36:37Z</time>
      </trkpt>
      <trkpt lat="45.01642" lon="0.53659">
        <ele>118.729919</ele>
        <time>2013-03-04T12:36:39Z</time>
      </trkpt>
      <trkpt lat="45.0165" lon="0.53665">
        <ele>118.729614</ele>
        <time>2013-03-04T12:36:40Z</time>
      </trkpt>
      <trkpt lat="45.01657" lon="0.53674">
        <ele>119.433228</ele>
        <time>2013-03-04T12:36:42Z</time>
      </trkpt>
      <trkpt lat="45.01663" lon="0.53683">
        <ele>120.151001</ele>
        <time>2013-03-04T12:36:44Z</time>
      </trkpt>
      <trkpt lat="45.01668" lon="0.5369">
        <ele>120.727356</ele>
        <time>2013-03-04T12:36:46Z</time>
      </trkpt>
      <trkpt lat="45.01673" lon="0.53697">
        <ele>121.407532</ele>
        <time>2013-03-04T12:36:48Z</time>
      </trkpt>
      <trkpt lat="45.01686" lon="0.53712">
        <ele>122.34552</ele>
        <time>2013-03-04T12:36:50Z</time>
      </trkpt>
      <trkpt lat="45.0169" lon="0.53716">
        <ele>122.531128</ele>
        <time>2013-03-04T12:36:51Z</time>
      </trkpt>
      <trkpt lat="45.01693" lon="0.53722">
        <ele>122.96405</ele>
        <time>2013-03-04T12:36:52Z</time>
      </trkpt>
      <trkpt lat="45.01699" lon="0.53729">
        <ele>123.268555</ele>
        <time>2013-03-04T12:36:54Z</time>
      </trkpt>
      <trkpt lat="45.01706" lon="0.53734">
        <ele>123.245728</ele>
        <time>2013-03-04T12:36:56Z</time>
      </trkpt>
      <trkpt lat="45.01711" lon="0.53739">
        <ele>123.300049</ele>
        <time>2013-03-04T12:36:58Z</time>
      </trkpt>
      <trkpt lat="45.0172" lon="0.53748">
        <ele>123.417114</ele>
        <time>2013-03-04T12:36:59Z</time>
      </trkpt>
      <trkpt lat="45.01724" lon="0.53752">
        <ele>123.430481</ele>
        <time>2013-03-04T12:37:00Z</time>
      </trkpt>
      <trkpt lat="45.01733" lon="0.53762">
        <ele>123.44574</ele>
        <time>2013-03-04T12:37:02Z</time>
      </trkpt>
      <trkpt lat="45.0174" lon="0.53769">
        <ele>123.338379</ele>
        <time>2013-03-04T12:37:04Z</time>
      </trkpt>
      <trkpt lat="45.01744" lon="0.53774">
        <ele>123.305481</ele>
        <time>2013-03-04T12:37:05Z</time>
      </trkpt>
      <trkpt lat="45.01748" lon="0.53779">
        <ele>123.246338</ele>
        <time>2013-03-04T12:37:07Z</time>
      </trkpt>
      <trkpt lat="45.01757" lon="0.53787">
        <ele>123.396362</ele>
        <time>2013-03-04T12:37:08Z</time>
      </trkpt>
      <trkpt lat="45.01762" lon="0.53793">
        <ele>123.507996</ele>
        <time>2013-03-04T12:37:09Z</time>
      </trkpt>
      <trkpt lat="45.01774" lon="0.53804">
        <ele>123.474121</ele>
        <time>2013-03-04T12:37:11Z</time>
      </trkpt>
      <trkpt lat="45.01778" lon="0.53809">
        <ele>123.452576</ele>
        <time>2013-03-04T12:37:12Z</time>
      </trkpt>
      <trkpt lat="45.01783" lon="0.53813">
        <ele>123.372986</ele>
        <time>2013-03-04T12:37:14Z</time>
      </trkpt>
      <trkpt lat="45.0179" lon="0.53823">
        <ele>123.278564</ele>
        <time>2013-03-04T12:37:15Z</time>
      </trkpt>
      <trkpt lat="45.01798" lon="0.5383">
        <ele>122.86322</ele>
        <time>2013-03-04T12:37:17Z</time>
      </trkpt>
      <trkpt lat="45.01807" lon="0.53837">
        <ele>122.433411</ele>
        <time>2013-03-04T12:37:19Z</time>
      </trkpt>
      <trkpt lat="45.01816" lon="0.53843">
        <ele>121.886902</ele>
        <time>2013-03-04T12:37:21Z</time>
      </trkpt>
      <trkpt lat="45.01825" lon="0.53851">
        <ele>121.300476</ele>
        <time>2013-03-04T12:37:23Z</time>
      </trkpt>
      <trkpt lat="45.01833" lon="0.5386">
        <ele>120.726685</ele>
        <time>2013-03-04T12:37:25Z</time>
      </trkpt>
      <trkpt lat="45.01838" lon="0.53862">
        <ele>120.512451</ele>
        <time>2013-03-04T12:37:27Z</time>
      </trkpt>
      <trkpt lat="45.01847" lon="0.53861">
        <ele>120.105957</ele>
        <time>2013-03-04T12:37:29Z</time>
      </trkpt>
      <trkpt lat="45.01855" lon="0.53854">
        <ele>119.646362</ele>
        <time>2013-03-04T12:37:31Z</time>
      </trkpt>
      <trkpt lat="45.0187" lon="0.5385">
        <ele>119.017212</ele>
        <time>2013-03-04T12:37:33Z</time>
      </trkpt>
      <trkpt lat="45.01875" lon="0.53847">
        <ele>118.732971</ele>
        <time>2013-03-04T12:37:35Z</time>
      </trkpt>
      <trkpt lat="45.01882" lon="0.53846">
        <ele>118.479004</ele>
        <time>2013-03-04T12:37:36Z</time>
      </trkpt>
      <trkpt lat="45.01894" lon="0.53832">
        <ele>117.839294</ele>
        <time>2013-03-04T12:37:38Z</time>
      </trkpt>
      <trkpt lat="45.01903" lon="0.53829">
        <ele>117.538391</ele>
        <time>2013-03-04T12:37:39Z</time>
      </trkpt>
      <trkpt lat="45.01911" lon="0.53827">
        <ele>117.290283</ele>
        <time>2013-03-04T12:37:40Z</time>
      </trkpt>
      <trkpt lat="45.01918" lon="0.53826">
        <ele>117.219421</ele>
        <time>2013-03-04T12:37:42Z</time>
      </trkpt>
      <trkpt lat="45.01931" lon="0.53824">
        <ele>118.211304</ele>
        <time>2013-03-04T12:37:44Z</time>
      </trkpt>
      <trkpt lat="45.01936" lon="0.53823">
        <ele>118.61554</ele>
        <time>2013-03-04T12:37:45Z</time>
      </trkpt>
      <trkpt lat="45.01943" lon="0.53822">
        <ele>119.162354</ele>
        <time>2013-03-04T12:37:46Z</time>
      </trkpt>
      <trkpt lat="45.01953" lon="0.53821">
        <ele>119.983215</ele>
        <time>2013-03-04T12:37:48Z</time>
      </trkpt>
      <trkpt lat="45.01959" lon="0.5382">
        <ele>120.421387</ele>
        <time>2013-03-04T12:37:49Z</time>
      </trkpt>
      <trkpt lat="45.01969" lon="0.53818">
        <ele>121.264526</ele>
        <time>2013-03-04T12:37:51Z</time>
      </trkpt>
      <trkpt lat="45.01974" lon="0.53817">
        <ele>121.695984</ele>
        <time>2013-03-04T12:37:52Z</time>
      </trkpt>
      <trkpt lat="45.01978" lon="0.53816">
        <ele>122.119263</ele>
        <time>2013-03-04T12:37:54Z</time>
      </trkpt>
      <trkpt lat="45.01998" lon="0.53805">
        <ele>124.213684</ele>
        <time>2013-03-04T12:37:59Z</time>
      </trkpt>
      <trkpt lat="45.02005" lon="0.53801">
        <ele>124.911499</ele>
        <time>2013-03-04T12:38:01Z</time>
      </trkpt>
      <trkpt lat="45.02011" lon="0.53797">
        <ele>125.521118</ele>
        <time>2013-03-04T12:38:03Z</time>
      </trkpt>
      <trkpt lat="45.02018" lon="0.53793">
        <ele>126.10907</ele>
        <time>2013-03-04T12:38:06Z</time>
      </trkpt>
      <trkpt lat="45.02022" lon="0.5379">
        <ele>126.52478</ele>
        <time>2013-03-04T12:38:08Z</time>
      </trkpt>
      <trkpt lat="45.02027" lon="0.53788">
        <ele>126.923584</ele>
        <time>2013-03-04T12:38:10Z</time>
      </trkpt>
      <trkpt lat="45.02031" lon="0.53785">
        <ele>127.283203</ele>
        <time>2013-03-04T12:38:13Z</time>
      </trkpt>
      <trkpt lat="45.02035" lon="0.53793">
        <ele>127.30719</ele>
        <time>2013-03-04T12:38:17Z</time>
      </trkpt>
      <trkpt lat="45.02038" lon="0.538">
        <ele>127.21991</ele>
        <time>2013-03-04T12:38:19Z</time>
      </trkpt>
      <trkpt lat="45.02041" lon="0.53813">
        <ele>127.076172</ele>
        <time>2013-03-04T12:38:22Z</time>
      </trkpt>
      <trkpt lat="45.02037" lon="0.53794">
        <ele>127.352173</ele>
        <time>2013-03-04T12:38:23Z</time>
      </trkpt>
      <trkpt lat="45.02039" lon="0.53803">
        <ele>127.253174</ele>
        <time>2013-03-04T12:38:26Z</time>
      </trkpt>
      <trkpt lat="45.02045" lon="0.53828">
        <ele>126.895203</ele>
        <time>2013-03-04T12:38:28Z</time>
      </trkpt>
      <trkpt lat="45.02045" lon="0.53838">
        <ele>126.756714</ele>
        <time>2013-03-04T12:38:30Z</time>
      </trkpt>
      <trkpt lat="45.02047" lon="0.53847">
        <ele>126.812683</ele>
        <time>2013-03-04T12:38:32Z</time>
      </trkpt>
      <trkpt lat="45.0205" lon="0.53858">
        <ele>126.910278</ele>
        <time>2013-03-04T12:38:34Z</time>
      </trkpt>
      <trkpt lat="45.02053" lon="0.53868">
        <ele>127.037109</ele>
        <time>2013-03-04T12:38:36Z</time>
      </trkpt>
      <trkpt lat="45.02056" lon="0.53878">
        <ele>127.176514</ele>
        <time>2013-03-04T12:38:38Z</time>
      </trkpt>
      <trkpt lat="45.02059" lon="0.53887">
        <ele>127.30304</ele>
        <time>2013-03-04T12:38:41Z</time>
      </trkpt>
      <trkpt lat="45.02062" lon="0.53897">
        <ele>127.471985</ele>
        <time>2013-03-04T12:38:42Z</time>
      </trkpt>
      <trkpt lat="45.02066" lon="0.53906">
        <ele>127.63678</ele>
        <time>2013-03-04T12:38:44Z</time>
      </trkpt>
      <trkpt lat="45.02069" lon="0.53914">
        <ele>127.790649</ele>
        <time>2013-03-04T12:38:46Z</time>
      </trkpt>
      <trkpt lat="45.02073" lon="0.53918">
        <ele>128.087585</ele>
        <time>2013-03-04T12:38:50Z</time>
      </trkpt>
      <trkpt lat="45.02084" lon="0.53935">
        <ele>128.580994</ele>
        <time>2013-03-04T12:38:52Z</time>
      </trkpt>
      <trkpt lat="45.02088" lon="0.53941">
        <ele>128.734009</ele>
        <time>2013-03-04T12:38:54Z</time>
      </trkpt>
      <trkpt lat="45.02089" lon="0.53943">
        <ele>128.763245</ele>
        <time>2013-03-04T12:38:59Z</time>
      </trkpt>
      <trkpt lat="45.02099" lon="0.53932">
        <ele>129.787659</ele>
        <time>2013-03-04T12:39:01Z</time>
      </trkpt>
      <trkpt lat="45.02104" lon="0.53928">
        <ele>130.190125</ele>
        <time>2013-03-04T12:39:04Z</time>
      </trkpt>
      <trkpt lat="45.02107" lon="0.53924">
        <ele>130.566345</ele>
        <time>2013-03-04T12:39:06Z</time>
      </trkpt>
      <trkpt lat="45.02113" lon="0.53917">
        <ele>131.138</ele>
        <time>2013-03-04T12:39:09Z</time>
      </trkpt>
      <trkpt lat="45.02119" lon="0.53911">
        <ele>131.639832</ele>
        <time>2013-03-04T12:39:11Z</time>
      </trkpt>
      <trkpt lat="45.02124" lon="0.53906">
        <ele>132.080994</ele>
        <time>2013-03-04T12:39:13Z</time>
      </trkpt>
      <trkpt lat="45.02129" lon="0.53901">
        <ele>132.474243</ele>
        <time>2013-03-04T12:39:15Z</time>
      </trkpt>
      <trkpt lat="45.02133" lon="0.53896">
        <ele>132.837769</ele>
        <time>2013-03-04T12:39:18Z</time>
      </trkpt>
      <trkpt lat="45.02135" lon="0.53894">
        <ele>132.985413</ele>
        <time>2013-03-04T12:39:24Z</time>
      </trkpt>
      <trkpt lat="45.02148" lon="0.53907">
        <ele>133.779053</ele>
        <time>2013-03-04T12:39:26Z</time>
      </trkpt>
      <trkpt lat="45.02154" lon="0.53916">
        <ele>134.080383</ele>
        <time>2013-03-04T12:39:28Z</time>
      </trkpt>
      <trkpt lat="45.02159" lon="0.53925">
        <ele>134.264221</ele>
        <time>2013-03-04T12:39:31Z</time>
      </trkpt>
      <trkpt lat="45.02164" lon="0.53933">
        <ele>134.426086</ele>
        <time>2013-03-04T12:39:32Z</time>
      </trkpt>
      <trkpt lat="45.02168" lon="0.53939">
        <ele>134.615906</ele>
        <time>2013-03-04T12:39:34Z</time>
      </trkpt>
      <trkpt lat="45.02173" lon="0.53946">
        <ele>134.885254</ele>
        <time>2013-03-04T12:39:36Z</time>
      </trkpt>
      <trkpt lat="45.02178" lon="0.53954">
        <ele>135.089905</ele>
        <time>2013-03-04T12:39:38Z</time>
      </trkpt>
      <trkpt lat="45.02183" lon="0.53961">
        <ele>135.268127</ele>
        <time>2013-03-04T12:39:41Z</time>
      </trkpt>
      <trkpt lat="45.02186" lon="0.53967">
        <ele>135.369568</ele>
        <time>2013-03-04T12:39:42Z</time>
      </trkpt>
      <trkpt lat="45.02197" lon="0.53984">
        <ele>135.691406</ele>
        <time>2013-03-04T12:39:46Z</time>
      </trkpt>
      <trkpt lat="45.02201" lon="0.53991">
        <ele>135.791138</ele>
        <time>2013-03-04T12:39:48Z</time>
      </trkpt>
      <trkpt lat="45.02205" lon="0.53997">
        <ele>135.879761</ele>
        <time>2013-03-04T12:39:50Z</time>
      </trkpt>
      <trkpt lat="45.0221" lon="0.54003">
        <ele>136.019226</ele>
        <time>2013-03-04T12:39:52Z</time>
      </trkpt>
      <trkpt lat="45.02215" lon="0.54009">
        <ele>136.17749</ele>
        <time>2013-03-04T12:39:54Z</time>
      </trkpt>
      <trkpt lat="45.02221" lon="0.54016">
        <ele>136.382202</ele>
        <time>2013-03-04T12:39:56Z</time>
      </trkpt>
      <trkpt lat="45.02225" lon="0.54021">
        <ele>136.496399</ele>
        <time>2013-03-04T12:39:58Z</time>
      </trkpt>
      <trkpt lat="45.02228" lon="0.54026">
        <ele>136.596558</ele>
        <time>2013-03-04T12:39:59Z</time>
      </trkpt>
      <trkpt lat="45.02234" lon="0.54033">
        <ele>136.753296</ele>
        <time>2013-03-04T12:40:01Z</time>
      </trkpt>
      <trkpt lat="45.0224" lon="0.5404">
        <ele>136.909546</ele>
        <time>2013-03-04T12:40:03Z</time>
      </trkpt>
      <trkpt lat="45.02247" lon="0.54046">
        <ele>137.132996</ele>
        <time>2013-03-04T12:40:05Z</time>
      </trkpt>
      <trkpt lat="45.02252" lon="0.54047">
        <ele>137.328918</ele>
        <time>2013-03-04T12:40:07Z</time>
      </trkpt>
      <trkpt lat="45.02261" lon="0.54054">
        <ele>137.240479</ele>
        <time>2013-03-04T12:40:11Z</time>
      </trkpt>
      <trkpt lat="45.02266" lon="0.54056">
        <ele>137.24762</ele>
        <time>2013-03-04T12:40:13Z</time>
      </trkpt>
      <trkpt lat="45.02271" lon="0.54058">
        <ele>137.256104</ele>
        <time>2013-03-04T12:40:15Z</time>
      </trkpt>
      <trkpt lat="45.02276" lon="0.54061">
        <ele>137.273254</ele>
        <time>2013-03-04T12:40:17Z</time>
      </trkpt>
      <trkpt lat="45.02281" lon="0.54063">
        <ele>137.294739</ele>
        <time>2013-03-04T12:40:21Z</time>
      </trkpt>
      <trkpt lat="45.02285" lon="0.54065">
        <ele>137.317322</ele>
        <time>2013-03-04T12:40:25Z</time>
      </trkpt>
      <trkpt lat="45.0228" lon="0.54063">
        <ele>137.292419</ele>
        <time>2013-03-04T12:40:29Z</time>
      </trkpt>
      <trkpt lat="45.0228" lon="0.54063">
        <ele>137.290588</ele>
        <time>2013-03-04T12:40:34Z</time>
      </trkpt>
    </trkseg>
  </trk>
</gpx>